Darstellungsparameter: Aktuell verwendete Einstellungen:
Skalierung der Graphiken ... ?
xyx+y,   Skalierungsfaktor:      Skalierung: Modus: x, Faktor: 1
Darstellungszeitraum ... ?
Vom - - bis: - -   Zeitraum: 15.12.2016 - 14.06.2017
Min/Max/Avg-Anzeige ... ?
Zeige MMA aktuell
Zeige MMA Monat
Zeige MMA alles
Zeige --A aktuell
Zeige --A Monat
Zeige --A alles
Keine MMA-Anzeige
MMA:
Average (ber die Originaldaten)
MMA-Basis: 15.12.2016 - 14.06.2017
Quicknavigation für Darstellung... ?
Tage:      1T, 2T, 3T, 5T -1T -2T -3T -5T +1T +2T +3T +5T
Wochen: 1W, 2W, 3W -1W -2W -3W +1W +2W +3W
Monate: 1M, 3M, 6M -1M -3M -6M +1M +3M +6M
Jahre:    1J, 3J, 5J, 10J -1J -3J -5J -10J +1J +3J +5J +10J
Nutze für die Darstellung ... ?
Originaldaten oder Mittelwerte auf ...
Stundenbasis Tagesbasis Wochenbasis
Monatsbasis Jahresbasis      Datenbasis: Original-Daten
Darstellen als:
Statistik (Auto) Statistik J:M      Darstellung:
Zur Graphik,    zurück zur Übersicht aller Sensoren.
 
Tabellarische Datenbersicht: ?
 
Sensor: Nr:Datum:Temp:Abs-Feuchte:Windchill:Wind:
Aussen-T/F 1 15-12-2016 00:00:00 6.6 C 7.25 g/m*3 6.6 C 1.6 km/h
2 15-12-2016 00:05:00 6.6 C 7.25 g/m*3 6.6 C 1.6 km/h
3 15-12-2016 00:10:00 6.6 C 7.25 g/m*3 6.6 C 3.2 km/h
4 15-12-2016 00:15:00 6.6 C 7.25 g/m*3 5.44 C 6.4 km/h
5 15-12-2016 00:20:00 6.6 C 7.25 g/m*3 5.44 C 6.4 km/h
6 15-12-2016 00:25:00 6.5 C 7.2 g/m*3 6.5 C 4.8 km/h
7 15-12-2016 00:30:00 6.5 C 7.2 g/m*3 6.5 C 4.8 km/h
8 15-12-2016 00:35:00 6.4 C 7.15 g/m*3 6.4 C 1.6 km/h
9 15-12-2016 00:40:00 6.4 C 7.15 g/m*3 6.4 C 0 km/h
10 15-12-2016 00:45:00 6.4 C 7.15 g/m*3 6.4 C 0 km/h
11 15-12-2016 00:50:00 6.4 C 7.15 g/m*3 6.4 C 0 km/h
12 15-12-2016 00:55:00 6.3 C 7.11 g/m*3 6.3 C 0 km/h
13 15-12-2016 01:00:00 6.3 C 7.11 g/m*3 6.3 C 1.6 km/h
14 15-12-2016 01:05:00 6.3 C 7.11 g/m*3 6.3 C 3.2 km/h
15 15-12-2016 01:10:00 6.3 C 7.11 g/m*3 6.3 C 1.6 km/h
16 15-12-2016 01:15:00 6.3 C 7.11 g/m*3 6.3 C 1.6 km/h
17 15-12-2016 01:20:00 6.3 C 7.11 g/m*3 6.3 C 0 km/h
18 15-12-2016 01:25:00 6.3 C 7.11 g/m*3 6.3 C 0 km/h
19 15-12-2016 01:30:00 6.3 C 7.11 g/m*3 6.3 C 0 km/h
20 15-12-2016 01:35:00 6.3 C 7.11 g/m*3 6.3 C 0 km/h
21 15-12-2016 01:40:00 6.3 C 7.11 g/m*3 6.3 C 0 km/h
22 15-12-2016 01:45:00 6.3 C 7.11 g/m*3 6.3 C 0 km/h
23 15-12-2016 01:50:00 6.3 C 7.11 g/m*3 6.3 C 0 km/h
24 15-12-2016 01:55:00 6.2 C 7.06 g/m*3 6.2 C 0 km/h
25 15-12-2016 02:00:00 6.2 C 7.06 g/m*3 6.2 C 0 km/h
Sensor: Nr:Datum:Temp:Abs-Feuchte:Windchill:Wind:
Aussen-T/F 26 15-12-2016 02:05:00 6.2 C 7.06 g/m*3 6.2 C 0 km/h
27 15-12-2016 02:10:00 6.2 C 7.06 g/m*3 6.2 C 0 km/h
28 15-12-2016 02:15:00 6.2 C 7.06 g/m*3 6.2 C 0 km/h
29 15-12-2016 02:20:00 6.2 C 7.06 g/m*3 6.2 C 0 km/h
30 15-12-2016 02:25:00 6.2 C 7.06 g/m*3 6.2 C 0 km/h
31 15-12-2016 02:30:00 6.3 C 7.11 g/m*3 6.3 C 3.2 km/h
32 15-12-2016 02:35:00 6.3 C 7.11 g/m*3 6.3 C 0 km/h
33 15-12-2016 02:40:00 6.3 C 7.11 g/m*3 6.3 C 0 km/h
34 15-12-2016 02:45:00 6.3 C 7.11 g/m*3 6.3 C 0 km/h
35 15-12-2016 02:50:00 6.3 C 7.11 g/m*3 6.3 C 0 km/h
36 15-12-2016 02:55:00 6.3 C 7.11 g/m*3 6.3 C 0 km/h
37 15-12-2016 03:00:00 6.3 C 7.11 g/m*3 6.3 C 0 km/h
38 15-12-2016 03:05:00 6.3 C 7.11 g/m*3 6.3 C 0 km/h
39 15-12-2016 03:10:00 6.3 C 7.11 g/m*3 6.3 C 0 km/h
40 15-12-2016 03:15:00 6.3 C 7.11 g/m*3 6.3 C 0 km/h
41 15-12-2016 03:20:00 6.3 C 7.11 g/m*3 6.3 C 0 km/h
42 15-12-2016 03:25:00 6.3 C 7.11 g/m*3 6.3 C 0 km/h
43 15-12-2016 03:30:00 6.3 C 7.11 g/m*3 6.3 C 0 km/h
44 15-12-2016 03:35:00 6.3 C 7.11 g/m*3 6.3 C 0 km/h
45 15-12-2016 03:40:00 6.3 C 7.11 g/m*3 6.3 C 0 km/h
46 15-12-2016 03:45:00 6.3 C 7.11 g/m*3 6.3 C 0 km/h
47 15-12-2016 03:50:00 6.3 C 7.11 g/m*3 6.3 C 0 km/h
48 15-12-2016 03:55:00 6.3 C 7.11 g/m*3 6.3 C 0 km/h
49 15-12-2016 04:00:00 6.3 C 7.11 g/m*3 6.3 C 0 km/h
50 15-12-2016 04:05:00 6.3 C 7.11 g/m*3 6.3 C 0 km/h
Sensor: Nr:Datum:Temp:Abs-Feuchte:Windchill:Wind:
Aussen-T/F 51 15-12-2016 04:10:00 6.3 C 7.11 g/m*3 6.3 C 0 km/h
52 15-12-2016 04:15:00 6.3 C 7.11 g/m*3 6.3 C 0 km/h
53 15-12-2016 04:20:00 6.3 C 7.11 g/m*3 6.3 C 0 km/h
54 15-12-2016 04:25:00 6.3 C 7.11 g/m*3 6.3 C 0 km/h
55 15-12-2016 04:30:00 6.3 C 7.11 g/m*3 6.3 C 0 km/h
56 15-12-2016 04:35:00 6.3 C 7.11 g/m*3 6.3 C 0 km/h
57 15-12-2016 04:40:00 6.3 C 7.11 g/m*3 6.3 C 0 km/h
58 15-12-2016 04:45:00 6.3 C 7.11 g/m*3 6.3 C 0 km/h
59 15-12-2016 04:50:00 6.3 C 7.11 g/m*3 6.3 C 0 km/h
60 15-12-2016 04:55:00 6.3 C 7.11 g/m*3 6.3 C 0 km/h
61 15-12-2016 05:00:00 6.3 C 7.11 g/m*3 6.3 C 0 km/h
62 15-12-2016 05:05:00 6.4 C 7.15 g/m*3 6.4 C 0 km/h
63 15-12-2016 05:10:00 6.4 C 7.15 g/m*3 6.4 C 0 km/h
64 15-12-2016 05:15:00 6.4 C 7.15 g/m*3 6.4 C 0 km/h
65 15-12-2016 05:20:00 6.4 C 7.15 g/m*3 6.4 C 0 km/h
66 15-12-2016 05:25:00 6.4 C 7.15 g/m*3 6.4 C 0 km/h
67 15-12-2016 05:30:00 6.4 C 7.15 g/m*3 6.4 C 0 km/h
68 15-12-2016 05:35:00 6.4 C 7.15 g/m*3 6.4 C 0 km/h
69 15-12-2016 05:40:00 6.4 C 7.15 g/m*3 6.4 C 0 km/h
70 15-12-2016 05:45:00 6.4 C 7.15 g/m*3 6.4 C 0 km/h
71 15-12-2016 05:50:00 6.4 C 7.15 g/m*3 6.4 C 0 km/h
72 15-12-2016 05:55:00 6.4 C 7.15 g/m*3 6.4 C 1.6 km/h
73 15-12-2016 06:00:00 6.4 C 7.15 g/m*3 6.4 C 0 km/h
74 15-12-2016 06:05:00 6.4 C 7.15 g/m*3 6.4 C 0 km/h
75 15-12-2016 06:10:00 6.4 C 7.15 g/m*3 6.4 C 0 km/h
Sensor: Nr:Datum:Temp:Abs-Feuchte:Windchill:Wind:
Aussen-T/F 76 15-12-2016 06:15:00 6.4 C 7.23 g/m*3 6.4 C 0 km/h
77 15-12-2016 06:20:00 6.4 C 7.23 g/m*3 6.4 C 0 km/h
78 15-12-2016 06:25:00 6.4 C 7.23 g/m*3 6.4 C 0 km/h
79 15-12-2016 06:30:00 6.4 C 7.23 g/m*3 6.4 C 0 km/h
80 15-12-2016 06:35:00 6.4 C 7.23 g/m*3 6.4 C 0 km/h
81 15-12-2016 06:40:00 6.5 C 7.27 g/m*3 6.5 C 0 km/h
82 15-12-2016 06:45:00 6.5 C 7.27 g/m*3 6.5 C 0 km/h
83 15-12-2016 06:50:00 6.5 C 7.27 g/m*3 6.5 C 0 km/h
84 15-12-2016 06:55:00 6.5 C 7.27 g/m*3 6.5 C 0 km/h
85 15-12-2016 07:00:00 6.5 C 7.27 g/m*3 6.5 C 0 km/h
86 15-12-2016 07:05:00 6.5 C 7.27 g/m*3 6.5 C 0 km/h
87 15-12-2016 07:10:00 6.5 C 7.2 g/m*3 6.5 C 0 km/h
88 15-12-2016 07:15:00 6.5 C 7.27 g/m*3 6.5 C 0 km/h
89 15-12-2016 07:20:00 6.6 C 7.32 g/m*3 6.6 C 0 km/h
90 15-12-2016 07:25:00 6.6 C 7.32 g/m*3 6.6 C 0 km/h
91 15-12-2016 07:30:00 6.5 C 7.27 g/m*3 6.5 C 0 km/h
92 15-12-2016 07:35:00 6.5 C 7.27 g/m*3 6.5 C 0 km/h
93 15-12-2016 07:40:00 6.5 C 7.27 g/m*3 6.5 C 0 km/h
94 15-12-2016 07:45:00 6.5 C 7.2 g/m*3 6.5 C 0 km/h
95 15-12-2016 07:50:00 6.5 C 7.27 g/m*3 6.5 C 0 km/h
96 15-12-2016 07:55:00 6.5 C 7.27 g/m*3 6.5 C 0 km/h
97 15-12-2016 08:00:00 6.5 C 7.27 g/m*3 6.5 C 0 km/h
98 15-12-2016 08:05:00 6.5 C 7.27 g/m*3 6.5 C 0 km/h
99 15-12-2016 08:10:00 6.5 C 7.27 g/m*3 6.5 C 0 km/h
100 15-12-2016 08:15:00 6.6 C 7.32 g/m*3 6.6 C 0 km/h
Sensor: Nr:Datum:Temp:Abs-Feuchte:Windchill:Wind:
Aussen-T/F 101 15-12-2016 08:20:00 6.5 C 7.27 g/m*3 6.5 C 0 km/h
102 15-12-2016 08:25:00 6.5 C 7.27 g/m*3 6.5 C 0 km/h
103 15-12-2016 08:30:00 6.6 C 7.32 g/m*3 6.6 C 0 km/h
104 15-12-2016 08:35:00 6.6 C 7.32 g/m*3 6.6 C 0 km/h
105 15-12-2016 08:40:00 6.6 C 7.32 g/m*3 6.6 C 0 km/h
106 15-12-2016 08:45:00 6.6 C 7.32 g/m*3 6.6 C 0 km/h
107 15-12-2016 08:50:00 6.6 C 7.32 g/m*3 6.6 C 0 km/h
108 15-12-2016 08:55:00 6.6 C 7.32 g/m*3 6.6 C 0 km/h
109 15-12-2016 09:00:00 6.6 C 7.32 g/m*3 6.6 C 0 km/h
110 15-12-2016 09:05:00 6.6 C 7.32 g/m*3 6.6 C 0 km/h
111 15-12-2016 09:10:00 6.7 C 7.37 g/m*3 6.7 C 0 km/h
112 15-12-2016 09:15:00 6.7 C 7.37 g/m*3 6.7 C 0 km/h
113 15-12-2016 09:20:00 6.7 C 7.37 g/m*3 6.7 C 0 km/h
114 15-12-2016 09:25:00 6.8 C 7.42 g/m*3 6.8 C 0 km/h
115 15-12-2016 09:30:00 6.8 C 7.42 g/m*3 6.8 C 0 km/h
116 15-12-2016 09:35:00 6.8 C 7.42 g/m*3 6.8 C 0 km/h
117 15-12-2016 09:40:00 6.9 C 7.47 g/m*3 6.9 C 0 km/h
118 15-12-2016 09:45:00 6.9 C 7.47 g/m*3 6.9 C 0 km/h
119 15-12-2016 09:50:00 7 C 7.52 g/m*3 7 C 0 km/h
120 15-12-2016 09:55:00 7 C 7.52 g/m*3 7 C 0 km/h
121 15-12-2016 10:00:00 7.1 C 7.57 g/m*3 7.1 C 0 km/h
122 15-12-2016 10:05:00 7.1 C 7.57 g/m*3 7.1 C 0 km/h
123 15-12-2016 10:10:00 7.2 C 7.61 g/m*3 7.2 C 0 km/h
124 15-12-2016 10:15:00 7.2 C 7.61 g/m*3 7.2 C 0 km/h
125 15-12-2016 10:20:00 7.3 C 7.66 g/m*3 7.3 C 0 km/h
Sensor: Nr:Datum:Temp:Abs-Feuchte:Windchill:Wind:
Aussen-T/F 126 15-12-2016 10:25:00 7.2 C 7.61 g/m*3 7.2 C 0 km/h
127 15-12-2016 10:30:00 7.2 C 7.61 g/m*3 7.2 C 0 km/h
128 15-12-2016 10:35:00 7.2 C 7.61 g/m*3 7.2 C 0 km/h
129 15-12-2016 10:40:00 7.2 C 7.61 g/m*3 7.2 C 0 km/h
130 15-12-2016 10:45:00 7.2 C 7.61 g/m*3 7.2 C 0 km/h
131 15-12-2016 10:50:00 7.3 C 7.66 g/m*3 7.3 C 0 km/h
132 15-12-2016 10:55:00 7.3 C 7.66 g/m*3 7.3 C 0 km/h
133 15-12-2016 11:00:00 7.4 C 7.71 g/m*3 7.4 C 0 km/h
134 15-12-2016 11:05:00 7.4 C 7.71 g/m*3 7.4 C 0 km/h
135 15-12-2016 11:10:00 7.4 C 7.71 g/m*3 7.4 C 0 km/h
136 15-12-2016 11:15:00 7.5 C 7.68 g/m*3 7.5 C 0 km/h
137 15-12-2016 11:20:00 7.6 C 7.73 g/m*3 7.6 C 0 km/h
138 15-12-2016 11:25:00 7.7 C 7.78 g/m*3 7.7 C 0 km/h
139 15-12-2016 11:30:00 7.7 C 7.87 g/m*3 7.7 C 0 km/h
140 15-12-2016 11:35:00 7.7 C 7.87 g/m*3 7.7 C 0 km/h
141 15-12-2016 11:40:00 7.8 C 7.83 g/m*3 7.8 C 0 km/h
142 15-12-2016 11:45:00 7.8 C 7.83 g/m*3 7.8 C 1.6 km/h
143 15-12-2016 11:50:00 7.8 C 7.83 g/m*3 7.8 C 0 km/h
144 15-12-2016 11:55:00 7.8 C 7.83 g/m*3 7.8 C 0 km/h
145 15-12-2016 12:00:00 7.8 C 7.83 g/m*3 7.8 C 0 km/h
146 15-12-2016 12:05:00 7.8 C 7.83 g/m*3 7.8 C 0 km/h
147 15-12-2016 12:10:00 7.8 C 7.83 g/m*3 7.8 C 0 km/h
148 15-12-2016 12:15:00 7.9 C 7.89 g/m*3 7.9 C 0 km/h
149 15-12-2016 12:20:00 7.9 C 7.89 g/m*3 7.9 C 0 km/h
150 15-12-2016 12:25:00 7.9 C 7.89 g/m*3 7.9 C 0 km/h
Sensor: Nr:Datum:Temp:Abs-Feuchte:Windchill:Wind:
Aussen-T/F 151 15-12-2016 12:30:00 7.9 C 7.8 g/m*3 7.9 C 0 km/h
152 15-12-2016 12:35:00 7.9 C 7.8 g/m*3 7.9 C 0 km/h
153 15-12-2016 12:40:00 7.9 C 7.8 g/m*3 7.9 C 0 km/h
154 15-12-2016 12:45:00 8 C 7.85 g/m*3 8 C 1.6 km/h
155 15-12-2016 12:50:00 8 C 7.85 g/m*3 8 C 0 km/h
156 15-12-2016 12:55:00 8 C 7.85 g/m*3 8 C 0 km/h
157 15-12-2016 13:00:00 8.1 C 7.9 g/m*3 8.1 C 0 km/h
158 15-12-2016 13:05:00 8.1 C 7.82 g/m*3 8.1 C 0 km/h
159 15-12-2016 13:10:00 8.1 C 7.82 g/m*3 8.1 C 0 km/h
160 15-12-2016 13:15:00 8.2 C 7.87 g/m*3 8.2 C 0 km/h
161 15-12-2016 13:20:00 8.2 C 7.87 g/m*3 8.2 C 0 km/h
162 15-12-2016 13:25:00 8.2 C 7.87 g/m*3 8.2 C 0 km/h
163 15-12-2016 13:30:00 8.3 C 7.92 g/m*3 8.3 C 1.6 km/h
164 15-12-2016 13:35:00 8.3 C 7.84 g/m*3 8.3 C 0 km/h
165 15-12-2016 13:40:00 8.3 C 7.84 g/m*3 8.3 C 0 km/h
166 15-12-2016 13:45:00 8.4 C 7.89 g/m*3 8.4 C 0 km/h
167 15-12-2016 13:50:00 8.4 C 7.89 g/m*3 8.4 C 1.6 km/h
168 15-12-2016 13:55:00 8.4 C 7.8 g/m*3 8.4 C 0 km/h
169 15-12-2016 14:00:00 8.4 C 7.8 g/m*3 8.4 C 0 km/h
170 15-12-2016 14:05:00 8.4 C 7.8 g/m*3 8.4 C 0 km/h
171 15-12-2016 14:10:00 8.4 C 7.8 g/m*3 8.4 C 1.6 km/h
172 15-12-2016 14:15:00 8.4 C 7.8 g/m*3 8.4 C 1.6 km/h
173 15-12-2016 14:20:00 8.3 C 7.75 g/m*3 8.3 C 3.2 km/h
174 15-12-2016 14:25:00 8.3 C 7.75 g/m*3 8.3 C 3.2 km/h
175 15-12-2016 14:30:00 8.3 C 7.67 g/m*3 8.3 C 1.6 km/h
Sensor: Nr:Datum:Temp:Abs-Feuchte:Windchill:Wind:
Aussen-T/F 176 15-12-2016 14:35:00 8.3 C 7.75 g/m*3 8.3 C 0 km/h
177 15-12-2016 14:40:00 8.3 C 7.67 g/m*3 8.3 C 1.6 km/h
178 15-12-2016 14:45:00 8.3 C 7.67 g/m*3 8.3 C 1.6 km/h
179 15-12-2016 14:50:00 8.3 C 7.67 g/m*3 8.3 C 4.8 km/h
180 15-12-2016 14:55:00 8.3 C 7.67 g/m*3 8.3 C 0 km/h
181 15-12-2016 15:00:00 8.3 C 7.67 g/m*3 8.3 C 0 km/h
182 15-12-2016 15:05:00 8.3 C 7.67 g/m*3 8.3 C 1.6 km/h
183 15-12-2016 15:10:00 8.3 C 7.67 g/m*3 8.3 C 0 km/h
184 15-12-2016 15:15:00 8.3 C 7.67 g/m*3 8.3 C 0 km/h
185 15-12-2016 15:20:00 8.3 C 7.67 g/m*3 8.3 C 0 km/h
186 15-12-2016 15:25:00 8.2 C 7.62 g/m*3 8.2 C 1.6 km/h
187 15-12-2016 15:30:00 8.2 C 7.62 g/m*3 8.2 C 0 km/h
188 15-12-2016 15:35:00 8.2 C 7.62 g/m*3 8.2 C 4.8 km/h
189 15-12-2016 15:40:00 8.2 C 7.62 g/m*3 8.2 C 3.2 km/h
190 15-12-2016 15:45:00 8.2 C 7.62 g/m*3 8.2 C 4.8 km/h
191 15-12-2016 15:50:00 8.1 C 7.57 g/m*3 7.17 C 6.4 km/h
192 15-12-2016 15:55:00 8.1 C 7.57 g/m*3 8.1 C 3.2 km/h
193 15-12-2016 16:00:00 8 C 7.52 g/m*3 8 C 1.6 km/h
194 15-12-2016 16:05:00 8 C 7.52 g/m*3 8 C 0 km/h
195 15-12-2016 16:10:00 7.9 C 7.47 g/m*3 7.9 C 1.6 km/h
196 15-12-2016 16:15:00 7.9 C 7.47 g/m*3 7.9 C 1.6 km/h
197 15-12-2016 16:20:00 7.9 C 7.56 g/m*3 7.9 C 3.2 km/h
198 15-12-2016 16:25:00 7.9 C 7.56 g/m*3 7.9 C 3.2 km/h
199 15-12-2016 16:30:00 7.8 C 7.43 g/m*3 7.8 C 4.8 km/h
200 15-12-2016 16:35:00 7.8 C 7.51 g/m*3 7.8 C 3.2 km/h
Sensor: Nr:Datum:Temp:Abs-Feuchte:Windchill:Wind:
Aussen-T/F 201 15-12-2016 16:40:00 7.8 C 7.51 g/m*3 7.8 C 0 km/h
202 15-12-2016 16:45:00 7.8 C 7.51 g/m*3 7.8 C 0 km/h
203 15-12-2016 16:50:00 7.7 C 7.46 g/m*3 7.7 C 0 km/h
204 15-12-2016 16:55:00 7.7 C 7.46 g/m*3 7.7 C 1.6 km/h
205 15-12-2016 17:00:00 7.7 C 7.46 g/m*3 7.7 C 3.2 km/h
206 15-12-2016 17:05:00 7.6 C 7.41 g/m*3 7.6 C 1.6 km/h
207 15-12-2016 17:10:00 7.6 C 7.41 g/m*3 7.6 C 0 km/h
208 15-12-2016 17:15:00 7.6 C 7.41 g/m*3 7.6 C 0 km/h
209 15-12-2016 17:20:00 7.6 C 7.41 g/m*3 7.6 C 0 km/h
210 15-12-2016 17:25:00 7.6 C 7.49 g/m*3 7.6 C 0 km/h
211 15-12-2016 17:30:00 7.6 C 7.49 g/m*3 7.6 C 0 km/h
212 15-12-2016 17:35:00 7.6 C 7.49 g/m*3 7.6 C 0 km/h
213 15-12-2016 17:40:00 7.5 C 7.44 g/m*3 7.5 C 0 km/h
214 15-12-2016 17:45:00 7.4 C 7.4 g/m*3 7.4 C 0 km/h
215 15-12-2016 17:50:00 7.4 C 7.4 g/m*3 7.4 C 0 km/h
216 15-12-2016 17:55:00 7.4 C 7.4 g/m*3 7.4 C 0 km/h
217 15-12-2016 18:00:00 7.4 C 7.4 g/m*3 7.4 C 0 km/h
218 15-12-2016 18:05:00 7.3 C 7.35 g/m*3 7.3 C 0 km/h
219 15-12-2016 18:10:00 7.3 C 7.35 g/m*3 7.3 C 1.6 km/h
220 15-12-2016 18:15:00 7.3 C 7.35 g/m*3 7.3 C 3.2 km/h
221 15-12-2016 18:20:00 7.3 C 7.35 g/m*3 7.3 C 1.6 km/h
222 15-12-2016 18:25:00 7.2 C 7.3 g/m*3 7.2 C 0 km/h
223 15-12-2016 18:30:00 7.2 C 7.3 g/m*3 7.2 C 0 km/h
224 15-12-2016 18:35:00 7.2 C 7.3 g/m*3 7.2 C 0 km/h
225 15-12-2016 18:40:00 7.2 C 7.3 g/m*3 7.2 C 0 km/h
Sensor: Nr:Datum:Temp:Abs-Feuchte:Windchill:Wind:
Aussen-T/F 226 15-12-2016 18:45:00 7.2 C 7.3 g/m*3 7.2 C 0 km/h
227 15-12-2016 18:50:00 7.1 C 7.25 g/m*3 7.1 C 0 km/h
228 15-12-2016 18:55:00 7.1 C 7.25 g/m*3 7.1 C 0 km/h
229 15-12-2016 19:00:00 7.1 C 7.25 g/m*3 7.1 C 0 km/h
230 15-12-2016 19:05:00 7.1 C 7.25 g/m*3 7.1 C 0 km/h
231 15-12-2016 19:10:00 7 C 7.21 g/m*3 7 C 0 km/h
232 15-12-2016 19:15:00 7 C 7.21 g/m*3 7 C 0 km/h
233 15-12-2016 19:20:00 6.9 C 7.16 g/m*3 6.9 C 0 km/h
234 15-12-2016 19:25:00 6.9 C 7.16 g/m*3 6.9 C 0 km/h
235 15-12-2016 19:30:00 6.9 C 7.16 g/m*3 6.9 C 0 km/h
236 15-12-2016 19:35:00 6.8 C 7.11 g/m*3 6.8 C 1.6 km/h
237 15-12-2016 19:40:00 6.8 C 7.04 g/m*3 5.67 C 6.4 km/h
238 15-12-2016 19:45:00 6.7 C 6.91 g/m*3 6.7 C 4.8 km/h
239 15-12-2016 19:50:00 6.7 C 6.91 g/m*3 5.56 C 6.4 km/h
240 15-12-2016 19:55:00 6.7 C 6.84 g/m*3 6.7 C 3.2 km/h
241 15-12-2016 20:00:00 6.7 C 6.84 g/m*3 6.7 C 4.8 km/h
242 15-12-2016 20:05:00 6.6 C 6.79 g/m*3 6.6 C 1.6 km/h
243 15-12-2016 20:10:00 6.6 C 6.87 g/m*3 6.6 C 1.6 km/h
244 15-12-2016 20:15:00 6.4 C 6.71 g/m*3 6.4 C 3.2 km/h
245 15-12-2016 20:20:00 6.4 C 6.71 g/m*3 6.4 C 3.2 km/h
246 15-12-2016 20:25:00 6.3 C 6.66 g/m*3 6.3 C 3.2 km/h
247 15-12-2016 20:30:00 6.3 C 6.66 g/m*3 6.3 C 3.2 km/h
248 15-12-2016 20:35:00 6.3 C 6.66 g/m*3 6.3 C 0 km/h
249 15-12-2016 20:40:00 6.3 C 6.66 g/m*3 6.3 C 0 km/h
250 15-12-2016 20:45:00 6.3 C 6.74 g/m*3 6.3 C 0 km/h
Sensor: Nr:Datum:Temp:Abs-Feuchte:Windchill:Wind:
Aussen-T/F 251 15-12-2016 20:50:00 6.3 C 6.74 g/m*3 6.3 C 0 km/h
252 15-12-2016 20:55:00 6.2 C 6.69 g/m*3 6.2 C 0 km/h
253 15-12-2016 21:00:00 6.2 C 6.69 g/m*3 6.2 C 0 km/h
254 15-12-2016 21:05:00 6.2 C 6.69 g/m*3 6.2 C 0 km/h
255 15-12-2016 21:10:00 6.2 C 6.69 g/m*3 6.2 C 0 km/h
256 15-12-2016 21:15:00 6.1 C 6.65 g/m*3 6.1 C 0 km/h
257 15-12-2016 21:20:00 6.1 C 6.65 g/m*3 6.1 C 0 km/h
258 15-12-2016 21:25:00 6.1 C 6.65 g/m*3 6.1 C 0 km/h
259 15-12-2016 21:30:00 6.1 C 6.65 g/m*3 6.1 C 0 km/h
260 15-12-2016 21:35:00 6.1 C 6.65 g/m*3 6.1 C 0 km/h
261 15-12-2016 21:40:00 6 C 6.6 g/m*3 6 C 0 km/h
262 15-12-2016 21:45:00 6 C 6.68 g/m*3 6 C 0 km/h
263 15-12-2016 21:50:00 6 C 6.68 g/m*3 6 C 0 km/h
264 15-12-2016 21:55:00 5.9 C 6.63 g/m*3 5.9 C 0 km/h
265 15-12-2016 22:00:00 5.9 C 6.63 g/m*3 5.9 C 0 km/h
266 15-12-2016 22:05:00 5.9 C 6.63 g/m*3 5.9 C 0 km/h
267 15-12-2016 22:10:00 5.9 C 6.63 g/m*3 5.9 C 0 km/h
268 15-12-2016 22:15:00 5.9 C 6.63 g/m*3 5.9 C 0 km/h
269 15-12-2016 22:20:00 5.8 C 6.66 g/m*3 5.8 C 0 km/h
270 15-12-2016 22:25:00 5.8 C 6.66 g/m*3 5.8 C 0 km/h
271 15-12-2016 22:30:00 5.8 C 6.66 g/m*3 5.8 C 0 km/h
272 15-12-2016 22:35:00 5.8 C 6.66 g/m*3 5.8 C 0 km/h
273 15-12-2016 22:40:00 5.8 C 6.66 g/m*3 5.8 C 0 km/h
274 15-12-2016 22:45:00 5.8 C 6.66 g/m*3 5.8 C 0 km/h
275 15-12-2016 22:50:00 5.8 C 6.66 g/m*3 5.8 C 0 km/h
Sensor: Nr:Datum:Temp:Abs-Feuchte:Windchill:Wind:
Aussen-T/F 276 15-12-2016 22:55:00 5.8 C 6.66 g/m*3 5.8 C 0 km/h
277 15-12-2016 23:00:00 5.8 C 6.66 g/m*3 5.8 C 0 km/h
278 15-12-2016 23:05:00 5.8 C 6.66 g/m*3 5.8 C 0 km/h
279 15-12-2016 23:10:00 5.8 C 6.66 g/m*3 5.8 C 0 km/h
280 15-12-2016 23:15:00 5.8 C 6.66 g/m*3 5.8 C 3.2 km/h
281 15-12-2016 23:20:00 5.8 C 6.66 g/m*3 5.8 C 0 km/h
282 15-12-2016 23:25:00 5.8 C 6.66 g/m*3 5.8 C 0 km/h
283 15-12-2016 23:30:00 5.8 C 6.66 g/m*3 5.8 C 0 km/h
284 15-12-2016 23:35:00 5.8 C 6.66 g/m*3 5.8 C 0 km/h
285 15-12-2016 23:40:00 5.8 C 6.66 g/m*3 5.8 C 0 km/h
286 15-12-2016 23:45:00 5.8 C 6.66 g/m*3 5.8 C 4.8 km/h
287 15-12-2016 23:50:00 5.8 C 6.66 g/m*3 5.8 C 3.2 km/h
288 15-12-2016 23:55:00 5.8 C 6.66 g/m*3 5.8 C 1.6 km/h
289 16-12-2016 00:00:00 5.8 C 6.59 g/m*3 5.8 C 1.6 km/h
290 16-12-2016 00:05:00 5.8 C 6.59 g/m*3 5.8 C 3.2 km/h
291 16-12-2016 00:10:00 5.8 C 6.59 g/m*3 5.8 C 0 km/h
292 16-12-2016 00:15:00 5.9 C 6.56 g/m*3 5.9 C 1.6 km/h
293 16-12-2016 00:20:00 5.9 C 6.56 g/m*3 5.9 C 3.2 km/h
294 16-12-2016 00:25:00 5.9 C 6.56 g/m*3 4.63 C 6.4 km/h
295 16-12-2016 00:30:00 5.9 C 6.49 g/m*3 5.9 C 3.2 km/h
296 16-12-2016 00:35:00 5.9 C 6.49 g/m*3 5.9 C 0 km/h
297 16-12-2016 00:40:00 5.9 C 6.49 g/m*3 5.9 C 0 km/h
298 16-12-2016 00:45:00 5.9 C 6.49 g/m*3 5.9 C 0 km/h
299 16-12-2016 00:50:00 5.9 C 6.49 g/m*3 5.9 C 0 km/h
300 16-12-2016 00:55:00 5.9 C 6.49 g/m*3 5.9 C 1.6 km/h
Sensor: Nr:Datum:Temp:Abs-Feuchte:Windchill:Wind:
Aussen-T/F 301 16-12-2016 01:00:00 5.9 C 6.49 g/m*3 5.9 C 3.2 km/h
302 16-12-2016 01:05:00 5.9 C 6.49 g/m*3 5.9 C 0 km/h
303 16-12-2016 01:10:00 5.9 C 6.49 g/m*3 5.9 C 1.6 km/h
304 16-12-2016 01:15:00 5.8 C 6.45 g/m*3 5.8 C 3.2 km/h
305 16-12-2016 01:20:00 5.8 C 6.38 g/m*3 5.8 C 3.2 km/h
306 16-12-2016 01:25:00 5.8 C 6.38 g/m*3 5.8 C 1.6 km/h
307 16-12-2016 01:30:00 5.8 C 6.38 g/m*3 5.8 C 4.8 km/h
308 16-12-2016 01:35:00 5.8 C 6.38 g/m*3 5.8 C 0 km/h
309 16-12-2016 01:40:00 5.7 C 6.33 g/m*3 5.7 C 0 km/h
310 16-12-2016 01:45:00 5.7 C 6.33 g/m*3 5.7 C 4.8 km/h
311 16-12-2016 01:50:00 5.7 C 6.33 g/m*3 5.7 C 3.2 km/h
312 16-12-2016 01:55:00 5.6 C 6.22 g/m*3 5.6 C 3.2 km/h
313 16-12-2016 02:00:00 5.6 C 6.22 g/m*3 5.6 C 3.2 km/h
314 16-12-2016 02:05:00 5.6 C 6.22 g/m*3 5.6 C 0 km/h
315 16-12-2016 02:10:00 5.6 C 6.29 g/m*3 5.6 C 0 km/h
316 16-12-2016 02:15:00 5.6 C 6.29 g/m*3 5.6 C 1.6 km/h
317 16-12-2016 02:20:00 5.6 C 6.29 g/m*3 5.6 C 1.6 km/h
318 16-12-2016 02:25:00 5.6 C 6.22 g/m*3 3.44 C 9.7 km/h
319 16-12-2016 02:30:00 5.6 C 6.29 g/m*3 3.44 C 9.7 km/h
320 16-12-2016 02:35:00 5.6 C 6.29 g/m*3 5.6 C 3.2 km/h
321 16-12-2016 02:40:00 5.5 C 6.25 g/m*3 5.5 C 3.2 km/h
322 16-12-2016 02:45:00 5.5 C 6.25 g/m*3 5.5 C 0 km/h
323 16-12-2016 02:50:00 5.5 C 6.25 g/m*3 5.5 C 1.6 km/h
324 16-12-2016 02:55:00 5.4 C 6.21 g/m*3 5.4 C 3.2 km/h
325 16-12-2016 03:00:00 5.4 C 6.21 g/m*3 5.4 C 3.2 km/h
Sensor: Nr:Datum:Temp:Abs-Feuchte:Windchill:Wind:
Aussen-T/F 326 16-12-2016 03:05:00 5.4 C 6.21 g/m*3 5.4 C 3.2 km/h
327 16-12-2016 03:10:00 5.4 C 6.14 g/m*3 5.4 C 3.2 km/h
328 16-12-2016 03:15:00 5.4 C 6.21 g/m*3 5.4 C 3.2 km/h
329 16-12-2016 03:20:00 5.4 C 6.14 g/m*3 4.06 C 6.4 km/h
330 16-12-2016 03:25:00 5.4 C 6.14 g/m*3 5.4 C 1.6 km/h
331 16-12-2016 03:30:00 5.4 C 6.14 g/m*3 5.4 C 1.6 km/h
332 16-12-2016 03:35:00 5.3 C 6.1 g/m*3 5.3 C 3.2 km/h
333 16-12-2016 03:40:00 5.3 C 6.17 g/m*3 5.3 C 3.2 km/h
334 16-12-2016 03:45:00 5.3 C 6.17 g/m*3 5.3 C 0 km/h
335 16-12-2016 03:50:00 5.3 C 6.1 g/m*3 3.94 C 6.4 km/h
336 16-12-2016 03:55:00 5.2 C 6.06 g/m*3 5.2 C 4.8 km/h
337 16-12-2016 04:00:00 5.2 C 6.06 g/m*3 5.2 C 3.2 km/h
338 16-12-2016 04:05:00 5.2 C 6.06 g/m*3 5.2 C 1.6 km/h
339 16-12-2016 04:10:00 5.2 C 6.06 g/m*3 5.2 C 1.6 km/h
340 16-12-2016 04:15:00 5.2 C 6.13 g/m*3 5.2 C 4.8 km/h
341 16-12-2016 04:20:00 5.2 C 6.06 g/m*3 5.2 C 0 km/h
342 16-12-2016 04:25:00 5.2 C 6.13 g/m*3 5.2 C 0 km/h
343 16-12-2016 04:30:00 5.1 C 6.02 g/m*3 5.1 C 1.6 km/h
344 16-12-2016 04:35:00 5.1 C 6.02 g/m*3 5.1 C 0 km/h
345 16-12-2016 04:40:00 5.1 C 6.02 g/m*3 5.1 C 3.2 km/h
346 16-12-2016 04:45:00 5.1 C 6.02 g/m*3 5.1 C 1.6 km/h
347 16-12-2016 04:50:00 5.1 C 6.09 g/m*3 5.1 C 1.6 km/h
348 16-12-2016 04:55:00 5.1 C 6.09 g/m*3 5.1 C 1.6 km/h
349 16-12-2016 05:00:00 5.1 C 6.09 g/m*3 5.1 C 3.2 km/h
350 16-12-2016 05:05:00 5.1 C 6.09 g/m*3 5.1 C 1.6 km/h
Sensor: Nr:Datum:Temp:Abs-Feuchte:Windchill:Wind:
Aussen-T/F 351 16-12-2016 05:10:00 5 C 6.05 g/m*3 5 C 4.8 km/h
352 16-12-2016 05:15:00 5 C 6.05 g/m*3 5 C 1.6 km/h
353 16-12-2016 05:20:00 4.9 C 6.01 g/m*3 3.48 C 6.4 km/h
354 16-12-2016 05:25:00 4.9 C 5.94 g/m*3 4.9 C 1.6 km/h
355 16-12-2016 05:30:00 4.9 C 5.94 g/m*3 4.9 C 1.6 km/h
356 16-12-2016 05:35:00 4.9 C 5.94 g/m*3 4.9 C 4.8 km/h
357 16-12-2016 05:40:00 4.9 C 5.94 g/m*3 4.9 C 0 km/h
358 16-12-2016 05:45:00 4.9 C 5.94 g/m*3 4.9 C 3.2 km/h
359 16-12-2016 05:50:00 4.9 C 5.94 g/m*3 4.9 C 4.8 km/h
360 16-12-2016 05:55:00 4.9 C 5.94 g/m*3 4.9 C 3.2 km/h
361 16-12-2016 06:00:00 4.9 C 6.01 g/m*3 4.9 C 1.6 km/h
362 16-12-2016 06:05:00 4.9 C 6.01 g/m*3 4.9 C 0 km/h
363 16-12-2016 06:10:00 4.8 C 5.9 g/m*3 3.36 C 6.4 km/h
364 16-12-2016 06:15:00 4.8 C 5.9 g/m*3 4.8 C 4.8 km/h
365 16-12-2016 06:20:00 4.8 C 5.97 g/m*3 4.8 C 3.2 km/h
366 16-12-2016 06:25:00 4.8 C 5.97 g/m*3 4.8 C 4.8 km/h
367 16-12-2016 06:30:00 4.8 C 5.97 g/m*3 4.8 C 3.2 km/h
368 16-12-2016 06:35:00 4.7 C 5.93 g/m*3 4.7 C 4.8 km/h
369 16-12-2016 06:40:00 4.7 C 5.86 g/m*3 4.7 C 3.2 km/h
370 16-12-2016 06:45:00 4.7 C 5.86 g/m*3 4.7 C 0 km/h
371 16-12-2016 06:50:00 4.7 C 5.86 g/m*3 4.7 C 1.6 km/h
372 16-12-2016 06:55:00 4.7 C 5.86 g/m*3 4.7 C 4.8 km/h
373 16-12-2016 07:00:00 4.7 C 5.93 g/m*3 4.7 C 4.8 km/h
374 16-12-2016 07:05:00 4.7 C 5.86 g/m*3 3.25 C 6.4 km/h
375 16-12-2016 07:10:00 4.7 C 5.93 g/m*3 4.7 C 0 km/h
Sensor: Nr:Datum:Temp:Abs-Feuchte:Windchill:Wind:
Aussen-T/F 376 16-12-2016 07:15:00 4.7 C 5.86 g/m*3 4.7 C 3.2 km/h
377 16-12-2016 07:20:00 4.7 C 5.86 g/m*3 4.7 C 4.8 km/h
378 16-12-2016 07:25:00 4.7 C 5.86 g/m*3 2.76 C 8.1 km/h
379 16-12-2016 07:30:00 4.7 C 5.86 g/m*3 4.7 C 0 km/h
380 16-12-2016 07:35:00 4.7 C 5.93 g/m*3 2.37 C 9.7 km/h
381 16-12-2016 07:40:00 4.6 C 5.82 g/m*3 4.6 C 4.8 km/h
382 16-12-2016 07:45:00 4.6 C 5.82 g/m*3 4.6 C 3.2 km/h
383 16-12-2016 07:50:00 4.6 C 5.82 g/m*3 4.6 C 3.2 km/h
384 16-12-2016 07:55:00 4.7 C 5.93 g/m*3 4.7 C 3.2 km/h
385 16-12-2016 08:00:00 4.7 C 5.93 g/m*3 4.7 C 1.6 km/h
386 16-12-2016 08:05:00 4.6 C 5.89 g/m*3 4.6 C 3.2 km/h
387 16-12-2016 08:10:00 4.6 C 5.89 g/m*3 4.6 C 1.6 km/h
388 16-12-2016 08:15:00 4.6 C 5.89 g/m*3 4.6 C 3.2 km/h
389 16-12-2016 08:20:00 4.7 C 5.93 g/m*3 4.7 C 1.6 km/h
390 16-12-2016 08:25:00 4.6 C 5.89 g/m*3 4.6 C 1.6 km/h
391 16-12-2016 08:30:00 4.6 C 5.89 g/m*3 4.6 C 0 km/h
392 16-12-2016 08:35:00 4.7 C 5.93 g/m*3 4.7 C 0 km/h
393 16-12-2016 08:40:00 4.6 C 5.89 g/m*3 4.6 C 0 km/h
394 16-12-2016 08:45:00 4.6 C 5.89 g/m*3 4.6 C 0 km/h
395 16-12-2016 08:50:00 4.6 C 5.89 g/m*3 4.6 C 1.6 km/h
396 16-12-2016 08:55:00 4.6 C 5.89 g/m*3 4.6 C 3.2 km/h
397 16-12-2016 09:00:00 4.6 C 5.89 g/m*3 4.6 C 1.6 km/h
398 16-12-2016 09:05:00 4.6 C 5.89 g/m*3 4.6 C 1.6 km/h
399 16-12-2016 09:10:00 4.6 C 5.89 g/m*3 4.6 C 4.8 km/h
400 16-12-2016 09:15:00 4.6 C 5.89 g/m*3 4.6 C 3.2 km/h
Sensor: Nr:Datum:Temp:Abs-Feuchte:Windchill:Wind:
Aussen-T/F 401 16-12-2016 09:20:00 4.6 C 5.89 g/m*3 4.6 C 1.6 km/h
402 16-12-2016 09:25:00 4.6 C 5.89 g/m*3 4.6 C 4.8 km/h
403 16-12-2016 09:30:00 4.6 C 5.89 g/m*3 4.6 C 3.2 km/h
404 16-12-2016 09:35:00 4.7 C 5.93 g/m*3 4.7 C 3.2 km/h
405 16-12-2016 09:40:00 4.7 C 5.93 g/m*3 4.7 C 3.2 km/h
406 16-12-2016 09:45:00 4.7 C 5.86 g/m*3 4.7 C 3.2 km/h
407 16-12-2016 09:50:00 4.7 C 5.86 g/m*3 4.7 C 1.6 km/h
408 16-12-2016 09:55:00 4.7 C 5.86 g/m*3 4.7 C 1.6 km/h
409 16-12-2016 10:00:00 4.7 C 5.86 g/m*3 2.76 C 8.1 km/h
410 16-12-2016 10:05:00 4.7 C 5.86 g/m*3 4.7 C 4.8 km/h
411 16-12-2016 10:10:00 4.7 C 5.86 g/m*3 4.7 C 0 km/h
412 16-12-2016 10:15:00 4.7 C 5.86 g/m*3 4.7 C 3.2 km/h
413 16-12-2016 10:20:00 4.7 C 5.86 g/m*3 4.7 C 4.8 km/h
414 16-12-2016 10:25:00 4.7 C 5.86 g/m*3 4.7 C 4.8 km/h
415 16-12-2016 10:30:00 4.7 C 5.86 g/m*3 2.37 C 9.7 km/h
416 16-12-2016 10:35:00 4.6 C 5.82 g/m*3 2.64 C 8.1 km/h
417 16-12-2016 10:40:00 4.6 C 5.82 g/m*3 1.61 C 12.9 km/h
418 16-12-2016 10:45:00 4.6 C 5.82 g/m*3 4.6 C 3.2 km/h
419 16-12-2016 10:50:00 4.6 C 5.82 g/m*3 4.6 C 4.8 km/h
420 16-12-2016 10:55:00 4.6 C 5.82 g/m*3 4.6 C 4.8 km/h
421 16-12-2016 11:00:00 4.6 C 5.82 g/m*3 4.6 C 3.2 km/h
422 16-12-2016 11:05:00 4.6 C 5.82 g/m*3 4.6 C 1.6 km/h
423 16-12-2016 11:10:00 4.6 C 5.76 g/m*3 4.6 C 3.2 km/h
424 16-12-2016 11:15:00 4.6 C 5.76 g/m*3 4.6 C 4.8 km/h
425 16-12-2016 11:20:00 4.6 C 5.76 g/m*3 4.6 C 3.2 km/h
Sensor: Nr:Datum:Temp:Abs-Feuchte:Windchill:Wind:
Aussen-T/F 426 16-12-2016 11:25:00 4.6 C 5.69 g/m*3 2.64 C 8.1 km/h
427 16-12-2016 11:30:00 4.6 C 5.76 g/m*3 4.6 C 4.8 km/h
428 16-12-2016 11:35:00 4.6 C 5.76 g/m*3 4.6 C 1.6 km/h
429 16-12-2016 11:40:00 4.6 C 5.76 g/m*3 4.6 C 1.6 km/h
430 16-12-2016 11:45:00 4.7 C 5.8 g/m*3 4.7 C 0 km/h
431 16-12-2016 11:50:00 4.7 C 5.8 g/m*3 4.7 C 3.2 km/h
432 16-12-2016 11:55:00 4.7 C 5.73 g/m*3 4.7 C 3.2 km/h
433 16-12-2016 12:00:00 4.7 C 5.73 g/m*3 4.7 C 4.8 km/h
434 16-12-2016 12:05:00 4.7 C 5.73 g/m*3 4.7 C 4.8 km/h
435 16-12-2016 12:10:00 4.7 C 5.8 g/m*3 4.7 C 3.2 km/h
436 16-12-2016 12:15:00 4.7 C 5.73 g/m*3 4.7 C 3.2 km/h
437 16-12-2016 12:20:00 4.8 C 5.77 g/m*3 4.8 C 0 km/h
438 16-12-2016 12:25:00 4.8 C 5.83 g/m*3 4.8 C 3.2 km/h
439 16-12-2016 12:30:00 4.8 C 5.77 g/m*3 4.8 C 4.8 km/h
440 16-12-2016 12:35:00 4.8 C 5.77 g/m*3 4.8 C 4.8 km/h
441 16-12-2016 12:40:00 4.8 C 5.77 g/m*3 4.8 C 1.6 km/h
442 16-12-2016 12:45:00 4.8 C 5.77 g/m*3 4.8 C 3.2 km/h
443 16-12-2016 12:50:00 4.8 C 5.77 g/m*3 4.8 C 4.8 km/h
444 16-12-2016 12:55:00 4.8 C 5.83 g/m*3 4.8 C 3.2 km/h
445 16-12-2016 13:00:00 4.8 C 5.77 g/m*3 2.87 C 8.1 km/h
446 16-12-2016 13:05:00 4.7 C 5.73 g/m*3 4.7 C 4.8 km/h
447 16-12-2016 13:10:00 4.7 C 5.73 g/m*3 4.7 C 4.8 km/h
448 16-12-2016 13:15:00 4.7 C 5.73 g/m*3 3.25 C 6.4 km/h
449 16-12-2016 13:20:00 4.7 C 5.8 g/m*3 4.7 C 3.2 km/h
450 16-12-2016 13:25:00 4.7 C 5.8 g/m*3 4.7 C 4.8 km/h
Sensor: Nr:Datum:Temp:Abs-Feuchte:Windchill:Wind:
Aussen-T/F 451 16-12-2016 13:30:00 4.7 C 5.73 g/m*3 4.7 C 1.6 km/h
452 16-12-2016 13:35:00 4.8 C 5.83 g/m*3 4.8 C 3.2 km/h
453 16-12-2016 13:40:00 4.8 C 5.83 g/m*3 4.8 C 3.2 km/h
454 16-12-2016 13:45:00 4.8 C 5.83 g/m*3 4.8 C 3.2 km/h
455 16-12-2016 13:50:00 4.9 C 5.81 g/m*3 4.9 C 3.2 km/h
456 16-12-2016 13:55:00 4.9 C 5.87 g/m*3 4.9 C 4.8 km/h
457 16-12-2016 14:00:00 4.9 C 5.81 g/m*3 3.48 C 6.4 km/h
458 16-12-2016 14:05:00 4.9 C 5.81 g/m*3 4.9 C 3.2 km/h
459 16-12-2016 14:10:00 4.9 C 5.81 g/m*3 4.9 C 4.8 km/h
460 16-12-2016 14:15:00 4.9 C 5.81 g/m*3 4.9 C 3.2 km/h
461 16-12-2016 14:20:00 5 C 5.91 g/m*3 5 C 1.6 km/h
462 16-12-2016 14:25:00 5 C 5.84 g/m*3 5 C 1.6 km/h
463 16-12-2016 14:30:00 5 C 5.84 g/m*3 3.11 C 8.1 km/h
464 16-12-2016 14:35:00 4.9 C 5.81 g/m*3 3.48 C 6.4 km/h
465 16-12-2016 14:40:00 4.9 C 5.81 g/m*3 4.9 C 3.2 km/h
466 16-12-2016 14:45:00 4.9 C 5.81 g/m*3 4.9 C 4.8 km/h
467 16-12-2016 14:50:00 4.9 C 5.81 g/m*3 4.9 C 3.2 km/h
468 16-12-2016 14:55:00 4.9 C 5.81 g/m*3 4.9 C 4.8 km/h
469 16-12-2016 15:00:00 4.9 C 5.81 g/m*3 4.9 C 3.2 km/h
470 16-12-2016 15:05:00 4.9 C 5.81 g/m*3 4.9 C 3.2 km/h
471 16-12-2016 15:10:00 4.9 C 5.81 g/m*3 4.9 C 0 km/h
472 16-12-2016 15:15:00 4.9 C 5.81 g/m*3 4.9 C 3.2 km/h
473 16-12-2016 15:20:00 4.9 C 5.87 g/m*3 4.9 C 4.8 km/h
474 16-12-2016 15:25:00 4.8 C 5.83 g/m*3 4.8 C 3.2 km/h
475 16-12-2016 15:30:00 4.8 C 5.83 g/m*3 4.8 C 0 km/h
Sensor: Nr:Datum:Temp:Abs-Feuchte:Windchill:Wind:
Aussen-T/F 476 16-12-2016 15:35:00 4.8 C 5.77 g/m*3 2.49 C 9.7 km/h
477 16-12-2016 15:40:00 4.7 C 5.73 g/m*3 4.7 C 1.6 km/h
478 16-12-2016 15:45:00 4.7 C 5.8 g/m*3 4.7 C 0 km/h
479 16-12-2016 15:50:00 4.7 C 5.8 g/m*3 4.7 C 0 km/h
480 16-12-2016 15:55:00 4.7 C 5.8 g/m*3 4.7 C 0 km/h
481 16-12-2016 16:00:00 4.7 C 5.8 g/m*3 4.7 C 0 km/h
482 16-12-2016 16:05:00 4.7 C 5.8 g/m*3 4.7 C 3.2 km/h
483 16-12-2016 16:10:00 4.7 C 5.8 g/m*3 4.7 C 0 km/h
484 16-12-2016 16:15:00 4.7 C 5.8 g/m*3 4.7 C 0 km/h
485 16-12-2016 16:20:00 4.6 C 5.76 g/m*3 4.6 C 0 km/h
486 16-12-2016 16:25:00 4.6 C 5.76 g/m*3 4.6 C 0 km/h
487 16-12-2016 16:30:00 4.6 C 5.76 g/m*3 4.6 C 3.2 km/h
488 16-12-2016 16:35:00 4.6 C 5.76 g/m*3 4.6 C 1.6 km/h
489 16-12-2016 16:40:00 4.6 C 5.82 g/m*3 4.6 C 0 km/h
490 16-12-2016 16:45:00 4.6 C 5.82 g/m*3 4.6 C 0 km/h
491 16-12-2016 16:50:00 4.5 C 5.72 g/m*3 4.5 C 4.8 km/h
492 16-12-2016 16:55:00 4.5 C 5.78 g/m*3 4.5 C 0 km/h
493 16-12-2016 17:00:00 4.5 C 5.78 g/m*3 4.5 C 4.8 km/h
494 16-12-2016 17:05:00 4.4 C 5.68 g/m*3 4.4 C 1.6 km/h
495 16-12-2016 17:10:00 4.4 C 5.68 g/m*3 2.9 C 6.4 km/h
496 16-12-2016 17:15:00 4.4 C 5.68 g/m*3 4.4 C 1.6 km/h
497 16-12-2016 17:20:00 4.4 C 5.75 g/m*3 4.4 C 1.6 km/h
498 16-12-2016 17:25:00 4.4 C 5.75 g/m*3 4.4 C 0 km/h
499 16-12-2016 17:30:00 4.3 C 5.71 g/m*3 4.3 C 0 km/h
500 16-12-2016 17:35:00 4.3 C 5.71 g/m*3 4.3 C 0 km/h
Sensor: Nr:Datum:Temp:Abs-Feuchte:Windchill:Wind:
Aussen-T/F 501 16-12-2016 17:40:00 4.3 C 5.71 g/m*3 4.3 C 1.6 km/h
502 16-12-2016 17:45:00 4.3 C 5.71 g/m*3 2.29 C 8.1 km/h
503 16-12-2016 17:50:00 4.3 C 5.71 g/m*3 4.3 C 4.8 km/h
504 16-12-2016 17:55:00 4.3 C 5.71 g/m*3 4.3 C 1.6 km/h
505 16-12-2016 18:00:00 4.2 C 5.67 g/m*3 4.2 C 3.2 km/h
506 16-12-2016 18:05:00 4.2 C 5.67 g/m*3 4.2 C 3.2 km/h
507 16-12-2016 18:10:00 4.2 C 5.67 g/m*3 4.2 C 0 km/h
508 16-12-2016 18:15:00 4.2 C 5.67 g/m*3 4.2 C 1.6 km/h
509 16-12-2016 18:20:00 4.2 C 5.67 g/m*3 4.2 C 1.6 km/h
510 16-12-2016 18:25:00 4.2 C 5.67 g/m*3 4.2 C 0 km/h
511 16-12-2016 18:30:00 4.2 C 5.67 g/m*3 4.2 C 3.2 km/h
512 16-12-2016 18:35:00 4.1 C 5.63 g/m*3 4.1 C 0 km/h
513 16-12-2016 18:40:00 4.1 C 5.63 g/m*3 4.1 C 1.6 km/h
514 16-12-2016 18:45:00 4.1 C 5.7 g/m*3 4.1 C 1.6 km/h
515 16-12-2016 18:50:00 4.1 C 5.7 g/m*3 4.1 C 3.2 km/h
516 16-12-2016 18:55:00 4.1 C 5.63 g/m*3 4.1 C 4.8 km/h
517 16-12-2016 19:00:00 4.1 C 5.63 g/m*3 4.1 C 4.8 km/h
518 16-12-2016 19:05:00 4.1 C 5.63 g/m*3 4.1 C 4.8 km/h
519 16-12-2016 19:10:00 4.1 C 5.63 g/m*3 2.05 C 8.1 km/h
520 16-12-2016 19:15:00 4 C 5.59 g/m*3 4 C 4.8 km/h
521 16-12-2016 19:20:00 4 C 5.59 g/m*3 4 C 4.8 km/h
522 16-12-2016 19:25:00 3.9 C 5.56 g/m*3 3.9 C 0 km/h
523 16-12-2016 19:30:00 3.9 C 5.56 g/m*3 3.9 C 4.8 km/h
524 16-12-2016 19:35:00 3.8 C 5.52 g/m*3 3.8 C 0 km/h
525 16-12-2016 19:40:00 3.8 C 5.52 g/m*3 3.8 C 1.6 km/h
Sensor: Nr:Datum:Temp:Abs-Feuchte:Windchill:Wind:
Aussen-T/F 526 16-12-2016 19:45:00 3.8 C 5.52 g/m*3 3.8 C 1.6 km/h
527 16-12-2016 19:50:00 3.7 C 5.48 g/m*3 3.7 C 4.8 km/h
528 16-12-2016 19:55:00 3.7 C 5.48 g/m*3 3.7 C 3.2 km/h
529 16-12-2016 20:00:00 3.7 C 5.48 g/m*3 3.7 C 1.6 km/h
530 16-12-2016 20:05:00 3.7 C 5.55 g/m*3 3.7 C 1.6 km/h
531 16-12-2016 20:10:00 3.6 C 5.51 g/m*3 3.6 C 0 km/h
532 16-12-2016 20:15:00 3.6 C 5.51 g/m*3 3.6 C 1.6 km/h
533 16-12-2016 20:20:00 3.6 C 5.51 g/m*3 3.6 C 3.2 km/h
534 16-12-2016 20:25:00 3.5 C 5.47 g/m*3 3.5 C 4.8 km/h
535 16-12-2016 20:30:00 3.5 C 5.47 g/m*3 3.5 C 4.8 km/h
536 16-12-2016 20:35:00 3.5 C 5.47 g/m*3 3.5 C 0 km/h
537 16-12-2016 20:40:00 3.5 C 5.47 g/m*3 3.5 C 0 km/h
538 16-12-2016 20:45:00 3.4 C 5.44 g/m*3 3.4 C 0 km/h
539 16-12-2016 20:50:00 3.4 C 5.5 g/m*3 3.4 C 0 km/h
540 16-12-2016 20:55:00 3.4 C 5.5 g/m*3 3.4 C 1.6 km/h
541 16-12-2016 21:00:00 3.4 C 5.5 g/m*3 3.4 C 1.6 km/h
542 16-12-2016 21:05:00 3.4 C 5.5 g/m*3 3.4 C 0 km/h
543 16-12-2016 21:10:00 3.4 C 5.44 g/m*3 3.4 C 3.2 km/h
544 16-12-2016 21:15:00 3.4 C 5.44 g/m*3 3.4 C 1.6 km/h
545 16-12-2016 21:20:00 3.3 C 5.46 g/m*3 3.3 C 4.8 km/h
546 16-12-2016 21:25:00 3.3 C 5.4 g/m*3 3.3 C 0 km/h
547 16-12-2016 21:30:00 3.3 C 5.4 g/m*3 3.3 C 0 km/h
548 16-12-2016 21:35:00 3.3 C 5.46 g/m*3 3.3 C 1.6 km/h
549 16-12-2016 21:40:00 3.3 C 5.46 g/m*3 3.3 C 0 km/h
550 16-12-2016 21:45:00 3.3 C 5.46 g/m*3 3.3 C 4.8 km/h
Sensor: Nr:Datum:Temp:Abs-Feuchte:Windchill:Wind:
Aussen-T/F 551 16-12-2016 21:50:00 3.3 C 5.46 g/m*3 3.3 C 3.2 km/h
552 16-12-2016 21:55:00 3.3 C 5.46 g/m*3 3.3 C 0 km/h
553 16-12-2016 22:00:00 3.3 C 5.46 g/m*3 3.3 C 0 km/h
554 16-12-2016 22:05:00 3.3 C 5.46 g/m*3 3.3 C 0 km/h
555 16-12-2016 22:10:00 3.3 C 5.46 g/m*3 3.3 C 1.6 km/h
556 16-12-2016 22:15:00 3.3 C 5.46 g/m*3 3.3 C 0 km/h
557 16-12-2016 22:20:00 3.3 C 5.46 g/m*3 3.3 C 1.6 km/h
558 16-12-2016 22:25:00 3.3 C 5.46 g/m*3 3.3 C 0 km/h
559 16-12-2016 22:30:00 3.3 C 5.46 g/m*3 3.3 C 1.6 km/h
560 16-12-2016 22:35:00 3.4 C 5.5 g/m*3 3.4 C 0 km/h
561 16-12-2016 22:40:00 3.4 C 5.5 g/m*3 3.4 C 1.6 km/h
562 16-12-2016 22:45:00 3.4 C 5.5 g/m*3 3.4 C 0 km/h
563 16-12-2016 22:50:00 3.4 C 5.5 g/m*3 3.4 C 0 km/h
564 16-12-2016 22:55:00 3.4 C 5.5 g/m*3 3.4 C 0 km/h
565 16-12-2016 23:00:00 3.4 C 5.5 g/m*3 3.4 C 0 km/h
566 16-12-2016 23:05:00 3.3 C 5.46 g/m*3 3.3 C 1.6 km/h
567 16-12-2016 23:10:00 3.3 C 5.46 g/m*3 3.3 C 1.6 km/h
568 16-12-2016 23:15:00 3.3 C 5.46 g/m*3 3.3 C 1.6 km/h
569 16-12-2016 23:20:00 3.4 C 5.5 g/m*3 3.4 C 0 km/h
570 16-12-2016 23:25:00 3.4 C 5.5 g/m*3 3.4 C 3.2 km/h
571 16-12-2016 23:30:00 3.3 C 5.46 g/m*3 3.3 C 3.2 km/h
572 16-12-2016 23:35:00 3.3 C 5.46 g/m*3 3.3 C 1.6 km/h
573 16-12-2016 23:40:00 3.3 C 5.46 g/m*3 3.3 C 3.2 km/h
574 16-12-2016 23:45:00 3.3 C 5.46 g/m*3 3.3 C 1.6 km/h
575 16-12-2016 23:50:00 3.3 C 5.46 g/m*3 3.3 C 1.6 km/h
Sensor: Nr:Datum:Temp:Abs-Feuchte:Windchill:Wind:
Aussen-T/F 576 16-12-2016 23:55:00 3.3 C 5.4 g/m*3 3.3 C 1.6 km/h
577 17-12-2016 00:00:00 3.2 C 5.36 g/m*3 3.2 C 0 km/h
578 17-12-2016 00:05:00 3.2 C 5.42 g/m*3 3.2 C 0 km/h
579 17-12-2016 00:10:00 3.2 C 5.42 g/m*3 3.2 C 0 km/h
580 17-12-2016 00:15:00 3.2 C 5.42 g/m*3 3.2 C 1.6 km/h
581 17-12-2016 00:20:00 3.2 C 5.42 g/m*3 3.2 C 1.6 km/h
582 17-12-2016 00:25:00 3.2 C 5.42 g/m*3 3.2 C 0 km/h
583 17-12-2016 00:30:00 3.2 C 5.42 g/m*3 3.2 C 0 km/h
584 17-12-2016 00:35:00 3.2 C 5.42 g/m*3 3.2 C 0 km/h
585 17-12-2016 00:40:00 3.2 C 5.42 g/m*3 3.2 C 3.2 km/h
586 17-12-2016 00:45:00 3.1 C 5.39 g/m*3 3.1 C 3.2 km/h
587 17-12-2016 00:50:00 3.1 C 5.39 g/m*3 3.1 C 0 km/h
588 17-12-2016 00:55:00 3.1 C 5.39 g/m*3 3.1 C 1.6 km/h
589 17-12-2016 01:00:00 3.1 C 5.39 g/m*3 3.1 C 0 km/h
590 17-12-2016 01:05:00 3.1 C 5.39 g/m*3 3.1 C 0 km/h
591 17-12-2016 01:10:00 3.1 C 5.39 g/m*3 3.1 C 0 km/h
592 17-12-2016 01:15:00 3.1 C 5.39 g/m*3 3.1 C 0 km/h
593 17-12-2016 01:20:00 3.1 C 5.39 g/m*3 3.1 C 3.2 km/h
594 17-12-2016 01:25:00 3.1 C 5.45 g/m*3 3.1 C 0 km/h
595 17-12-2016 01:30:00 3.1 C 5.45 g/m*3 3.1 C 0 km/h
596 17-12-2016 01:35:00 3.1 C 5.39 g/m*3 3.1 C 0 km/h
597 17-12-2016 01:40:00 3 C 5.41 g/m*3 3 C 0 km/h
598 17-12-2016 01:45:00 3 C 5.41 g/m*3 3 C 0 km/h
599 17-12-2016 01:50:00 3 C 5.41 g/m*3 3 C 0 km/h
600 17-12-2016 01:55:00 3 C 5.41 g/m*3 3 C 0 km/h
Sensor: Nr:Datum:Temp:Abs-Feuchte:Windchill:Wind:
Aussen-T/F 601 17-12-2016 02:00:00 3.1 C 5.45 g/m*3 3.1 C 0 km/h
602 17-12-2016 02:05:00 3.1 C 5.45 g/m*3 3.1 C 0 km/h
603 17-12-2016 02:10:00 3.1 C 5.45 g/m*3 3.1 C 0 km/h
604 17-12-2016 02:15:00 3.1 C 5.45 g/m*3 3.1 C 0 km/h
605 17-12-2016 02:20:00 3.1 C 5.45 g/m*3 3.1 C 1.6 km/h
606 17-12-2016 02:25:00 3.1 C 5.45 g/m*3 3.1 C 0 km/h
607 17-12-2016 02:30:00 3.1 C 5.45 g/m*3 3.1 C 0 km/h
608 17-12-2016 02:35:00 3.1 C 5.45 g/m*3 3.1 C 0 km/h
609 17-12-2016 02:40:00 3.1 C 5.45 g/m*3 3.1 C 0 km/h
610 17-12-2016 02:45:00 3.1 C 5.45 g/m*3 3.1 C 1.6 km/h
611 17-12-2016 02:50:00 3.1 C 5.45 g/m*3 3.1 C 0 km/h
612 17-12-2016 02:55:00 3.1 C 5.45 g/m*3 3.1 C 1.6 km/h
613 17-12-2016 03:00:00 3.1 C 5.45 g/m*3 3.1 C 1.6 km/h
614 17-12-2016 03:05:00 3.1 C 5.45 g/m*3 3.1 C 1.6 km/h
615 17-12-2016 03:10:00 3.1 C 5.45 g/m*3 3.1 C 0 km/h
616 17-12-2016 03:15:00 3.1 C 5.45 g/m*3 3.1 C 0 km/h
617 17-12-2016 03:20:00 3.1 C 5.45 g/m*3 3.1 C 0 km/h
618 17-12-2016 03:25:00 3.1 C 5.45 g/m*3 3.1 C 0 km/h
619 17-12-2016 03:30:00 3.1 C 5.45 g/m*3 3.1 C 0 km/h
620 17-12-2016 03:35:00 3.1 C 5.45 g/m*3 3.1 C 0 km/h
621 17-12-2016 03:40:00 3.1 C 5.45 g/m*3 3.1 C 0 km/h
622 17-12-2016 03:45:00 3 C 5.41 g/m*3 3 C 0 km/h
623 17-12-2016 03:50:00 3 C 5.41 g/m*3 3 C 0 km/h
624 17-12-2016 03:55:00 2.9 C 5.37 g/m*3 2.9 C 0 km/h
625 17-12-2016 04:00:00 2.8 C 5.34 g/m*3 2.8 C 0 km/h
Sensor: Nr:Datum:Temp:Abs-Feuchte:Windchill:Wind:
Aussen-T/F 626 17-12-2016 04:05:00 2.7 C 5.3 g/m*3 2.7 C 0 km/h
627 17-12-2016 04:10:00 2.7 C 5.36 g/m*3 2.7 C 0 km/h
628 17-12-2016 04:15:00 2.7 C 5.36 g/m*3 2.7 C 0 km/h
629 17-12-2016 04:20:00 2.7 C 5.36 g/m*3 2.7 C 0 km/h
630 17-12-2016 04:25:00 2.7 C 5.36 g/m*3 2.7 C 0 km/h
631 17-12-2016 04:30:00 2.8 C 5.4 g/m*3 2.8 C 0 km/h
632 17-12-2016 04:35:00 2.8 C 5.4 g/m*3 2.8 C 0 km/h
633 17-12-2016 04:40:00 2.8 C 5.4 g/m*3 2.8 C 1.6 km/h
634 17-12-2016 04:45:00 2.8 C 5.4 g/m*3 2.8 C 0 km/h
635 17-12-2016 04:50:00 2.7 C 5.36 g/m*3 2.7 C 0 km/h
636 17-12-2016 04:55:00 2.7 C 5.36 g/m*3 2.7 C 0 km/h
637 17-12-2016 05:00:00 2.7 C 5.36 g/m*3 2.7 C 0 km/h
638 17-12-2016 05:05:00 2.7 C 5.42 g/m*3 2.7 C 0 km/h
639 17-12-2016 05:10:00 2.7 C 5.42 g/m*3 2.7 C 0 km/h
640 17-12-2016 05:15:00 2.7 C 5.42 g/m*3 2.7 C 0 km/h
641 17-12-2016 05:20:00 2.7 C 5.42 g/m*3 2.7 C 0 km/h
642 17-12-2016 05:25:00 2.7 C 5.42 g/m*3 2.7 C 0 km/h
643 17-12-2016 05:30:00 2.7 C 5.42 g/m*3 2.7 C 1.6 km/h
644 17-12-2016 05:35:00 2.8 C 5.46 g/m*3 2.8 C 4.8 km/h
645 17-12-2016 05:40:00 2.8 C 5.46 g/m*3 2.8 C 4.8 km/h
646 17-12-2016 05:45:00 2.8 C 5.46 g/m*3 2.8 C 0 km/h
647 17-12-2016 05:50:00 2.8 C 5.46 g/m*3 2.8 C 0 km/h
648 17-12-2016 05:55:00 2.8 C 5.46 g/m*3 2.8 C 0 km/h
649 17-12-2016 06:00:00 2.8 C 5.46 g/m*3 2.8 C 0 km/h
650 17-12-2016 06:05:00 2.8 C 5.46 g/m*3 2.8 C 0 km/h
Sensor: Nr:Datum:Temp:Abs-Feuchte:Windchill:Wind:
Aussen-T/F 651 17-12-2016 06:10:00 2.8 C 5.46 g/m*3 2.8 C 0 km/h
652 17-12-2016 06:15:00 2.9 C 5.55 g/m*3 2.9 C 0 km/h
653 17-12-2016 06:20:00 2.9 C 5.55 g/m*3 2.9 C 0 km/h
654 17-12-2016 06:25:00 2.9 C 5.55 g/m*3 2.9 C 0 km/h
655 17-12-2016 06:30:00 2.8 C 5.51 g/m*3 2.8 C 0 km/h
656 17-12-2016 06:35:00 2.7 C 5.42 g/m*3 2.7 C 0 km/h
657 17-12-2016 06:40:00 2.7 C 5.42 g/m*3 2.7 C 0 km/h
658 17-12-2016 06:45:00 2.6 C 5.38 g/m*3 2.6 C 0 km/h
659 17-12-2016 06:50:00 2.6 C 5.38 g/m*3 2.6 C 0 km/h
660 17-12-2016 06:55:00 2.5 C 5.35 g/m*3 2.5 C 0 km/h
661 17-12-2016 07:00:00 2.4 C 5.31 g/m*3 2.4 C 0 km/h
662 17-12-2016 07:05:00 2.3 C 5.33 g/m*3 2.3 C 1.6 km/h
663 17-12-2016 07:10:00 2.3 C 5.33 g/m*3 2.3 C 0 km/h
664 17-12-2016 07:15:00 2.3 C 5.33 g/m*3 2.3 C 0 km/h
665 17-12-2016 07:20:00 2.3 C 5.33 g/m*3 2.3 C 0 km/h
666 17-12-2016 07:25:00 2.3 C 5.33 g/m*3 2.3 C 0 km/h
667 17-12-2016 07:30:00 2.3 C 5.33 g/m*3 2.3 C 0 km/h
668 17-12-2016 07:35:00 2.4 C 5.37 g/m*3 2.4 C 0 km/h
669 17-12-2016 07:40:00 2.4 C 5.37 g/m*3 2.4 C 0 km/h
670 17-12-2016 07:45:00 2.4 C 5.37 g/m*3 2.4 C 0 km/h
671 17-12-2016 07:50:00 2.5 C 5.4 g/m*3 2.5 C 0 km/h
672 17-12-2016 07:55:00 2.6 C 5.5 g/m*3 2.6 C 0 km/h
673 17-12-2016 08:00:00 2.6 C 5.5 g/m*3 2.6 C 0 km/h
674 17-12-2016 08:05:00 2.6 C 5.5 g/m*3 2.6 C 0 km/h
675 17-12-2016 08:10:00 2.6 C 5.5 g/m*3 2.6 C 0 km/h
Sensor: Nr:Datum:Temp:Abs-Feuchte:Windchill:Wind:
Aussen-T/F 676 17-12-2016 08:15:00 2.7 C 5.54 g/m*3 2.7 C 0 km/h
677 17-12-2016 08:20:00 2.7 C 5.54 g/m*3 2.7 C 0 km/h
678 17-12-2016 08:25:00 2.7 C 5.48 g/m*3 2.7 C 0 km/h
679 17-12-2016 08:30:00 2.7 C 5.48 g/m*3 2.7 C 0 km/h
680 17-12-2016 08:35:00 2.7 C 5.48 g/m*3 2.7 C 0 km/h
681 17-12-2016 08:40:00 2.7 C 5.48 g/m*3 2.7 C 0 km/h
682 17-12-2016 08:45:00 2.7 C 5.48 g/m*3 2.7 C 0 km/h
683 17-12-2016 08:50:00 2.8 C 5.51 g/m*3 2.8 C 0 km/h
684 17-12-2016 08:55:00 2.8 C 5.57 g/m*3 2.8 C 0 km/h
685 17-12-2016 09:00:00 2.9 C 5.61 g/m*3 2.9 C 0 km/h
686 17-12-2016 09:05:00 2.9 C 5.55 g/m*3 2.9 C 0 km/h
687 17-12-2016 09:10:00 2.9 C 5.55 g/m*3 2.9 C 0 km/h
688 17-12-2016 09:15:00 2.9 C 5.55 g/m*3 2.9 C 0 km/h
689 17-12-2016 09:20:00 2.9 C 5.55 g/m*3 2.9 C 0 km/h
690 17-12-2016 09:25:00 3 C 5.59 g/m*3 3 C 0 km/h
691 17-12-2016 09:30:00 3.1 C 5.63 g/m*3 3.1 C 0 km/h
692 17-12-2016 09:35:00 3.1 C 5.63 g/m*3 3.1 C 1.6 km/h
693 17-12-2016 09:40:00 3.2 C 5.66 g/m*3 3.2 C 0 km/h
694 17-12-2016 09:45:00 3.2 C 5.66 g/m*3 3.2 C 0 km/h
695 17-12-2016 09:50:00 3.2 C 5.66 g/m*3 3.2 C 0 km/h
696 17-12-2016 09:55:00 3.3 C 5.7 g/m*3 3.3 C 0 km/h
697 17-12-2016 10:00:00 3.3 C 5.64 g/m*3 3.3 C 0 km/h
698 17-12-2016 10:05:00 3.4 C 5.68 g/m*3 3.4 C 1.6 km/h
699 17-12-2016 10:10:00 3.5 C 5.72 g/m*3 3.5 C 3.2 km/h
700 17-12-2016 10:15:00 3.6 C 5.76 g/m*3 3.6 C 3.2 km/h
Sensor: Nr:Datum:Temp:Abs-Feuchte:Windchill:Wind:
Aussen-T/F 701 17-12-2016 10:20:00 3.7 C 5.8 g/m*3 3.7 C 1.6 km/h
702 17-12-2016 10:25:00 3.8 C 5.83 g/m*3 3.8 C 0 km/h
703 17-12-2016 10:30:00 3.8 C 5.77 g/m*3 3.8 C 0 km/h
704 17-12-2016 10:35:00 3.8 C 5.77 g/m*3 3.8 C 1.6 km/h
705 17-12-2016 10:40:00 3.9 C 5.81 g/m*3 3.9 C 1.6 km/h
706 17-12-2016 10:45:00 4.1 C 5.89 g/m*3 4.1 C 1.6 km/h
707 17-12-2016 10:50:00 4.1 C 5.82 g/m*3 4.1 C 1.6 km/h
708 17-12-2016 10:55:00 4.2 C 5.86 g/m*3 4.2 C 3.2 km/h
709 17-12-2016 11:00:00 4.3 C 5.84 g/m*3 4.3 C 3.2 km/h
710 17-12-2016 11:05:00 4.3 C 5.84 g/m*3 4.3 C 0 km/h
711 17-12-2016 11:10:00 4.4 C 5.88 g/m*3 4.4 C 3.2 km/h
712 17-12-2016 11:15:00 4.5 C 5.85 g/m*3 4.5 C 4.8 km/h
713 17-12-2016 11:20:00 4.5 C 5.85 g/m*3 4.5 C 1.6 km/h
714 17-12-2016 11:25:00 4.6 C 5.89 g/m*3 4.6 C 1.6 km/h
715 17-12-2016 11:30:00 4.6 C 5.96 g/m*3 4.6 C 0 km/h
716 17-12-2016 11:35:00 4.7 C 6 g/m*3 4.7 C 0 km/h
717 17-12-2016 11:40:00 4.7 C 5.93 g/m*3 4.7 C 0 km/h
718 17-12-2016 11:45:00 4.7 C 5.93 g/m*3 4.7 C 0 km/h
719 17-12-2016 11:50:00 4.7 C 5.93 g/m*3 4.7 C 1.6 km/h
720 17-12-2016 11:55:00 4.7 C 5.93 g/m*3 4.7 C 1.6 km/h
721 17-12-2016 12:00:00 4.7 C 5.86 g/m*3 4.7 C 4.8 km/h
722 17-12-2016 12:05:00 4.7 C 5.86 g/m*3 4.7 C 3.2 km/h
723 17-12-2016 12:10:00 4.8 C 5.97 g/m*3 4.8 C 0 km/h
724 17-12-2016 12:15:00 4.8 C 5.9 g/m*3 4.8 C 1.6 km/h
725 17-12-2016 12:20:00 4.8 C 5.9 g/m*3 4.8 C 1.6 km/h
Sensor: Nr:Datum:Temp:Abs-Feuchte:Windchill:Wind:
Aussen-T/F 726 17-12-2016 12:25:00 4.8 C 5.9 g/m*3 4.8 C 1.6 km/h
727 17-12-2016 12:30:00 4.8 C 5.9 g/m*3 4.8 C 1.6 km/h
728 17-12-2016 12:35:00 4.9 C 5.94 g/m*3 4.9 C 0 km/h
729 17-12-2016 12:40:00 4.9 C 5.94 g/m*3 4.9 C 0 km/h
730 17-12-2016 12:45:00 4.9 C 5.94 g/m*3 4.9 C 1.6 km/h
731 17-12-2016 12:50:00 5.1 C 6.02 g/m*3 5.1 C 3.2 km/h
732 17-12-2016 12:55:00 5.1 C 5.95 g/m*3 5.1 C 3.2 km/h
733 17-12-2016 13:00:00 5.1 C 5.95 g/m*3 5.1 C 1.6 km/h
734 17-12-2016 13:05:00 5.1 C 5.95 g/m*3 5.1 C 1.6 km/h
735 17-12-2016 13:10:00 5.1 C 5.95 g/m*3 5.1 C 0 km/h
736 17-12-2016 13:15:00 5.1 C 5.95 g/m*3 5.1 C 0 km/h
737 17-12-2016 13:20:00 5.1 C 6.02 g/m*3 5.1 C 1.6 km/h
738 17-12-2016 13:25:00 5.1 C 5.95 g/m*3 5.1 C 0 km/h
739 17-12-2016 13:30:00 5.2 C 5.99 g/m*3 5.2 C 0 km/h
740 17-12-2016 13:35:00 5.2 C 5.99 g/m*3 5.2 C 0 km/h
741 17-12-2016 13:40:00 5.2 C 5.99 g/m*3 5.2 C 0 km/h
742 17-12-2016 13:45:00 5.2 C 5.99 g/m*3 5.2 C 3.2 km/h
743 17-12-2016 13:50:00 5.1 C 5.95 g/m*3 5.1 C 3.2 km/h
744 17-12-2016 13:55:00 5.1 C 5.95 g/m*3 5.1 C 0 km/h
745 17-12-2016 14:00:00 5.1 C 5.95 g/m*3 5.1 C 0 km/h
746 17-12-2016 14:05:00 5.1 C 5.95 g/m*3 5.1 C 0 km/h
747 17-12-2016 14:10:00 5 C 5.91 g/m*3 5 C 0 km/h
748 17-12-2016 14:15:00 5 C 5.91 g/m*3 5 C 0 km/h
749 17-12-2016 14:20:00 5 C 5.98 g/m*3 5 C 0 km/h
750 17-12-2016 14:25:00 5 C 5.98 g/m*3 5 C 0 km/h
Sensor: Nr:Datum:Temp:Abs-Feuchte:Windchill:Wind:
Aussen-T/F 751 17-12-2016 14:30:00 5.1 C 6.02 g/m*3 5.1 C 0 km/h
752 17-12-2016 14:35:00 5.1 C 6.02 g/m*3 5.1 C 0 km/h
753 17-12-2016 14:40:00 5.1 C 6.09 g/m*3 5.1 C 0 km/h
754 17-12-2016 14:45:00 5.1 C 6.09 g/m*3 5.1 C 0 km/h
755 17-12-2016 14:50:00 5.1 C 6.09 g/m*3 5.1 C 0 km/h
756 17-12-2016 14:55:00 5.1 C 6.09 g/m*3 5.1 C 0 km/h
757 17-12-2016 15:00:00 5.1 C 6.09 g/m*3 5.1 C 0 km/h
758 17-12-2016 15:05:00 5.1 C 6.09 g/m*3 5.1 C 0 km/h
759 17-12-2016 15:10:00 5.1 C 6.09 g/m*3 5.1 C 0 km/h
760 17-12-2016 15:15:00 5.1 C 6.09 g/m*3 5.1 C 0 km/h
761 17-12-2016 15:20:00 5 C 6.05 g/m*3 5 C 0 km/h
762 17-12-2016 15:25:00 4.9 C 6.01 g/m*3 4.9 C 0 km/h
763 17-12-2016 15:30:00 4.8 C 5.97 g/m*3 4.8 C 0 km/h
764 17-12-2016 15:35:00 4.7 C 5.93 g/m*3 4.7 C 0 km/h
765 17-12-2016 15:40:00 4.7 C 6 g/m*3 4.7 C 1.6 km/h
766 17-12-2016 15:45:00 4.5 C 5.92 g/m*3 4.5 C 1.6 km/h
767 17-12-2016 15:50:00 4.4 C 5.88 g/m*3 4.4 C 3.2 km/h
768 17-12-2016 15:55:00 4.3 C 5.84 g/m*3 4.3 C 1.6 km/h
769 17-12-2016 16:00:00 4.2 C 5.8 g/m*3 4.2 C 1.6 km/h
770 17-12-2016 16:05:00 4.1 C 5.82 g/m*3 4.1 C 3.2 km/h
771 17-12-2016 16:10:00 4.1 C 5.82 g/m*3 4.1 C 1.6 km/h
772 17-12-2016 16:15:00 4 C 5.79 g/m*3 4 C 0 km/h
773 17-12-2016 16:20:00 4 C 5.85 g/m*3 4 C 1.6 km/h
774 17-12-2016 16:25:00 4.1 C 5.89 g/m*3 4.1 C 0 km/h
775 17-12-2016 16:30:00 4.1 C 5.89 g/m*3 4.1 C 0 km/h
Sensor: Nr:Datum:Temp:Abs-Feuchte:Windchill:Wind:
Aussen-T/F 776 17-12-2016 16:35:00 4.1 C 5.89 g/m*3 4.1 C 0 km/h
777 17-12-2016 16:40:00 4.2 C 5.99 g/m*3 4.2 C 0 km/h
778 17-12-2016 16:45:00 4.2 C 5.99 g/m*3 4.2 C 0 km/h
779 17-12-2016 16:50:00 4.3 C 6.03 g/m*3 4.3 C 0 km/h
780 17-12-2016 16:55:00 4.3 C 6.03 g/m*3 4.3 C 0 km/h
781 17-12-2016 17:00:00 4.4 C 6.07 g/m*3 4.4 C 0 km/h
782 17-12-2016 17:05:00 4.4 C 6.07 g/m*3 4.4 C 0 km/h
783 17-12-2016 17:10:00 4.4 C 6.07 g/m*3 4.4 C 0 km/h
784 17-12-2016 17:15:00 4.5 C 6.11 g/m*3 4.5 C 0 km/h
785 17-12-2016 17:20:00 4.4 C 6.07 g/m*3 4.4 C 0 km/h
786 17-12-2016 17:25:00 4.4 C 6.07 g/m*3 4.4 C 0 km/h
787 17-12-2016 17:30:00 4.4 C 6.07 g/m*3 4.4 C 0 km/h
788 17-12-2016 17:35:00 4.4 C 6.07 g/m*3 4.4 C 0 km/h
789 17-12-2016 17:40:00 4.4 C 6.07 g/m*3 4.4 C 0 km/h
790 17-12-2016 17:45:00 4.3 C 6.03 g/m*3 4.3 C 0 km/h
791 17-12-2016 17:50:00 4.3 C 6.03 g/m*3 4.3 C 0 km/h
792 17-12-2016 17:55:00 4.2 C 5.99 g/m*3 4.2 C 0 km/h
793 17-12-2016 18:00:00 4.1 C 5.95 g/m*3 4.1 C 0 km/h
794 17-12-2016 18:05:00 4.1 C 5.95 g/m*3 4.1 C 0 km/h
795 17-12-2016 18:10:00 4.1 C 5.95 g/m*3 4.1 C 0 km/h
796 17-12-2016 18:15:00 4.1 C 5.95 g/m*3 4.1 C 0 km/h
797 17-12-2016 18:20:00 4.2 C 5.99 g/m*3 4.2 C 0 km/h
798 17-12-2016 18:25:00 4.2 C 5.99 g/m*3 4.2 C 0 km/h
799 17-12-2016 18:30:00 4.2 C 6.06 g/m*3 4.2 C 0 km/h
800 17-12-2016 18:35:00 4.3 C 6.1 g/m*3 4.3 C 0 km/h
Sensor: Nr:Datum:Temp:Abs-Feuchte:Windchill:Wind:
Aussen-T/F 801 17-12-2016 18:40:00 4.3 C 6.1 g/m*3 4.3 C 0 km/h
802 17-12-2016 18:45:00 4.3 C 6.1 g/m*3 4.3 C 0 km/h
803 17-12-2016 18:50:00 4.3 C 6.1 g/m*3 4.3 C 0 km/h
804 17-12-2016 18:55:00 4.4 C 6.14 g/m*3 4.4 C 0 km/h
805 17-12-2016 19:00:00 4.4 C 6.07 g/m*3 4.4 C 0 km/h
806 17-12-2016 19:05:00 4.4 C 6.07 g/m*3 4.4 C 0 km/h
807 17-12-2016 19:10:00 4.4 C 6.14 g/m*3 4.4 C 0 km/h
808 17-12-2016 19:15:00 4.4 C 6.14 g/m*3 4.4 C 0 km/h
809 17-12-2016 19:20:00 4.4 C 6.07 g/m*3 4.4 C 1.6 km/h
810 17-12-2016 19:25:00 4.4 C 6.07 g/m*3 4.4 C 0 km/h
811 17-12-2016 19:30:00 4.4 C 6.07 g/m*3 4.4 C 0 km/h
812 17-12-2016 19:35:00 4.5 C 6.11 g/m*3 4.5 C 0 km/h
813 17-12-2016 19:40:00 4.5 C 6.11 g/m*3 4.5 C 0 km/h
814 17-12-2016 19:45:00 4.5 C 6.11 g/m*3 4.5 C 0 km/h
815 17-12-2016 19:50:00 4.5 C 6.11 g/m*3 4.5 C 0 km/h
816 17-12-2016 19:55:00 4.5 C 6.11 g/m*3 4.5 C 0 km/h
817 17-12-2016 20:00:00 4.6 C 6.15 g/m*3 4.6 C 0 km/h
818 17-12-2016 20:05:00 4.6 C 6.15 g/m*3 4.6 C 0 km/h
819 17-12-2016 20:10:00 4.6 C 6.15 g/m*3 4.6 C 0 km/h
820 17-12-2016 20:15:00 4.6 C 6.15 g/m*3 4.6 C 0 km/h
821 17-12-2016 20:20:00 4.6 C 6.15 g/m*3 4.6 C 0 km/h
822 17-12-2016 20:25:00 4.6 C 6.15 g/m*3 4.6 C 0 km/h
823 17-12-2016 20:30:00 4.6 C 6.15 g/m*3 4.6 C 3.2 km/h
824 17-12-2016 20:35:00 4.6 C 6.15 g/m*3 4.6 C 0 km/h
825 17-12-2016 20:40:00 4.6 C 6.15 g/m*3 4.6 C 0 km/h
Sensor: Nr:Datum:Temp:Abs-Feuchte:Windchill:Wind:
Aussen-T/F 826 17-12-2016 20:45:00 4.6 C 6.15 g/m*3 4.6 C 0 km/h
827 17-12-2016 20:50:00 4.6 C 6.15 g/m*3 4.6 C 0 km/h
828 17-12-2016 20:55:00 4.7 C 6.19 g/m*3 4.7 C 0 km/h
829 17-12-2016 21:00:00 4.7 C 6.19 g/m*3 4.7 C 0 km/h
830 17-12-2016 21:05:00 4.7 C 6.19 g/m*3 4.7 C 0 km/h
831 17-12-2016 21:10:00 4.7 C 6.19 g/m*3 4.7 C 0 km/h
832 17-12-2016 21:15:00 4.7 C 6.19 g/m*3 4.7 C 0 km/h
833 17-12-2016 21:20:00 4.7 C 6.19 g/m*3 4.7 C 0 km/h
834 17-12-2016 21:25:00 4.7 C 6.19 g/m*3 4.7 C 0 km/h
835 17-12-2016 21:30:00 4.7 C 6.19 g/m*3 4.7 C 0 km/h
836 17-12-2016 21:35:00 4.7 C 6.19 g/m*3 4.7 C 1.6 km/h
837 17-12-2016 21:40:00 4.7 C 6.19 g/m*3 4.7 C 0 km/h
838 17-12-2016 21:45:00 4.7 C 6.19 g/m*3 4.7 C 0 km/h
839 17-12-2016 21:50:00 4.7 C 6.19 g/m*3 4.7 C 0 km/h
840 17-12-2016 21:55:00 4.7 C 6.19 g/m*3 4.7 C 0 km/h
841 17-12-2016 22:00:00 4.7 C 6.19 g/m*3 4.7 C 1.6 km/h
842 17-12-2016 22:05:00 4.7 C 6.19 g/m*3 4.7 C 3.2 km/h
843 17-12-2016 22:10:00 4.7 C 6.19 g/m*3 4.7 C 3.2 km/h
844 17-12-2016 22:15:00 4.7 C 6.19 g/m*3 4.7 C 1.6 km/h
845 17-12-2016 22:20:00 4.7 C 6.19 g/m*3 4.7 C 3.2 km/h
846 17-12-2016 22:25:00 4.7 C 6.19 g/m*3 4.7 C 1.6 km/h
847 17-12-2016 22:30:00 4.7 C 6.19 g/m*3 4.7 C 1.6 km/h
848 17-12-2016 22:35:00 4.7 C 6.19 g/m*3 4.7 C 1.6 km/h
849 17-12-2016 22:40:00 4.7 C 6.19 g/m*3 4.7 C 1.6 km/h
850 17-12-2016 22:45:00 4.7 C 6.19 g/m*3 4.7 C 0 km/h
Sensor: Nr:Datum:Temp:Abs-Feuchte:Windchill:Wind:
Aussen-T/F 851 17-12-2016 22:50:00 4.7 C 6.19 g/m*3 4.7 C 0 km/h
852 17-12-2016 22:55:00 4.7 C 6.19 g/m*3 4.7 C 0 km/h
853 17-12-2016 23:00:00 4.7 C 6.19 g/m*3 4.7 C 0 km/h
854 17-12-2016 23:05:00 4.7 C 6.19 g/m*3 4.7 C 0 km/h
855 17-12-2016 23:10:00 4.7 C 6.19 g/m*3 4.7 C 0 km/h
856 17-12-2016 23:15:00 4.7 C 6.19 g/m*3 4.7 C 1.6 km/h
857 17-12-2016 23:20:00 4.7 C 6.19 g/m*3 4.7 C 1.6 km/h
858 17-12-2016 23:25:00 4.7 C 6.19 g/m*3 4.7 C 0 km/h
859 17-12-2016 23:30:00 4.7 C 6.26 g/m*3 4.7 C 0 km/h
860 17-12-2016 23:35:00 4.7 C 6.26 g/m*3 4.7 C 1.6 km/h
861 17-12-2016 23:40:00 4.7 C 6.26 g/m*3 4.7 C 1.6 km/h
862 17-12-2016 23:45:00 4.7 C 6.26 g/m*3 4.7 C 0 km/h
863 17-12-2016 23:50:00 4.7 C 6.26 g/m*3 4.7 C 1.6 km/h
864 17-12-2016 23:55:00 4.7 C 6.26 g/m*3 4.7 C 1.6 km/h
865 18-12-2016 00:00:00 4.7 C 6.26 g/m*3 4.7 C 3.2 km/h
866 18-12-2016 00:05:00 4.7 C 6.26 g/m*3 4.7 C 3.2 km/h
867 18-12-2016 00:10:00 4.7 C 6.26 g/m*3 4.7 C 3.2 km/h
868 18-12-2016 00:15:00 4.6 C 6.22 g/m*3 4.6 C 1.6 km/h
869 18-12-2016 00:20:00 4.6 C 6.22 g/m*3 4.6 C 1.6 km/h
870 18-12-2016 00:25:00 4.6 C 6.22 g/m*3 4.6 C 1.6 km/h
871 18-12-2016 00:30:00 4.6 C 6.29 g/m*3 4.6 C 3.2 km/h
872 18-12-2016 00:35:00 4.6 C 6.29 g/m*3 4.6 C 3.2 km/h
873 18-12-2016 00:40:00 4.6 C 6.29 g/m*3 4.6 C 1.6 km/h
874 18-12-2016 00:45:00 4.6 C 6.29 g/m*3 4.6 C 4.8 km/h
875 18-12-2016 00:50:00 4.6 C 6.29 g/m*3 4.6 C 3.2 km/h
Sensor: Nr:Datum:Temp:Abs-Feuchte:Windchill:Wind:
Aussen-T/F 876 18-12-2016 00:55:00 4.6 C 6.29 g/m*3 4.6 C 0 km/h
877 18-12-2016 01:00:00 4.6 C 6.29 g/m*3 4.6 C 0 km/h
878 18-12-2016 01:05:00 4.6 C 6.29 g/m*3 4.6 C 0 km/h
879 18-12-2016 01:10:00 4.6 C 6.29 g/m*3 4.6 C 0 km/h
880 18-12-2016 01:15:00 4.6 C 6.29 g/m*3 4.6 C 0 km/h
881 18-12-2016 01:20:00 4.6 C 6.29 g/m*3 4.6 C 0 km/h
882 18-12-2016 01:25:00 4.6 C 6.29 g/m*3 4.6 C 0 km/h
883 18-12-2016 01:30:00 4.6 C 6.29 g/m*3 4.6 C 0 km/h
884 18-12-2016 01:35:00 4.6 C 6.29 g/m*3 4.6 C 0 km/h
885 18-12-2016 01:40:00 4.6 C 6.29 g/m*3 4.6 C 1.6 km/h
886 18-12-2016 01:45:00 4.6 C 6.29 g/m*3 4.6 C 0 km/h
887 18-12-2016 01:50:00 4.6 C 6.29 g/m*3 4.6 C 0 km/h
888 18-12-2016 01:55:00 4.6 C 6.29 g/m*3 4.6 C 0 km/h
889 18-12-2016 02:00:00 4.6 C 6.29 g/m*3 4.6 C 0 km/h
890 18-12-2016 02:05:00 4.6 C 6.29 g/m*3 4.6 C 0 km/h
891 18-12-2016 02:10:00 4.6 C 6.29 g/m*3 4.6 C 0 km/h
892 18-12-2016 02:15:00 4.6 C 6.29 g/m*3 4.6 C 0 km/h
893 18-12-2016 02:20:00 4.6 C 6.35 g/m*3 4.6 C 0 km/h
894 18-12-2016 02:25:00 4.6 C 6.35 g/m*3 4.6 C 0 km/h
895 18-12-2016 02:30:00 4.6 C 6.35 g/m*3 4.6 C 0 km/h
896 18-12-2016 02:35:00 4.6 C 6.35 g/m*3 4.6 C 0 km/h
897 18-12-2016 02:40:00 4.6 C 6.35 g/m*3 4.6 C 0 km/h
898 18-12-2016 02:45:00 4.6 C 6.35 g/m*3 4.6 C 3.2 km/h
899 18-12-2016 02:50:00 4.6 C 6.35 g/m*3 4.6 C 0 km/h
900 18-12-2016 02:55:00 4.7 C 6.39 g/m*3 4.7 C 1.6 km/h
Sensor: Nr:Datum:Temp:Abs-Feuchte:Windchill:Wind:
Aussen-T/F 901 18-12-2016 03:00:00 4.6 C 6.35 g/m*3 4.6 C 1.6 km/h
902 18-12-2016 03:05:00 4.7 C 6.39 g/m*3 4.7 C 0 km/h
903 18-12-2016 03:10:00 4.7 C 6.39 g/m*3 4.7 C 0 km/h
904 18-12-2016 03:15:00 4.7 C 6.39 g/m*3 4.7 C 0 km/h
905 18-12-2016 03:20:00 4.7 C 6.39 g/m*3 4.7 C 0 km/h
906 18-12-2016 03:25:00 4.7 C 6.39 g/m*3 4.7 C 0 km/h
907 18-12-2016 03:30:00 4.7 C 6.39 g/m*3 4.7 C 0 km/h
908 18-12-2016 03:35:00 4.7 C 6.39 g/m*3 4.7 C 0 km/h
909 18-12-2016 03:40:00 4.7 C 6.39 g/m*3 4.7 C 0 km/h
910 18-12-2016 03:45:00 4.7 C 6.39 g/m*3 4.7 C 0 km/h
911 18-12-2016 03:50:00 4.7 C 6.39 g/m*3 4.7 C 0 km/h
912 18-12-2016 03:55:00 4.7 C 6.39 g/m*3 4.7 C 3.2 km/h
913 18-12-2016 04:00:00 4.7 C 6.39 g/m*3 4.7 C 0 km/h
914 18-12-2016 04:05:00 4.7 C 6.39 g/m*3 4.7 C 1.6 km/h
915 18-12-2016 04:10:00 4.7 C 6.39 g/m*3 4.7 C 1.6 km/h
916 18-12-2016 04:15:00 4.7 C 6.39 g/m*3 4.7 C 0 km/h
917 18-12-2016 04:20:00 4.7 C 6.39 g/m*3 4.7 C 3.2 km/h
918 18-12-2016 04:25:00 4.7 C 6.39 g/m*3 4.7 C 0 km/h
919 18-12-2016 04:30:00 4.7 C 6.39 g/m*3 4.7 C 1.6 km/h
920 18-12-2016 04:35:00 4.7 C 6.39 g/m*3 4.7 C 0 km/h
921 18-12-2016 04:40:00 4.7 C 6.39 g/m*3 4.7 C 1.6 km/h
922 18-12-2016 04:45:00 4.7 C 6.39 g/m*3 4.7 C 0 km/h
923 18-12-2016 04:50:00 4.7 C 6.39 g/m*3 4.7 C 0 km/h
924 18-12-2016 04:55:00 4.7 C 6.39 g/m*3 4.7 C 1.6 km/h
925 18-12-2016 05:00:00 4.7 C 6.39 g/m*3 4.7 C 0 km/h
Sensor: Nr:Datum:Temp:Abs-Feuchte:Windchill:Wind:
Aussen-T/F 926 18-12-2016 05:05:00 4.7 C 6.39 g/m*3 4.7 C 0 km/h
927 18-12-2016 05:10:00 4.7 C 6.39 g/m*3 4.7 C 0 km/h
928 18-12-2016 05:15:00 4.7 C 6.39 g/m*3 4.7 C 0 km/h
929 18-12-2016 05:20:00 4.7 C 6.39 g/m*3 4.7 C 0 km/h
930 18-12-2016 05:25:00 4.7 C 6.39 g/m*3 4.7 C 0 km/h
931 18-12-2016 05:30:00 4.7 C 6.39 g/m*3 4.7 C 0 km/h
932 18-12-2016 05:35:00 4.7 C 6.39 g/m*3 4.7 C 0 km/h
933 18-12-2016 05:40:00 4.7 C 6.39 g/m*3 4.7 C 1.6 km/h
934 18-12-2016 05:45:00 4.7 C 6.39 g/m*3 4.7 C 0 km/h
935 18-12-2016 05:50:00 4.7 C 6.39 g/m*3 4.7 C 0 km/h
936 18-12-2016 05:55:00 4.7 C 6.39 g/m*3 4.7 C 1.6 km/h
937 18-12-2016 06:00:00 4.7 C 6.39 g/m*3 4.7 C 0 km/h
938 18-12-2016 06:05:00 4.7 C 6.39 g/m*3 4.7 C 0 km/h
939 18-12-2016 06:10:00 4.8 C 6.44 g/m*3 4.8 C 0 km/h
940 18-12-2016 06:15:00 4.8 C 6.44 g/m*3 4.8 C 0 km/h
941 18-12-2016 06:20:00 4.8 C 6.44 g/m*3 4.8 C 0 km/h
942 18-12-2016 06:25:00 4.8 C 6.5 g/m*3 4.8 C 0 km/h
943 18-12-2016 06:30:00 4.8 C 6.44 g/m*3 4.8 C 0 km/h
944 18-12-2016 06:35:00 4.9 C 6.48 g/m*3 4.9 C 0 km/h
945 18-12-2016 06:40:00 4.8 C 6.44 g/m*3 4.8 C 0 km/h
946 18-12-2016 06:45:00 4.8 C 6.44 g/m*3 4.8 C 0 km/h
947 18-12-2016 06:50:00 4.8 C 6.44 g/m*3 4.8 C 0 km/h
948 18-12-2016 06:55:00 4.8 C 6.44 g/m*3 4.8 C 0 km/h
949 18-12-2016 07:00:00 4.8 C 6.44 g/m*3 4.8 C 0 km/h
950 18-12-2016 07:05:00 4.8 C 6.44 g/m*3 4.8 C 0 km/h
Sensor: Nr:Datum:Temp:Abs-Feuchte:Windchill:Wind:
Aussen-T/F 951 18-12-2016 07:10:00 4.8 C 6.44 g/m*3 4.8 C 0 km/h
952 18-12-2016 07:15:00 4.8 C 6.44 g/m*3 4.8 C 0 km/h
953 18-12-2016 07:20:00 4.8 C 6.44 g/m*3 4.8 C 0 km/h
954 18-12-2016 07:25:00 4.8 C 6.44 g/m*3 4.8 C 0 km/h
955 18-12-2016 07:30:00 4.8 C 6.44 g/m*3 4.8 C 0 km/h
956 18-12-2016 07:35:00 4.8 C 6.44 g/m*3 4.8 C 0 km/h
957 18-12-2016 07:40:00 4.8 C 6.44 g/m*3 4.8 C 0 km/h
958 18-12-2016 07:45:00 4.8 C 6.44 g/m*3 4.8 C 0 km/h
959 18-12-2016 07:50:00 4.9 C 6.48 g/m*3 4.9 C 0 km/h
960 18-12-2016 07:55:00 4.9 C 6.48 g/m*3 4.9 C 0 km/h
961 18-12-2016 08:00:00 4.9 C 6.48 g/m*3 4.9 C 0 km/h
962 18-12-2016 08:05:00 4.9 C 6.48 g/m*3 4.9 C 0 km/h
963 18-12-2016 08:10:00 4.9 C 6.48 g/m*3 4.9 C 0 km/h
964 18-12-2016 08:15:00 4.9 C 6.48 g/m*3 4.9 C 0 km/h
965 18-12-2016 08:20:00 4.9 C 6.48 g/m*3 4.9 C 0 km/h
966 18-12-2016 08:25:00 4.9 C 6.48 g/m*3 4.9 C 0 km/h
967 18-12-2016 08:30:00 4.9 C 6.48 g/m*3 3.48 C 6.4 km/h
968 18-12-2016 08:35:00 4.9 C 6.48 g/m*3 3.48 C 6.4 km/h
969 18-12-2016 08:40:00 4.9 C 6.48 g/m*3 4.9 C 4.8 km/h
970 18-12-2016 08:45:00 4.9 C 6.48 g/m*3 4.9 C 4.8 km/h
971 18-12-2016 08:50:00 5 C 6.52 g/m*3 5 C 1.6 km/h
972 18-12-2016 08:55:00 5 C 6.52 g/m*3 5 C 1.6 km/h
973 18-12-2016 09:00:00 5 C 6.59 g/m*3 5 C 0 km/h
974 18-12-2016 09:05:00 5.1 C 6.63 g/m*3 5.1 C 0 km/h
975 18-12-2016 09:10:00 5.1 C 6.63 g/m*3 5.1 C 0 km/h
Sensor: Nr:Datum:Temp:Abs-Feuchte:Windchill:Wind:
Aussen-T/F 976 18-12-2016 09:15:00 5.1 C 6.63 g/m*3 5.1 C 0 km/h
977 18-12-2016 09:20:00 5.1 C 6.63 g/m*3 5.1 C 4.8 km/h
978 18-12-2016 09:25:00 5.1 C 6.63 g/m*3 5.1 C 4.8 km/h
979 18-12-2016 09:30:00 5.2 C 6.68 g/m*3 5.2 C 1.6 km/h
980 18-12-2016 09:35:00 5.2 C 6.68 g/m*3 5.2 C 1.6 km/h
981 18-12-2016 09:40:00 5.2 C 6.61 g/m*3 5.2 C 1.6 km/h
982 18-12-2016 09:45:00 5.2 C 6.61 g/m*3 5.2 C 1.6 km/h
983 18-12-2016 09:50:00 5.2 C 6.61 g/m*3 5.2 C 3.2 km/h
984 18-12-2016 09:55:00 5.2 C 6.61 g/m*3 5.2 C 1.6 km/h
985 18-12-2016 10:00:00 5.3 C 6.65 g/m*3 5.3 C 0 km/h
986 18-12-2016 10:05:00 5.3 C 6.65 g/m*3 3.94 C 6.4 km/h
987 18-12-2016 10:10:00 5.3 C 6.65 g/m*3 5.3 C 3.2 km/h
988 18-12-2016 10:15:00 5.3 C 6.65 g/m*3 5.3 C 3.2 km/h
989 18-12-2016 10:20:00 5.3 C 6.65 g/m*3 3.46 C 8.1 km/h
990 18-12-2016 10:25:00 5.4 C 6.7 g/m*3 5.4 C 4.8 km/h
991 18-12-2016 10:30:00 5.4 C 6.7 g/m*3 5.4 C 4.8 km/h
992 18-12-2016 10:35:00 5.5 C 6.74 g/m*3 5.5 C 4.8 km/h
993 18-12-2016 10:40:00 5.6 C 6.72 g/m*3 5.6 C 3.2 km/h
994 18-12-2016 10:45:00 5.6 C 6.72 g/m*3 4.29 C 6.4 km/h
995 18-12-2016 10:50:00 5.7 C 6.76 g/m*3 5.7 C 3.2 km/h
996 18-12-2016 10:55:00 5.7 C 6.76 g/m*3 5.7 C 1.6 km/h
997 18-12-2016 11:00:00 5.7 C 6.76 g/m*3 5.7 C 4.8 km/h
998 18-12-2016 11:05:00 5.7 C 6.69 g/m*3 5.7 C 4.8 km/h
999 18-12-2016 11:10:00 5.8 C 6.73 g/m*3 5.8 C 4.8 km/h
1000 18-12-2016 11:15:00 5.8 C 6.73 g/m*3 5.8 C 3.2 km/h
Sensor: Nr:Datum:Temp:Abs-Feuchte:Windchill:Wind:
Aussen-T/F 1001 18-12-2016 11:20:00 5.8 C 6.73 g/m*3 5.8 C 1.6 km/h
1002 18-12-2016 11:25:00 5.8 C 6.73 g/m*3 5.8 C 1.6 km/h
1003 18-12-2016 11:30:00 5.8 C 6.73 g/m*3 5.8 C 1.6 km/h
1004 18-12-2016 11:35:00 5.8 C 6.73 g/m*3 5.8 C 0 km/h
1005 18-12-2016 11:40:00 5.9 C 6.78 g/m*3 5.9 C 0 km/h
1006 18-12-2016 11:45:00 5.9 C 6.71 g/m*3 5.9 C 0 km/h
1007 18-12-2016 11:50:00 5.9 C 6.71 g/m*3 5.9 C 3.2 km/h
1008 18-12-2016 11:55:00 5.9 C 6.71 g/m*3 5.9 C 3.2 km/h
1009 18-12-2016 12:00:00 5.9 C 6.71 g/m*3 5.9 C 1.6 km/h
1010 18-12-2016 12:05:00 5.9 C 6.71 g/m*3 5.9 C 0 km/h
1011 18-12-2016 12:10:00 5.9 C 6.71 g/m*3 5.9 C 1.6 km/h
1012 18-12-2016 12:15:00 5.9 C 6.71 g/m*3 5.9 C 0 km/h
1013 18-12-2016 12:20:00 5.9 C 6.71 g/m*3 5.9 C 0 km/h
1014 18-12-2016 12:25:00 6 C 6.75 g/m*3 6 C 1.6 km/h
1015 18-12-2016 12:30:00 6 C 6.75 g/m*3 6 C 3.2 km/h
1016 18-12-2016 12:35:00 6.1 C 6.79 g/m*3 6.1 C 3.2 km/h
1017 18-12-2016 12:40:00 6.1 C 6.79 g/m*3 6.1 C 4.8 km/h
1018 18-12-2016 12:45:00 6.1 C 6.79 g/m*3 6.1 C 0 km/h
1019 18-12-2016 12:50:00 6.2 C 6.84 g/m*3 6.2 C 0 km/h
1020 18-12-2016 12:55:00 6.2 C 6.84 g/m*3 6.2 C 3.2 km/h
1021 18-12-2016 13:00:00 6.2 C 6.84 g/m*3 6.2 C 3.2 km/h
1022 18-12-2016 13:05:00 6.2 C 6.84 g/m*3 6.2 C 1.6 km/h
1023 18-12-2016 13:10:00 6.2 C 6.84 g/m*3 6.2 C 3.2 km/h
1024 18-12-2016 13:15:00 6.2 C 6.84 g/m*3 6.2 C 1.6 km/h
1025 18-12-2016 13:20:00 6.3 C 6.88 g/m*3 6.3 C 0 km/h
Sensor: Nr:Datum:Temp:Abs-Feuchte:Windchill:Wind:
Aussen-T/F 1026 18-12-2016 13:25:00 6.4 C 6.93 g/m*3 6.4 C 1.6 km/h
1027 18-12-2016 13:30:00 6.4 C 6.93 g/m*3 6.4 C 0 km/h
1028 18-12-2016 13:35:00 6.4 C 6.93 g/m*3 6.4 C 0 km/h
1029 18-12-2016 13:40:00 6.6 C 6.95 g/m*3 6.6 C 3.2 km/h
1030 18-12-2016 13:45:00 6.7 C 6.99 g/m*3 6.7 C 0 km/h
1031 18-12-2016 13:50:00 6.7 C 6.99 g/m*3 6.7 C 1.6 km/h
1032 18-12-2016 13:55:00 6.8 C 7.04 g/m*3 6.8 C 3.2 km/h
1033 18-12-2016 14:00:00 6.8 C 7.04 g/m*3 6.8 C 3.2 km/h
1034 18-12-2016 14:05:00 6.8 C 7.04 g/m*3 6.8 C 3.2 km/h
1035 18-12-2016 14:10:00 6.8 C 7.04 g/m*3 6.8 C 1.6 km/h
1036 18-12-2016 14:15:00 6.8 C 7.04 g/m*3 6.8 C 3.2 km/h
1037 18-12-2016 14:20:00 6.8 C 6.96 g/m*3 6.8 C 1.6 km/h
1038 18-12-2016 14:25:00 6.8 C 6.96 g/m*3 6.8 C 0 km/h
1039 18-12-2016 14:30:00 6.8 C 6.96 g/m*3 6.8 C 0 km/h
1040 18-12-2016 14:35:00 6.8 C 6.96 g/m*3 6.8 C 0 km/h
1041 18-12-2016 14:40:00 6.8 C 6.96 g/m*3 6.8 C 0 km/h
1042 18-12-2016 14:45:00 6.9 C 7.01 g/m*3 6.9 C 0 km/h
1043 18-12-2016 14:50:00 6.9 C 7.01 g/m*3 6.9 C 0 km/h
1044 18-12-2016 14:55:00 6.9 C 7.01 g/m*3 6.9 C 0 km/h
1045 18-12-2016 15:00:00 6.9 C 7.01 g/m*3 6.9 C 0 km/h
1046 18-12-2016 15:05:00 7 C 7.05 g/m*3 7 C 0 km/h
1047 18-12-2016 15:10:00 7.1 C 7.1 g/m*3 7.1 C 0 km/h
1048 18-12-2016 15:15:00 7.1 C 7.1 g/m*3 7.1 C 1.6 km/h
1049 18-12-2016 15:20:00 7.1 C 7.02 g/m*3 7.1 C 0 km/h
1050 18-12-2016 15:25:00 7 C 6.97 g/m*3 7 C 3.2 km/h
Sensor: Nr:Datum:Temp:Abs-Feuchte:Windchill:Wind:
Aussen-T/F 1051 18-12-2016 15:30:00 6.9 C 6.93 g/m*3 6.9 C 4.8 km/h
1052 18-12-2016 15:35:00 6.9 C 6.85 g/m*3 6.9 C 1.6 km/h
1053 18-12-2016 15:40:00 6.9 C 6.85 g/m*3 6.9 C 3.2 km/h
1054 18-12-2016 15:45:00 6.9 C 6.85 g/m*3 6.9 C 3.2 km/h
1055 18-12-2016 15:50:00 6.9 C 6.85 g/m*3 6.9 C 0 km/h
1056 18-12-2016 15:55:00 6.9 C 6.93 g/m*3 6.9 C 0 km/h
1057 18-12-2016 16:00:00 6.8 C 6.88 g/m*3 6.8 C 0 km/h
1058 18-12-2016 16:05:00 6.8 C 6.88 g/m*3 6.8 C 0 km/h
1059 18-12-2016 16:10:00 6.8 C 6.88 g/m*3 6.8 C 0 km/h
1060 18-12-2016 16:15:00 6.7 C 6.84 g/m*3 6.7 C 0 km/h
1061 18-12-2016 16:20:00 6.7 C 6.84 g/m*3 6.7 C 0 km/h
1062 18-12-2016 16:25:00 6.6 C 6.87 g/m*3 6.6 C 0 km/h
1063 18-12-2016 16:30:00 6.5 C 6.82 g/m*3 6.5 C 0 km/h
1064 18-12-2016 16:35:00 6.4 C 6.78 g/m*3 6.4 C 1.6 km/h
1065 18-12-2016 16:40:00 6.3 C 6.74 g/m*3 6.3 C 0 km/h
1066 18-12-2016 16:45:00 6.3 C 6.74 g/m*3 6.3 C 0 km/h
1067 18-12-2016 16:50:00 6.3 C 6.74 g/m*3 6.3 C 0 km/h
1068 18-12-2016 16:55:00 6.2 C 6.77 g/m*3 6.2 C 0 km/h
1069 18-12-2016 17:00:00 6.1 C 6.72 g/m*3 6.1 C 0 km/h
1070 18-12-2016 17:05:00 6 C 6.6 g/m*3 6 C 0 km/h
1071 18-12-2016 17:10:00 5.9 C 6.56 g/m*3 5.9 C 0 km/h
1072 18-12-2016 17:15:00 5.8 C 6.59 g/m*3 5.8 C 1.6 km/h
1073 18-12-2016 17:20:00 5.8 C 6.59 g/m*3 5.8 C 1.6 km/h
1074 18-12-2016 17:25:00 5.7 C 6.55 g/m*3 5.7 C 1.6 km/h
1075 18-12-2016 17:30:00 5.7 C 6.55 g/m*3 5.7 C 3.2 km/h
Sensor: Nr:Datum:Temp:Abs-Feuchte:Windchill:Wind:
Aussen-T/F 1076 18-12-2016 17:35:00 5.6 C 6.5 g/m*3 5.6 C 1.6 km/h
1077 18-12-2016 17:40:00 5.5 C 6.46 g/m*3 5.5 C 0 km/h
1078 18-12-2016 17:45:00 5.4 C 6.42 g/m*3 5.4 C 0 km/h
1079 18-12-2016 17:50:00 5.4 C 6.49 g/m*3 5.4 C 0 km/h
1080 18-12-2016 17:55:00 5.3 C 6.45 g/m*3 5.3 C 0 km/h
1081 18-12-2016 18:00:00 5.3 C 6.45 g/m*3 5.3 C 0 km/h
1082 18-12-2016 18:05:00 5.3 C 6.45 g/m*3 5.3 C 0 km/h
1083 18-12-2016 18:10:00 5.2 C 6.4 g/m*3 5.2 C 0 km/h
1084 18-12-2016 18:15:00 5.2 C 6.4 g/m*3 5.2 C 0 km/h
1085 18-12-2016 18:20:00 5.2 C 6.4 g/m*3 5.2 C 0 km/h
1086 18-12-2016 18:25:00 5.1 C 6.36 g/m*3 5.1 C 0 km/h
1087 18-12-2016 18:30:00 5.1 C 6.36 g/m*3 5.1 C 0 km/h
1088 18-12-2016 18:35:00 4.9 C 6.28 g/m*3 4.9 C 3.2 km/h
1089 18-12-2016 18:40:00 4.9 C 6.35 g/m*3 4.9 C 1.6 km/h
1090 18-12-2016 18:45:00 4.9 C 6.35 g/m*3 4.9 C 0 km/h
1091 18-12-2016 18:50:00 4.9 C 6.35 g/m*3 4.9 C 0 km/h
1092 18-12-2016 18:55:00 4.9 C 6.35 g/m*3 4.9 C 0 km/h
1093 18-12-2016 19:00:00 5 C 6.39 g/m*3 5 C 0 km/h
1094 18-12-2016 19:05:00 5.1 C 6.43 g/m*3 5.1 C 0 km/h
1095 18-12-2016 19:10:00 5.1 C 6.43 g/m*3 5.1 C 0 km/h
1096 18-12-2016 19:15:00 5.1 C 6.43 g/m*3 5.1 C 0 km/h
1097 18-12-2016 19:20:00 5.1 C 6.43 g/m*3 5.1 C 0 km/h
1098 18-12-2016 19:25:00 5.2 C 6.54 g/m*3 5.2 C 0 km/h
1099 18-12-2016 19:30:00 5.2 C 6.54 g/m*3 5.2 C 0 km/h
1100 18-12-2016 19:35:00 5.2 C 6.54 g/m*3 5.2 C 0 km/h
Sensor: Nr:Datum:Temp:Abs-Feuchte:Windchill:Wind:
Aussen-T/F 1101 18-12-2016 19:40:00 5.2 C 6.54 g/m*3 5.2 C 0 km/h
1102 18-12-2016 19:45:00 5.2 C 6.54 g/m*3 5.2 C 0 km/h
1103 18-12-2016 19:50:00 5.2 C 6.54 g/m*3 5.2 C 0 km/h
1104 18-12-2016 19:55:00 5.1 C 6.5 g/m*3 5.1 C 0 km/h
1105 18-12-2016 20:00:00 5.1 C 6.5 g/m*3 5.1 C 0 km/h
1106 18-12-2016 20:05:00 5.1 C 6.5 g/m*3 5.1 C 0 km/h
1107 18-12-2016 20:10:00 5.1 C 6.5 g/m*3 5.1 C 0 km/h
1108 18-12-2016 20:15:00 5.1 C 6.5 g/m*3 5.1 C 0 km/h
1109 18-12-2016 20:20:00 5.1 C 6.5 g/m*3 5.1 C 0 km/h
1110 18-12-2016 20:25:00 5.1 C 6.5 g/m*3 5.1 C 0 km/h
1111 18-12-2016 20:30:00 5.1 C 6.5 g/m*3 5.1 C 0 km/h
1112 18-12-2016 20:35:00 5.1 C 6.5 g/m*3 5.1 C 0 km/h
1113 18-12-2016 20:40:00 5.1 C 6.5 g/m*3 5.1 C 0 km/h
1114 18-12-2016 20:45:00 5.1 C 6.5 g/m*3 5.1 C 0 km/h
1115 18-12-2016 20:50:00 5.1 C 6.5 g/m*3 5.1 C 0 km/h
1116 18-12-2016 20:55:00 5.1 C 6.5 g/m*3 5.1 C 0 km/h
1117 18-12-2016 21:00:00 5.1 C 6.5 g/m*3 5.1 C 0 km/h
1118 18-12-2016 21:05:00 5.1 C 6.5 g/m*3 5.1 C 0 km/h
1119 18-12-2016 21:10:00 5.1 C 6.5 g/m*3 5.1 C 0 km/h
1120 18-12-2016 21:15:00 5.1 C 6.5 g/m*3 5.1 C 0 km/h
1121 18-12-2016 21:20:00 5.1 C 6.5 g/m*3 5.1 C 0 km/h
1122 18-12-2016 21:25:00 5 C 6.46 g/m*3 5 C 0 km/h
1123 18-12-2016 21:30:00 5 C 6.46 g/m*3 5 C 0 km/h
1124 18-12-2016 21:35:00 5 C 6.46 g/m*3 5 C 0 km/h
1125 18-12-2016 21:40:00 5 C 6.46 g/m*3 5 C 0 km/h
Sensor: Nr:Datum:Temp:Abs-Feuchte:Windchill:Wind:
Aussen-T/F 1126 18-12-2016 21:45:00 5 C 6.46 g/m*3 5 C 0 km/h
1127 18-12-2016 21:50:00 5 C 6.46 g/m*3 5 C 0 km/h
1128 18-12-2016 21:55:00 5 C 6.46 g/m*3 5 C 0 km/h
1129 18-12-2016 22:00:00 4.9 C 6.41 g/m*3 4.9 C 0 km/h
1130 18-12-2016 22:05:00 4.9 C 6.41 g/m*3 4.9 C 0 km/h
1131 18-12-2016 22:10:00 4.9 C 6.41 g/m*3 4.9 C 0 km/h
1132 18-12-2016 22:15:00 5 C 6.46 g/m*3 5 C 0 km/h
1133 18-12-2016 22:20:00 4.9 C 6.41 g/m*3 4.9 C 0 km/h
1134 18-12-2016 22:25:00 4.9 C 6.41 g/m*3 4.9 C 0 km/h
1135 18-12-2016 22:30:00 4.9 C 6.41 g/m*3 4.9 C 0 km/h
1136 18-12-2016 22:35:00 4.9 C 6.41 g/m*3 4.9 C 0 km/h
1137 18-12-2016 22:40:00 4.8 C 6.37 g/m*3 4.8 C 0 km/h
1138 18-12-2016 22:45:00 4.8 C 6.37 g/m*3 4.8 C 0 km/h
1139 18-12-2016 22:50:00 4.8 C 6.37 g/m*3 4.8 C 0 km/h
1140 18-12-2016 22:55:00 4.8 C 6.37 g/m*3 4.8 C 0 km/h
1141 18-12-2016 23:00:00 4.8 C 6.37 g/m*3 4.8 C 0 km/h
1142 18-12-2016 23:05:00 4.8 C 6.37 g/m*3 4.8 C 0 km/h
1143 18-12-2016 23:10:00 4.8 C 6.37 g/m*3 4.8 C 0 km/h
1144 18-12-2016 23:15:00 4.8 C 6.37 g/m*3 4.8 C 0 km/h
1145 18-12-2016 23:20:00 4.8 C 6.37 g/m*3 4.8 C 0 km/h
1146 18-12-2016 23:25:00 4.8 C 6.37 g/m*3 4.8 C 0 km/h
1147 18-12-2016 23:30:00 4.8 C 6.37 g/m*3 4.8 C 0 km/h
1148 18-12-2016 23:35:00 4.8 C 6.37 g/m*3 4.8 C 0 km/h
1149 18-12-2016 23:40:00 4.8 C 6.37 g/m*3 4.8 C 0 km/h
1150 18-12-2016 23:45:00 4.8 C 6.37 g/m*3 4.8 C 0 km/h
Sensor: Nr:Datum:Temp:Abs-Feuchte:Windchill:Wind:
Aussen-T/F 1151 18-12-2016 23:50:00 4.8 C 6.37 g/m*3 4.8 C 0 km/h
1152 18-12-2016 23:55:00 4.8 C 6.37 g/m*3 4.8 C 0 km/h
1153 19-12-2016 00:00:00 4.8 C 6.37 g/m*3 4.8 C 0 km/h
1154 19-12-2016 00:05:00 4.8 C 6.37 g/m*3 4.8 C 0 km/h
1155 19-12-2016 00:10:00 4.8 C 6.37 g/m*3 4.8 C 0 km/h
1156 19-12-2016 00:15:00 4.7 C 6.33 g/m*3 4.7 C 0 km/h
1157 19-12-2016 00:20:00 4.7 C 6.33 g/m*3 4.7 C 0 km/h
1158 19-12-2016 00:25:00 4.7 C 6.33 g/m*3 4.7 C 0 km/h
1159 19-12-2016 00:30:00 4.7 C 6.33 g/m*3 4.7 C 0 km/h
1160 19-12-2016 00:35:00 4.7 C 6.33 g/m*3 4.7 C 0 km/h
1161 19-12-2016 00:40:00 4.7 C 6.33 g/m*3 4.7 C 0 km/h
1162 19-12-2016 00:45:00 4.7 C 6.33 g/m*3 4.7 C 0 km/h
1163 19-12-2016 00:50:00 4.7 C 6.33 g/m*3 4.7 C 0 km/h
1164 19-12-2016 00:55:00 4.7 C 6.33 g/m*3 4.7 C 0 km/h
1165 19-12-2016 01:00:00 4.7 C 6.33 g/m*3 4.7 C 0 km/h
1166 19-12-2016 01:05:00 4.7 C 6.33 g/m*3 4.7 C 0 km/h
1167 19-12-2016 01:10:00 4.6 C 6.29 g/m*3 4.6 C 0 km/h
1168 19-12-2016 01:15:00 4.6 C 6.29 g/m*3 4.6 C 0 km/h
1169 19-12-2016 01:20:00 4.6 C 6.29 g/m*3 4.6 C 0 km/h
1170 19-12-2016 01:25:00 4.5 C 6.31 g/m*3 4.5 C 0 km/h
1171 19-12-2016 01:30:00 4.4 C 6.2 g/m*3 4.4 C 0 km/h
1172 19-12-2016 01:35:00 4.3 C 6.16 g/m*3 4.3 C 0 km/h
1173 19-12-2016 01:40:00 4.1 C 6.08 g/m*3 4.1 C 0 km/h
1174 19-12-2016 01:45:00 3.8 C 5.96 g/m*3 3.8 C 0 km/h
1175 19-12-2016 01:50:00 3.6 C 5.88 g/m*3 3.6 C 1.6 km/h
Sensor: Nr:Datum:Temp:Abs-Feuchte:Windchill:Wind:
Aussen-T/F 1176 19-12-2016 01:55:00 3.5 C 5.84 g/m*3 3.5 C 1.6 km/h
1177 19-12-2016 02:00:00 3.6 C 5.88 g/m*3 3.6 C 0 km/h
1178 19-12-2016 02:05:00 3.6 C 5.88 g/m*3 3.6 C 0 km/h
1179 19-12-2016 02:10:00 3.6 C 5.94 g/m*3 3.6 C 0 km/h
1180 19-12-2016 02:15:00 3.6 C 5.94 g/m*3 3.6 C 0 km/h
1181 19-12-2016 02:20:00 3.5 C 5.9 g/m*3 3.5 C 0 km/h
1182 19-12-2016 02:25:00 3.5 C 5.9 g/m*3 3.5 C 0 km/h
1183 19-12-2016 02:30:00 3.5 C 5.9 g/m*3 3.5 C 0 km/h
1184 19-12-2016 02:35:00 3.6 C 5.94 g/m*3 3.6 C 0 km/h
1185 19-12-2016 02:40:00 3.6 C 5.94 g/m*3 3.6 C 0 km/h
1186 19-12-2016 02:45:00 3.6 C 5.94 g/m*3 3.6 C 0 km/h
1187 19-12-2016 02:50:00 3.6 C 5.94 g/m*3 3.6 C 0 km/h
1188 19-12-2016 02:55:00 3.7 C 5.98 g/m*3 3.7 C 0 km/h
1189 19-12-2016 03:00:00 3.7 C 5.98 g/m*3 3.7 C 0 km/h
1190 19-12-2016 03:05:00 3.7 C 5.98 g/m*3 3.7 C 0 km/h
1191 19-12-2016 03:10:00 3.7 C 5.98 g/m*3 3.7 C 0 km/h
1192 19-12-2016 03:15:00 3.8 C 6.02 g/m*3 3.8 C 0 km/h
1193 19-12-2016 03:20:00 3.8 C 6.02 g/m*3 3.8 C 0 km/h
1194 19-12-2016 03:25:00 3.9 C 6.06 g/m*3 3.9 C 0 km/h
1195 19-12-2016 03:30:00 4 C 6.1 g/m*3 4 C 0 km/h
1196 19-12-2016 03:35:00 4.1 C 6.14 g/m*3 4.1 C 0 km/h
1197 19-12-2016 03:40:00 4.1 C 6.21 g/m*3 4.1 C 0 km/h
1198 19-12-2016 03:45:00 4.1 C 6.14 g/m*3 4.1 C 0 km/h
1199 19-12-2016 03:50:00 4.1 C 6.14 g/m*3 4.1 C 0 km/h
1200 19-12-2016 03:55:00 4 C 6.1 g/m*3 4 C 0 km/h
Sensor: Nr:Datum:Temp:Abs-Feuchte:Windchill:Wind:
Aussen-T/F 1201 19-12-2016 04:00:00 4 C 6.1 g/m*3 4 C 0 km/h
1202 19-12-2016 04:05:00 4 C 6.1 g/m*3 4 C 0 km/h
1203 19-12-2016 04:10:00 4 C 6.1 g/m*3 4 C 0 km/h
1204 19-12-2016 04:15:00 3.9 C 6.06 g/m*3 3.9 C 0 km/h
1205 19-12-2016 04:20:00 3.9 C 6.06 g/m*3 3.9 C 0 km/h
1206 19-12-2016 04:25:00 3.9 C 6.06 g/m*3 3.9 C 0 km/h
1207 19-12-2016 04:30:00 3.8 C 6.02 g/m*3 3.8 C 0 km/h
1208 19-12-2016 04:35:00 3.7 C 5.98 g/m*3 3.7 C 0 km/h
1209 19-12-2016 04:40:00 3.6 C 5.94 g/m*3 3.6 C 0 km/h
1210 19-12-2016 04:45:00 3.6 C 5.94 g/m*3 3.6 C 0 km/h
1211 19-12-2016 04:50:00 3.6 C 5.94 g/m*3 3.6 C 0 km/h
1212 19-12-2016 04:55:00 3.6 C 5.94 g/m*3 3.6 C 0 km/h
1213 19-12-2016 05:00:00 3.5 C 5.9 g/m*3 3.5 C 0 km/h
1214 19-12-2016 05:05:00 3.6 C 5.94 g/m*3 3.6 C 0 km/h
1215 19-12-2016 05:10:00 3.6 C 5.94 g/m*3 3.6 C 0 km/h
1216 19-12-2016 05:15:00 3.6 C 5.94 g/m*3 3.6 C 0 km/h
1217 19-12-2016 05:20:00 3.7 C 5.98 g/m*3 3.7 C 0 km/h
1218 19-12-2016 05:25:00 3.7 C 5.98 g/m*3 3.7 C 0 km/h
1219 19-12-2016 05:30:00 3.7 C 6.04 g/m*3 3.7 C 0 km/h
1220 19-12-2016 05:35:00 3.7 C 6.04 g/m*3 3.7 C 0 km/h
1221 19-12-2016 05:40:00 3.8 C 6.09 g/m*3 3.8 C 0 km/h
1222 19-12-2016 05:45:00 3.8 C 6.09 g/m*3 3.8 C 0 km/h
1223 19-12-2016 05:50:00 3.9 C 6.13 g/m*3 3.9 C 0 km/h
1224 19-12-2016 05:55:00 3.9 C 6.13 g/m*3 3.9 C 0 km/h
1225 19-12-2016 06:00:00 3.9 C 6.13 g/m*3 3.9 C 0 km/h
Sensor: Nr:Datum:Temp:Abs-Feuchte:Windchill:Wind:
Aussen-T/F 1226 19-12-2016 06:05:00 3.9 C 6.13 g/m*3 3.9 C 0 km/h
1227 19-12-2016 06:10:00 3.9 C 6.13 g/m*3 3.9 C 0 km/h
1228 19-12-2016 06:15:00 3.9 C 6.13 g/m*3 3.9 C 0 km/h
1229 19-12-2016 06:20:00 4 C 6.17 g/m*3 4 C 0 km/h
1230 19-12-2016 06:25:00 4.1 C 6.21 g/m*3 4.1 C 0 km/h
1231 19-12-2016 06:30:00 4.1 C 6.21 g/m*3 4.1 C 0 km/h
1232 19-12-2016 06:35:00 4.1 C 6.21 g/m*3 4.1 C 0 km/h
1233 19-12-2016 06:40:00 4.1 C 6.21 g/m*3 4.1 C 0 km/h
1234 19-12-2016 06:45:00 4.1 C 6.21 g/m*3 4.1 C 0 km/h
1235 19-12-2016 06:50:00 4.1 C 6.21 g/m*3 4.1 C 0 km/h
1236 19-12-2016 06:55:00 4.1 C 6.21 g/m*3 4.1 C 0 km/h
1237 19-12-2016 07:00:00 4.1 C 6.21 g/m*3 4.1 C 0 km/h
1238 19-12-2016 07:05:00 4.1 C 6.21 g/m*3 4.1 C 0 km/h
1239 19-12-2016 07:10:00 4.1 C 6.21 g/m*3 4.1 C 0 km/h
1240 19-12-2016 07:15:00 4.1 C 6.21 g/m*3 4.1 C 0 km/h
1241 19-12-2016 07:20:00 4.1 C 6.21 g/m*3 4.1 C 0 km/h
1242 19-12-2016 07:25:00 4.1 C 6.21 g/m*3 4.1 C 0 km/h
1243 19-12-2016 07:30:00 4.1 C 6.21 g/m*3 4.1 C 0 km/h
1244 19-12-2016 07:35:00 4.1 C 6.21 g/m*3 4.1 C 0 km/h
1245 19-12-2016 07:40:00 4.1 C 6.21 g/m*3 4.1 C 0 km/h
1246 19-12-2016 07:45:00 4.1 C 6.21 g/m*3 4.1 C 0 km/h
1247 19-12-2016 07:50:00 4.1 C 6.21 g/m*3 4.1 C 0 km/h
1248 19-12-2016 07:55:00 4.1 C 6.21 g/m*3 4.1 C 0 km/h
1249 19-12-2016 08:00:00 4.1 C 6.21 g/m*3 4.1 C 0 km/h
1250 19-12-2016 08:05:00 4.1 C 6.21 g/m*3 4.1 C 0 km/h
Sensor: Nr:Datum:Temp:Abs-Feuchte:Windchill:Wind:
Aussen-T/F 1251 19-12-2016 08:10:00 4.1 C 6.21 g/m*3 4.1 C 0 km/h
1252 19-12-2016 08:15:00 4.1 C 6.21 g/m*3 4.1 C 0 km/h
1253 19-12-2016 08:20:00 4.1 C 6.21 g/m*3 4.1 C 0 km/h
1254 19-12-2016 08:25:00 4.1 C 6.21 g/m*3 4.1 C 0 km/h
1255 19-12-2016 08:30:00 4.1 C 6.21 g/m*3 4.1 C 0 km/h
1256 19-12-2016 08:35:00 4.1 C 6.21 g/m*3 4.1 C 0 km/h
1257 19-12-2016 08:40:00 4.1 C 6.21 g/m*3 4.1 C 0 km/h
1258 19-12-2016 08:45:00 4.1 C 6.21 g/m*3 4.1 C 0 km/h
1259 19-12-2016 08:50:00 4.1 C 6.21 g/m*3 4.1 C 0 km/h
1260 19-12-2016 08:55:00 4.1 C 6.21 g/m*3 4.1 C 0 km/h
1261 19-12-2016 09:00:00 4.1 C 6.21 g/m*3 4.1 C 0 km/h
1262 19-12-2016 09:05:00 4.2 C 6.25 g/m*3 4.2 C 0 km/h
1263 19-12-2016 09:10:00 4.2 C 6.25 g/m*3 4.2 C 0 km/h
1264 19-12-2016 09:15:00 4.2 C 6.25 g/m*3 4.2 C 0 km/h
1265 19-12-2016 09:20:00 4.2 C 6.25 g/m*3 4.2 C 0 km/h
1266 19-12-2016 09:25:00 4.3 C 6.29 g/m*3 4.3 C 0 km/h
1267 19-12-2016 09:30:00 4.3 C 6.29 g/m*3 4.3 C 0 km/h
1268 19-12-2016 09:35:00 4.3 C 6.29 g/m*3 4.3 C 0 km/h
1269 19-12-2016 09:40:00 4.4 C 6.33 g/m*3 4.4 C 0 km/h
1270 19-12-2016 09:45:00 4.4 C 6.33 g/m*3 4.4 C 0 km/h
1271 19-12-2016 09:50:00 4.5 C 6.38 g/m*3 4.5 C 0 km/h
1272 19-12-2016 09:55:00 4.6 C 6.42 g/m*3 4.6 C 0 km/h
1273 19-12-2016 10:00:00 4.6 C 6.42 g/m*3 4.6 C 0 km/h
1274 19-12-2016 10:05:00 4.6 C 6.42 g/m*3 4.6 C 0 km/h
1275 19-12-2016 10:10:00 4.7 C 6.46 g/m*3 4.7 C 0 km/h
Sensor: Nr:Datum:Temp:Abs-Feuchte:Windchill:Wind:
Aussen-T/F 1276 19-12-2016 10:15:00 4.7 C 6.46 g/m*3 4.7 C 4.8 km/h
1277 19-12-2016 10:20:00 4.7 C 6.46 g/m*3 3.25 C 6.4 km/h
1278 19-12-2016 10:25:00 4.7 C 6.39 g/m*3 2.76 C 8.1 km/h
1279 19-12-2016 10:30:00 4.7 C 6.39 g/m*3 2.76 C 8.1 km/h
1280 19-12-2016 10:35:00 4.8 C 6.37 g/m*3 2.49 C 9.7 km/h
1281 19-12-2016 10:40:00 4.9 C 6.35 g/m*3 2.27 C 11.3 km/h
1282 19-12-2016 10:45:00 5 C 6.39 g/m*3 5 C 1.6 km/h
1283 19-12-2016 10:50:00 5.1 C 6.36 g/m*3 5.1 C 4.8 km/h
1284 19-12-2016 10:55:00 5.2 C 6.4 g/m*3 5.2 C 3.2 km/h
1285 19-12-2016 11:00:00 5.2 C 6.33 g/m*3 5.2 C 4.8 km/h
1286 19-12-2016 11:05:00 5.3 C 6.31 g/m*3 5.3 C 3.2 km/h
1287 19-12-2016 11:10:00 5.3 C 6.31 g/m*3 3.08 C 9.7 km/h
1288 19-12-2016 11:15:00 5.4 C 6.28 g/m*3 4.06 C 6.4 km/h
1289 19-12-2016 11:20:00 5.4 C 6.28 g/m*3 4.06 C 6.4 km/h
1290 19-12-2016 11:25:00 5.5 C 6.25 g/m*3 5.5 C 3.2 km/h
1291 19-12-2016 11:30:00 5.5 C 6.25 g/m*3 4.17 C 6.4 km/h
1292 19-12-2016 11:35:00 5.5 C 6.18 g/m*3 5.5 C 3.2 km/h
1293 19-12-2016 11:40:00 5.5 C 6.18 g/m*3 5.5 C 3.2 km/h
1294 19-12-2016 11:45:00 5.5 C 6.18 g/m*3 5.5 C 4.8 km/h
1295 19-12-2016 11:50:00 5.6 C 6.15 g/m*3 3.81 C 8.1 km/h
1296 19-12-2016 11:55:00 5.6 C 6.15 g/m*3 3.81 C 8.1 km/h
1297 19-12-2016 12:00:00 5.6 C 6.15 g/m*3 3.81 C 8.1 km/h
1298 19-12-2016 12:05:00 5.7 C 6.19 g/m*3 5.7 C 4.8 km/h
1299 19-12-2016 12:10:00 5.7 C 6.19 g/m*3 5.7 C 4.8 km/h
1300 19-12-2016 12:15:00 5.7 C 6.19 g/m*3 4.4 C 6.4 km/h
Sensor: Nr:Datum:Temp:Abs-Feuchte:Windchill:Wind:
Aussen-T/F 1301 19-12-2016 12:20:00 5.7 C 6.12 g/m*3 5.7 C 4.8 km/h
1302 19-12-2016 12:25:00 5.7 C 6.12 g/m*3 5.7 C 1.6 km/h
1303 19-12-2016 12:30:00 5.7 C 6.12 g/m*3 5.7 C 4.8 km/h
1304 19-12-2016 12:35:00 5.7 C 6.12 g/m*3 5.7 C 4.8 km/h
1305 19-12-2016 12:40:00 5.7 C 6.12 g/m*3 5.7 C 1.6 km/h
1306 19-12-2016 12:45:00 5.7 C 6.12 g/m*3 5.7 C 4.8 km/h
1307 19-12-2016 12:50:00 5.8 C 6.16 g/m*3 4.52 C 6.4 km/h
1308 19-12-2016 12:55:00 5.8 C 6.16 g/m*3 4.05 C 8.1 km/h
1309 19-12-2016 13:00:00 5.8 C 6.16 g/m*3 5.8 C 3.2 km/h
1310 19-12-2016 13:05:00 5.8 C 6.16 g/m*3 5.8 C 1.6 km/h
1311 19-12-2016 13:10:00 5.8 C 6.09 g/m*3 5.8 C 1.6 km/h
1312 19-12-2016 13:15:00 5.8 C 6.09 g/m*3 5.8 C 3.2 km/h
1313 19-12-2016 13:20:00 5.8 C 6.02 g/m*3 4.05 C 8.1 km/h
1314 19-12-2016 13:25:00 5.8 C 6.02 g/m*3 4.52 C 6.4 km/h
1315 19-12-2016 13:30:00 5.7 C 5.91 g/m*3 5.7 C 4.8 km/h
1316 19-12-2016 13:35:00 5.7 C 5.91 g/m*3 4.4 C 6.4 km/h
1317 19-12-2016 13:40:00 5.7 C 5.84 g/m*3 3.93 C 8.1 km/h
1318 19-12-2016 13:45:00 5.7 C 5.76 g/m*3 3.93 C 8.1 km/h
1319 19-12-2016 13:50:00 5.6 C 5.66 g/m*3 3.11 C 11.3 km/h
1320 19-12-2016 13:55:00 5.6 C 5.66 g/m*3 3.44 C 9.7 km/h
1321 19-12-2016 14:00:00 5.6 C 5.66 g/m*3 3.44 C 9.7 km/h
1322 19-12-2016 14:05:00 5.5 C 5.62 g/m*3 5.5 C 4.8 km/h
1323 19-12-2016 14:10:00 5.5 C 5.62 g/m*3 2.99 C 11.3 km/h
1324 19-12-2016 14:15:00 5.4 C 5.58 g/m*3 3.58 C 8.1 km/h
1325 19-12-2016 14:20:00 5.4 C 5.58 g/m*3 2.87 C 11.3 km/h
Sensor: Nr:Datum:Temp:Abs-Feuchte:Windchill:Wind:
Aussen-T/F 1326 19-12-2016 14:25:00 5.4 C 5.58 g/m*3 3.2 C 9.7 km/h
1327 19-12-2016 14:30:00 5.4 C 5.51 g/m*3 3.2 C 9.7 km/h
1328 19-12-2016 14:35:00 5.4 C 5.58 g/m*3 3.2 C 9.7 km/h
1329 19-12-2016 14:40:00 5.5 C 5.69 g/m*3 5.5 C 0 km/h
1330 19-12-2016 14:45:00 5.4 C 5.58 g/m*3 3.58 C 8.1 km/h
1331 19-12-2016 14:50:00 5.4 C 5.51 g/m*3 3.2 C 9.7 km/h
1332 19-12-2016 14:55:00 5.4 C 5.58 g/m*3 3.2 C 9.7 km/h
1333 19-12-2016 15:00:00 5.4 C 5.65 g/m*3 5.4 C 1.6 km/h
1334 19-12-2016 15:05:00 5.3 C 5.54 g/m*3 5.3 C 4.8 km/h
1335 19-12-2016 15:10:00 5.3 C 5.61 g/m*3 5.3 C 4.8 km/h
1336 19-12-2016 15:15:00 5.3 C 5.61 g/m*3 5.3 C 3.2 km/h
1337 19-12-2016 15:20:00 5.3 C 5.61 g/m*3 5.3 C 4.8 km/h
1338 19-12-2016 15:25:00 5.3 C 5.61 g/m*3 5.3 C 4.8 km/h
1339 19-12-2016 15:30:00 5.3 C 5.68 g/m*3 5.3 C 4.8 km/h
1340 19-12-2016 15:35:00 5.3 C 5.61 g/m*3 5.3 C 4.8 km/h
1341 19-12-2016 15:40:00 5.2 C 5.65 g/m*3 3.34 C 8.1 km/h
1342 19-12-2016 15:45:00 5.2 C 5.58 g/m*3 3.34 C 8.1 km/h
1343 19-12-2016 15:50:00 5.2 C 5.58 g/m*3 5.2 C 3.2 km/h
1344 19-12-2016 15:55:00 5.2 C 5.65 g/m*3 5.2 C 1.6 km/h
1345 19-12-2016 16:00:00 5.1 C 5.54 g/m*3 5.1 C 4.8 km/h
1346 19-12-2016 16:05:00 5.1 C 5.61 g/m*3 5.1 C 3.2 km/h
1347 19-12-2016 16:10:00 5.1 C 5.54 g/m*3 5.1 C 4.8 km/h
1348 19-12-2016 16:15:00 5 C 5.44 g/m*3 3.11 C 8.1 km/h
1349 19-12-2016 16:20:00 5 C 5.44 g/m*3 2.72 C 9.7 km/h
1350 19-12-2016 16:25:00 4.9 C 5.47 g/m*3 2.99 C 8.1 km/h
Sensor: Nr:Datum:Temp:Abs-Feuchte:Windchill:Wind:
Aussen-T/F 1351 19-12-2016 16:30:00 4.9 C 5.47 g/m*3 2.27 C 11.3 km/h
1352 19-12-2016 16:35:00 4.8 C 5.5 g/m*3 4.8 C 3.2 km/h
1353 19-12-2016 16:40:00 4.8 C 5.5 g/m*3 3.36 C 6.4 km/h
1354 19-12-2016 16:45:00 4.8 C 5.5 g/m*3 4.8 C 0 km/h
1355 19-12-2016 16:50:00 4.7 C 5.46 g/m*3 4.7 C 4.8 km/h
1356 19-12-2016 16:55:00 4.7 C 5.53 g/m*3 4.7 C 3.2 km/h
1357 19-12-2016 17:00:00 4.7 C 5.46 g/m*3 4.7 C 3.2 km/h
1358 19-12-2016 17:05:00 4.6 C 5.43 g/m*3 4.6 C 4.8 km/h
1359 19-12-2016 17:10:00 4.6 C 5.43 g/m*3 4.6 C 4.8 km/h
1360 19-12-2016 17:15:00 4.6 C 5.43 g/m*3 4.6 C 4.8 km/h
1361 19-12-2016 17:20:00 4.6 C 5.43 g/m*3 4.6 C 4.8 km/h
1362 19-12-2016 17:25:00 4.6 C 5.43 g/m*3 4.6 C 4.8 km/h
1363 19-12-2016 17:30:00 4.6 C 5.43 g/m*3 4.6 C 1.6 km/h
1364 19-12-2016 17:35:00 4.6 C 5.43 g/m*3 4.6 C 3.2 km/h
1365 19-12-2016 17:40:00 4.6 C 5.43 g/m*3 4.6 C 0 km/h
1366 19-12-2016 17:45:00 4.5 C 5.39 g/m*3 4.5 C 3.2 km/h
1367 19-12-2016 17:50:00 4.5 C 5.39 g/m*3 4.5 C 3.2 km/h
1368 19-12-2016 17:55:00 4.4 C 5.35 g/m*3 2.4 C 8.1 km/h
1369 19-12-2016 18:00:00 4.4 C 5.35 g/m*3 2.01 C 9.7 km/h
1370 19-12-2016 18:05:00 4.3 C 5.32 g/m*3 4.3 C 4.8 km/h
1371 19-12-2016 18:10:00 4.3 C 5.32 g/m*3 2.78 C 6.4 km/h
1372 19-12-2016 18:15:00 4.3 C 5.32 g/m*3 2.78 C 6.4 km/h
1373 19-12-2016 18:20:00 4.3 C 5.38 g/m*3 4.3 C 0 km/h
1374 19-12-2016 18:25:00 4.2 C 5.35 g/m*3 2.67 C 6.4 km/h
1375 19-12-2016 18:30:00 4.1 C 5.31 g/m*3 4.1 C 3.2 km/h
Sensor: Nr:Datum:Temp:Abs-Feuchte:Windchill:Wind:
Aussen-T/F 1376 19-12-2016 18:35:00 4.1 C 5.31 g/m*3 4.1 C 3.2 km/h
1377 19-12-2016 18:40:00 4.1 C 5.31 g/m*3 4.1 C 4.8 km/h
1378 19-12-2016 18:45:00 4.1 C 5.31 g/m*3 4.1 C 3.2 km/h
1379 19-12-2016 18:50:00 4 C 5.28 g/m*3 2.44 C 6.4 km/h
1380 19-12-2016 18:55:00 4 C 5.28 g/m*3 4 C 4.8 km/h
1381 19-12-2016 19:00:00 4 C 5.28 g/m*3 4 C 1.6 km/h
1382 19-12-2016 19:05:00 4 C 5.28 g/m*3 2.44 C 6.4 km/h
1383 19-12-2016 19:10:00 3.9 C 5.24 g/m*3 1.82 C 8.1 km/h
1384 19-12-2016 19:15:00 3.9 C 5.24 g/m*3 3.9 C 4.8 km/h
1385 19-12-2016 19:20:00 3.9 C 5.24 g/m*3 3.9 C 4.8 km/h
1386 19-12-2016 19:25:00 3.9 C 5.31 g/m*3 3.9 C 1.6 km/h
1387 19-12-2016 19:30:00 3.9 C 5.31 g/m*3 3.9 C 4.8 km/h
1388 19-12-2016 19:35:00 3.9 C 5.24 g/m*3 3.9 C 4.8 km/h
1389 19-12-2016 19:40:00 3.9 C 5.31 g/m*3 3.9 C 4.8 km/h
1390 19-12-2016 19:45:00 3.9 C 5.24 g/m*3 3.9 C 4.8 km/h
1391 19-12-2016 19:50:00 3.9 C 5.24 g/m*3 1.82 C 8.1 km/h
1392 19-12-2016 19:55:00 3.9 C 5.24 g/m*3 3.9 C 4.8 km/h
1393 19-12-2016 20:00:00 3.8 C 5.21 g/m*3 3.8 C 3.2 km/h
1394 19-12-2016 20:05:00 3.8 C 5.21 g/m*3 3.8 C 4.8 km/h
1395 19-12-2016 20:10:00 3.8 C 5.21 g/m*3 3.8 C 4.8 km/h
1396 19-12-2016 20:15:00 3.8 C 5.21 g/m*3 3.8 C 1.6 km/h
1397 19-12-2016 20:20:00 3.8 C 5.27 g/m*3 3.8 C 4.8 km/h
1398 19-12-2016 20:25:00 3.8 C 5.21 g/m*3 2.21 C 6.4 km/h
1399 19-12-2016 20:30:00 3.8 C 5.21 g/m*3 3.8 C 0 km/h
1400 19-12-2016 20:35:00 3.8 C 5.27 g/m*3 3.8 C 0 km/h
Sensor: Nr:Datum:Temp:Abs-Feuchte:Windchill:Wind:
Aussen-T/F 1401 19-12-2016 20:40:00 3.8 C 5.27 g/m*3 3.8 C 4.8 km/h
1402 19-12-2016 20:45:00 3.8 C 5.27 g/m*3 1.29 C 9.7 km/h
1403 19-12-2016 20:50:00 3.8 C 5.27 g/m*3 1.7 C 8.1 km/h
1404 19-12-2016 20:55:00 3.7 C 5.17 g/m*3 3.7 C 4.8 km/h
1405 19-12-2016 21:00:00 3.7 C 5.23 g/m*3 3.7 C 3.2 km/h
1406 19-12-2016 21:05:00 3.8 C 5.33 g/m*3 3.8 C 0 km/h
1407 19-12-2016 21:10:00 3.7 C 5.23 g/m*3 3.7 C 0 km/h
1408 19-12-2016 21:15:00 3.7 C 5.3 g/m*3 3.7 C 1.6 km/h
1409 19-12-2016 21:20:00 3.7 C 5.23 g/m*3 3.7 C 3.2 km/h
1410 19-12-2016 21:25:00 3.7 C 5.23 g/m*3 3.7 C 0 km/h
1411 19-12-2016 21:30:00 3.7 C 5.3 g/m*3 3.7 C 0 km/h
1412 19-12-2016 21:35:00 3.6 C 5.26 g/m*3 3.6 C 4.8 km/h
1413 19-12-2016 21:40:00 3.6 C 5.26 g/m*3 1.98 C 6.4 km/h
1414 19-12-2016 21:45:00 3.6 C 5.26 g/m*3 3.6 C 3.2 km/h
1415 19-12-2016 21:50:00 3.7 C 5.23 g/m*3 3.7 C 3.2 km/h
1416 19-12-2016 21:55:00 3.7 C 5.23 g/m*3 3.7 C 1.6 km/h
1417 19-12-2016 22:00:00 3.7 C 5.23 g/m*3 3.7 C 0 km/h
1418 19-12-2016 22:05:00 3.7 C 5.3 g/m*3 3.7 C 0 km/h
1419 19-12-2016 22:10:00 3.6 C 5.26 g/m*3 3.6 C 0 km/h
1420 19-12-2016 22:15:00 3.6 C 5.26 g/m*3 3.6 C 1.6 km/h
1421 19-12-2016 22:20:00 3.6 C 5.32 g/m*3 3.6 C 0 km/h
1422 19-12-2016 22:25:00 3.6 C 5.32 g/m*3 3.6 C 0 km/h
1423 19-12-2016 22:30:00 3.6 C 5.32 g/m*3 3.6 C 0 km/h
1424 19-12-2016 22:35:00 3.5 C 5.29 g/m*3 3.5 C 0 km/h
1425 19-12-2016 22:40:00 3.5 C 5.29 g/m*3 3.5 C 0 km/h
Sensor: Nr:Datum:Temp:Abs-Feuchte:Windchill:Wind:
Aussen-T/F 1426 19-12-2016 22:45:00 3.5 C 5.29 g/m*3 3.5 C 3.2 km/h
1427 19-12-2016 22:50:00 3.5 C 5.29 g/m*3 3.5 C 3.2 km/h
1428 19-12-2016 22:55:00 3.5 C 5.29 g/m*3 3.5 C 0 km/h
1429 19-12-2016 23:00:00 3.5 C 5.29 g/m*3 3.5 C 0 km/h
1430 19-12-2016 23:05:00 3.5 C 5.29 g/m*3 3.5 C 0 km/h
1431 19-12-2016 23:10:00 3.5 C 5.29 g/m*3 3.5 C 1.6 km/h
1432 19-12-2016 23:15:00 3.5 C 5.29 g/m*3 3.5 C 1.6 km/h
1433 19-12-2016 23:20:00 3.5 C 5.29 g/m*3 3.5 C 0 km/h
1434 19-12-2016 23:25:00 3.5 C 5.29 g/m*3 3.5 C 0 km/h
1435 19-12-2016 23:30:00 3.6 C 5.32 g/m*3 3.6 C 3.2 km/h
1436 19-12-2016 23:35:00 3.6 C 5.26 g/m*3 3.6 C 1.6 km/h
1437 19-12-2016 23:40:00 3.6 C 5.26 g/m*3 3.6 C 3.2 km/h
1438 19-12-2016 23:45:00 3.6 C 5.26 g/m*3 3.6 C 3.2 km/h
1439 19-12-2016 23:50:00 3.7 C 5.3 g/m*3 3.7 C 0 km/h
1440 19-12-2016 23:55:00 3.7 C 5.23 g/m*3 3.7 C 1.6 km/h
1441 20-12-2016 00:00:00 3.7 C 5.3 g/m*3 3.7 C 4.8 km/h
1442 20-12-2016 00:05:00 3.7 C 5.3 g/m*3 3.7 C 4.8 km/h
1443 20-12-2016 00:10:00 3.7 C 5.23 g/m*3 3.7 C 1.6 km/h
1444 20-12-2016 00:15:00 3.7 C 5.3 g/m*3 3.7 C 0 km/h
1445 20-12-2016 00:20:00 3.7 C 5.3 g/m*3 3.7 C 0 km/h
1446 20-12-2016 00:25:00 3.7 C 5.3 g/m*3 3.7 C 0 km/h
1447 20-12-2016 00:30:00 3.7 C 5.36 g/m*3 3.7 C 0 km/h
1448 20-12-2016 00:35:00 3.7 C 5.36 g/m*3 3.7 C 0 km/h
1449 20-12-2016 00:40:00 3.6 C 5.32 g/m*3 3.6 C 1.6 km/h
1450 20-12-2016 00:45:00 3.6 C 5.32 g/m*3 3.6 C 1.6 km/h
Sensor: Nr:Datum:Temp:Abs-Feuchte:Windchill:Wind:
Aussen-T/F 1451 20-12-2016 00:50:00 3.6 C 5.32 g/m*3 3.6 C 0 km/h
1452 20-12-2016 00:55:00 3.5 C 5.29 g/m*3 3.5 C 0 km/h
1453 20-12-2016 01:00:00 3.5 C 5.29 g/m*3 3.5 C 0 km/h
1454 20-12-2016 01:05:00 3.4 C 5.31 g/m*3 3.4 C 0 km/h
1455 20-12-2016 01:10:00 3.4 C 5.25 g/m*3 3.4 C 1.6 km/h
1456 20-12-2016 01:15:00 3.4 C 5.25 g/m*3 3.4 C 0 km/h
1457 20-12-2016 01:20:00 3.4 C 5.31 g/m*3 3.4 C 4.8 km/h
1458 20-12-2016 01:25:00 3.4 C 5.25 g/m*3 3.4 C 1.6 km/h
1459 20-12-2016 01:30:00 3.4 C 5.25 g/m*3 3.4 C 1.6 km/h
1460 20-12-2016 01:35:00 3.5 C 5.29 g/m*3 3.5 C 4.8 km/h
1461 20-12-2016 01:40:00 3.6 C 5.26 g/m*3 3.6 C 4.8 km/h
1462 20-12-2016 01:45:00 3.6 C 5.26 g/m*3 3.6 C 1.6 km/h
1463 20-12-2016 01:50:00 3.6 C 5.32 g/m*3 3.6 C 3.2 km/h
1464 20-12-2016 01:55:00 3.6 C 5.32 g/m*3 3.6 C 1.6 km/h
1465 20-12-2016 02:00:00 3.5 C 5.29 g/m*3 3.5 C 0 km/h
1466 20-12-2016 02:05:00 3.5 C 5.29 g/m*3 3.5 C 4.8 km/h
1467 20-12-2016 02:10:00 3.5 C 5.23 g/m*3 1.86 C 6.4 km/h
1468 20-12-2016 02:15:00 3.5 C 5.29 g/m*3 3.5 C 1.6 km/h
1469 20-12-2016 02:20:00 3.5 C 5.29 g/m*3 3.5 C 1.6 km/h
1470 20-12-2016 02:25:00 3.4 C 5.25 g/m*3 3.4 C 0 km/h
1471 20-12-2016 02:30:00 3.4 C 5.25 g/m*3 3.4 C 0 km/h
1472 20-12-2016 02:35:00 3.3 C 5.28 g/m*3 3.3 C 0 km/h
1473 20-12-2016 02:40:00 3.3 C 5.28 g/m*3 3.3 C 0 km/h
1474 20-12-2016 02:45:00 3.3 C 5.28 g/m*3 3.3 C 0 km/h
1475 20-12-2016 02:50:00 3.2 C 5.24 g/m*3 3.2 C 0 km/h
Sensor: Nr:Datum:Temp:Abs-Feuchte:Windchill:Wind:
Aussen-T/F 1476 20-12-2016 02:55:00 3.2 C 5.24 g/m*3 3.2 C 1.6 km/h
1477 20-12-2016 03:00:00 3.1 C 5.27 g/m*3 3.1 C 0 km/h
1478 20-12-2016 03:05:00 3 C 5.23 g/m*3 3 C 0 km/h
1479 20-12-2016 03:10:00 2.9 C 5.2 g/m*3 2.9 C 0 km/h
1480 20-12-2016 03:15:00 2.9 C 5.26 g/m*3 2.9 C 0 km/h
1481 20-12-2016 03:20:00 2.9 C 5.26 g/m*3 2.9 C 0 km/h
1482 20-12-2016 03:25:00 2.9 C 5.26 g/m*3 2.9 C 0 km/h
1483 20-12-2016 03:30:00 2.9 C 5.2 g/m*3 2.9 C 0 km/h
1484 20-12-2016 03:35:00 2.9 C 5.26 g/m*3 2.9 C 1.6 km/h
1485 20-12-2016 03:40:00 2.9 C 5.26 g/m*3 2.9 C 0 km/h
1486 20-12-2016 03:45:00 2.9 C 5.26 g/m*3 2.9 C 0 km/h
1487 20-12-2016 03:50:00 2.8 C 5.22 g/m*3 2.8 C 1.6 km/h
1488 20-12-2016 03:55:00 2.8 C 5.22 g/m*3 2.8 C 0 km/h
1489 20-12-2016 04:00:00 2.8 C 5.22 g/m*3 2.8 C 1.6 km/h
1490 20-12-2016 04:05:00 2.8 C 5.16 g/m*3 2.8 C 4.8 km/h
1491 20-12-2016 04:10:00 2.8 C 5.16 g/m*3 2.8 C 3.2 km/h
1492 20-12-2016 04:15:00 2.9 C 5.2 g/m*3 2.9 C 1.6 km/h
1493 20-12-2016 04:20:00 2.9 C 5.2 g/m*3 2.9 C 0 km/h
1494 20-12-2016 04:25:00 2.9 C 5.2 g/m*3 2.9 C 1.6 km/h
1495 20-12-2016 04:30:00 2.9 C 5.2 g/m*3 2.9 C 0 km/h
1496 20-12-2016 04:35:00 2.8 C 5.16 g/m*3 2.8 C 0 km/h
1497 20-12-2016 04:40:00 2.8 C 5.16 g/m*3 2.8 C 0 km/h
1498 20-12-2016 04:45:00 2.7 C 5.13 g/m*3 2.7 C 0 km/h
1499 20-12-2016 04:50:00 2.7 C 5.13 g/m*3 2.7 C 0 km/h
1500 20-12-2016 04:55:00 2.6 C 5.15 g/m*3 2.6 C 0 km/h
Sensor: Nr:Datum:Temp:Abs-Feuchte:Windchill:Wind:
Aussen-T/F 1501 20-12-2016 05:00:00 2.5 C 5.12 g/m*3 2.5 C 0 km/h
1502 20-12-2016 05:05:00 2.4 C 5.08 g/m*3 2.4 C 0 km/h
1503 20-12-2016 05:10:00 2.3 C 5.05 g/m*3 2.3 C 1.6 km/h
1504 20-12-2016 05:15:00 2.3 C 5.05 g/m*3 2.3 C 0 km/h
1505 20-12-2016 05:20:00 2.2 C 5.07 g/m*3 2.2 C 0 km/h
1506 20-12-2016 05:25:00 2.1 C 5.04 g/m*3 2.1 C 0 km/h
1507 20-12-2016 05:30:00 1.9 C 4.91 g/m*3 1.9 C 1.6 km/h
1508 20-12-2016 05:35:00 1.8 C 4.88 g/m*3 1.8 C 3.2 km/h
1509 20-12-2016 05:40:00 1.7 C 4.9 g/m*3 1.7 C 0 km/h
1510 20-12-2016 05:45:00 1.6 C 4.87 g/m*3 1.6 C 1.6 km/h
1511 20-12-2016 05:50:00 1.4 C 4.8 g/m*3 1.4 C 3.2 km/h
1512 20-12-2016 05:55:00 1.3 C 4.82 g/m*3 1.3 C 1.6 km/h
1513 20-12-2016 06:00:00 1.3 C 4.82 g/m*3 1.3 C 1.6 km/h
1514 20-12-2016 06:05:00 1.3 C 4.82 g/m*3 1.3 C 0 km/h
1515 20-12-2016 06:10:00 1.3 C 4.87 g/m*3 1.3 C 1.6 km/h
1516 20-12-2016 06:15:00 1.3 C 4.87 g/m*3 1.3 C 0 km/h
1517 20-12-2016 06:20:00 1.4 C 4.91 g/m*3 1.4 C 1.6 km/h
1518 20-12-2016 06:25:00 1.4 C 4.91 g/m*3 1.4 C 1.6 km/h
1519 20-12-2016 06:30:00 1.4 C 4.91 g/m*3 1.4 C 0 km/h
1520 20-12-2016 06:35:00 1.4 C 4.91 g/m*3 1.4 C 0 km/h
1521 20-12-2016 06:40:00 1.4 C 4.91 g/m*3 1.4 C 0 km/h
1522 20-12-2016 06:45:00 1.3 C 4.87 g/m*3 1.3 C 0 km/h
1523 20-12-2016 06:50:00 1.3 C 4.87 g/m*3 1.3 C 0 km/h
1524 20-12-2016 06:55:00 1.3 C 4.87 g/m*3 1.3 C 0 km/h
1525 20-12-2016 07:00:00 1.4 C 4.91 g/m*3 1.4 C 0 km/h
Sensor: Nr:Datum:Temp:Abs-Feuchte:Windchill:Wind:
Aussen-T/F 1526 20-12-2016 07:05:00 1.4 C 4.91 g/m*3 1.4 C 0 km/h
1527 20-12-2016 07:10:00 1.4 C 4.91 g/m*3 1.4 C 0 km/h
1528 20-12-2016 07:15:00 1.2 C 4.84 g/m*3 1.2 C 0 km/h
1529 20-12-2016 07:20:00 1.2 C 4.84 g/m*3 1.2 C 4.8 km/h
1530 20-12-2016 07:25:00 1.1 C 4.81 g/m*3 1.1 C 1.6 km/h
1531 20-12-2016 07:30:00 0.9 C 4.74 g/m*3 0.9 C 1.6 km/h
1532 20-12-2016 07:35:00 0.7 C 4.63 g/m*3 0.7 C 1.6 km/h
1533 20-12-2016 07:40:00 0.6 C 4.65 g/m*3 0.6 C 3.2 km/h
1534 20-12-2016 07:45:00 0.4 C 4.58 g/m*3 0.4 C 3.2 km/h
1535 20-12-2016 07:50:00 0.3 C 4.55 g/m*3 0.3 C 3.2 km/h
1536 20-12-2016 07:55:00 0.2 C 4.52 g/m*3 0.2 C 1.6 km/h
1537 20-12-2016 08:00:00 0.1 C 4.49 g/m*3 0.1 C 3.2 km/h
1538 20-12-2016 08:05:00 -0.1 C 4.43 g/m*3 -0.1 C 3.2 km/h
1539 20-12-2016 08:10:00 -0.2 C 4.44 g/m*3 -0.2 C 3.2 km/h
1540 20-12-2016 08:15:00 -0.2 C 4.44 g/m*3 -0.2 C 3.2 km/h
1541 20-12-2016 08:20:00 -0.2 C 4.44 g/m*3 -0.2 C 3.2 km/h
1542 20-12-2016 08:25:00 -0.3 C 4.41 g/m*3 -0.3 C 3.2 km/h
1543 20-12-2016 08:30:00 -0.3 C 4.41 g/m*3 -0.3 C 1.6 km/h
1544 20-12-2016 08:35:00 -0.3 C 4.46 g/m*3 -0.3 C 0 km/h
1545 20-12-2016 08:40:00 -0.3 C 4.46 g/m*3 -0.3 C 0 km/h
1546 20-12-2016 08:45:00 -0.4 C 4.38 g/m*3 -0.4 C 0 km/h
1547 20-12-2016 08:50:00 -0.5 C 4.35 g/m*3 -0.5 C 3.2 km/h
1548 20-12-2016 08:55:00 -0.5 C 4.4 g/m*3 -0.5 C 1.6 km/h
1549 20-12-2016 09:00:00 -0.4 C 4.43 g/m*3 -0.4 C 3.2 km/h
1550 20-12-2016 09:05:00 -0.4 C 4.43 g/m*3 -0.4 C 4.8 km/h
Sensor: Nr:Datum:Temp:Abs-Feuchte:Windchill:Wind:
Aussen-T/F 1551 20-12-2016 09:10:00 -0.4 C 4.43 g/m*3 -0.4 C 3.2 km/h
1552 20-12-2016 09:15:00 -0.4 C 4.43 g/m*3 -0.4 C 3.2 km/h
1553 20-12-2016 09:20:00 -0.3 C 4.46 g/m*3 -0.3 C 3.2 km/h
1554 20-12-2016 09:25:00 -0.3 C 4.46 g/m*3 -0.3 C 1.6 km/h
1555 20-12-2016 09:30:00 -0.3 C 4.46 g/m*3 -0.3 C 3.2 km/h
1556 20-12-2016 09:35:00 -0.3 C 4.46 g/m*3 -0.3 C 3.2 km/h
1557 20-12-2016 09:40:00 -0.3 C 4.46 g/m*3 -0.3 C 1.6 km/h
1558 20-12-2016 09:45:00 -0.3 C 4.46 g/m*3 -0.3 C 3.2 km/h
1559 20-12-2016 09:50:00 -0.2 C 4.49 g/m*3 -0.2 C 3.2 km/h
1560 20-12-2016 09:55:00 -0.2 C 4.49 g/m*3 -0.2 C 3.2 km/h
1561 20-12-2016 10:00:00 -0.2 C 4.49 g/m*3 -0.2 C 3.2 km/h
1562 20-12-2016 10:05:00 -0.2 C 4.49 g/m*3 -0.2 C 3.2 km/h
1563 20-12-2016 10:10:00 -0.1 C 4.52 g/m*3 -0.1 C 3.2 km/h
1564 20-12-2016 10:15:00 -0.1 C 4.52 g/m*3 -0.1 C 3.2 km/h
1565 20-12-2016 10:20:00 -0.1 C 4.57 g/m*3 -0.1 C 3.2 km/h
1566 20-12-2016 10:25:00 0 C 4.6 g/m*3 0 C 3.2 km/h
1567 20-12-2016 10:30:00 0.1 C 4.63 g/m*3 0.1 C 3.2 km/h
1568 20-12-2016 10:35:00 0.1 C 4.63 g/m*3 0.1 C 3.2 km/h
1569 20-12-2016 10:40:00 0.1 C 4.63 g/m*3 0.1 C 3.2 km/h
1570 20-12-2016 10:45:00 0.2 C 4.67 g/m*3 0.2 C 3.2 km/h
1571 20-12-2016 10:50:00 0.2 C 4.67 g/m*3 0.2 C 3.2 km/h
1572 20-12-2016 10:55:00 0.2 C 4.67 g/m*3 0.2 C 4.8 km/h
1573 20-12-2016 11:00:00 0.3 C 4.7 g/m*3 0.3 C 3.2 km/h
1574 20-12-2016 11:05:00 0.3 C 4.7 g/m*3 0.3 C 4.8 km/h
1575 20-12-2016 11:10:00 0.4 C 4.73 g/m*3 0.4 C 3.2 km/h
Sensor: Nr:Datum:Temp:Abs-Feuchte:Windchill:Wind:
Aussen-T/F 1576 20-12-2016 11:15:00 0.4 C 4.73 g/m*3 0.4 C 3.2 km/h
1577 20-12-2016 11:20:00 0.4 C 4.68 g/m*3 0.4 C 4.8 km/h
1578 20-12-2016 11:25:00 0.5 C 4.71 g/m*3 0.5 C 3.2 km/h
1579 20-12-2016 11:30:00 0.5 C 4.76 g/m*3 0.5 C 3.2 km/h
1580 20-12-2016 11:35:00 0.6 C 4.8 g/m*3 0.6 C 4.8 km/h
1581 20-12-2016 11:40:00 0.6 C 4.75 g/m*3 0.6 C 3.2 km/h
1582 20-12-2016 11:45:00 0.6 C 4.8 g/m*3 0.6 C 1.6 km/h
1583 20-12-2016 11:50:00 0.7 C 4.78 g/m*3 0.7 C 3.2 km/h
1584 20-12-2016 11:55:00 0.7 C 4.78 g/m*3 0.7 C 1.6 km/h
1585 20-12-2016 12:00:00 0.7 C 4.78 g/m*3 0.7 C 1.6 km/h
1586 20-12-2016 12:05:00 0.8 C 4.81 g/m*3 0.8 C 3.2 km/h
1587 20-12-2016 12:10:00 0.9 C 4.85 g/m*3 0.9 C 1.6 km/h
1588 20-12-2016 12:15:00 0.9 C 4.85 g/m*3 0.9 C 0 km/h
1589 20-12-2016 12:20:00 1 C 4.88 g/m*3 1 C 1.6 km/h
1590 20-12-2016 12:25:00 1 C 4.88 g/m*3 1 C 0 km/h
1591 20-12-2016 12:30:00 1.1 C 4.91 g/m*3 1.1 C 0 km/h
1592 20-12-2016 12:35:00 1.1 C 4.91 g/m*3 1.1 C 0 km/h
1593 20-12-2016 12:40:00 1.2 C 4.95 g/m*3 1.2 C 3.2 km/h
1594 20-12-2016 12:45:00 1.2 C 4.95 g/m*3 1.2 C 3.2 km/h
1595 20-12-2016 12:50:00 1.2 C 4.95 g/m*3 1.2 C 3.2 km/h
1596 20-12-2016 12:55:00 1.2 C 4.95 g/m*3 1.2 C 3.2 km/h
1597 20-12-2016 13:00:00 1.2 C 4.95 g/m*3 1.2 C 3.2 km/h
1598 20-12-2016 13:05:00 1.3 C 4.98 g/m*3 1.3 C 3.2 km/h
1599 20-12-2016 13:10:00 1.4 C 5.01 g/m*3 1.4 C 1.6 km/h
1600 20-12-2016 13:15:00 1.4 C 5.01 g/m*3 1.4 C 3.2 km/h
Sensor: Nr:Datum:Temp:Abs-Feuchte:Windchill:Wind:
Aussen-T/F 1601 20-12-2016 13:20:00 1.4 C 5.01 g/m*3 1.4 C 3.2 km/h
1602 20-12-2016 13:25:00 1.5 C 5.05 g/m*3 1.5 C 4.8 km/h
1603 20-12-2016 13:30:00 1.6 C 5.08 g/m*3 1.6 C 4.8 km/h
1604 20-12-2016 13:35:00 1.6 C 5.08 g/m*3 1.6 C 3.2 km/h
1605 20-12-2016 13:40:00 1.7 C 5.06 g/m*3 1.7 C 3.2 km/h
1606 20-12-2016 13:45:00 1.7 C 5.06 g/m*3 1.7 C 3.2 km/h
1607 20-12-2016 13:50:00 1.8 C 5.1 g/m*3 1.8 C 3.2 km/h
1608 20-12-2016 13:55:00 1.8 C 5.1 g/m*3 1.8 C 3.2 km/h
1609 20-12-2016 14:00:00 1.9 C 5.13 g/m*3 1.9 C 3.2 km/h
1610 20-12-2016 14:05:00 1.9 C 5.08 g/m*3 1.9 C 1.6 km/h
1611 20-12-2016 14:10:00 1.9 C 5.08 g/m*3 1.9 C 4.8 km/h
1612 20-12-2016 14:15:00 1.9 C 5.08 g/m*3 1.9 C 1.6 km/h
1613 20-12-2016 14:20:00 2 C 5.11 g/m*3 2 C 3.2 km/h
1614 20-12-2016 14:25:00 2.1 C 5.15 g/m*3 2.1 C 1.6 km/h
1615 20-12-2016 14:30:00 2.1 C 5.15 g/m*3 2.1 C 3.2 km/h
1616 20-12-2016 14:35:00 2.1 C 5.15 g/m*3 2.1 C 3.2 km/h
1617 20-12-2016 14:40:00 2.1 C 5.15 g/m*3 2.1 C 1.6 km/h
1618 20-12-2016 14:45:00 2.1 C 5.09 g/m*3 2.1 C 4.8 km/h
1619 20-12-2016 14:50:00 2.1 C 5.09 g/m*3 2.1 C 4.8 km/h
1620 20-12-2016 14:55:00 2.1 C 5.09 g/m*3 2.1 C 3.2 km/h
1621 20-12-2016 15:00:00 2.1 C 5.09 g/m*3 2.1 C 4.8 km/h
1622 20-12-2016 15:05:00 2.1 C 5.09 g/m*3 2.1 C 4.8 km/h
1623 20-12-2016 15:10:00 2.1 C 5.09 g/m*3 2.1 C 4.8 km/h
1624 20-12-2016 15:15:00 2.1 C 5.09 g/m*3 2.1 C 3.2 km/h
1625 20-12-2016 15:20:00 2.1 C 5.09 g/m*3 2.1 C 3.2 km/h
Sensor: Nr:Datum:Temp:Abs-Feuchte:Windchill:Wind:
Aussen-T/F 1626 20-12-2016 15:25:00 2.1 C 5.09 g/m*3 2.1 C 1.6 km/h
1627 20-12-2016 15:30:00 2 C 5.06 g/m*3 2 C 4.8 km/h
1628 20-12-2016 15:35:00 1.9 C 5.02 g/m*3 1.9 C 4.8 km/h
1629 20-12-2016 15:40:00 1.9 C 5.02 g/m*3 1.9 C 4.8 km/h
1630 20-12-2016 15:45:00 1.8 C 4.99 g/m*3 1.8 C 4.8 km/h
1631 20-12-2016 15:50:00 1.8 C 4.99 g/m*3 -0.1 C 6.4 km/h
1632 20-12-2016 15:55:00 1.8 C 4.99 g/m*3 -0.1 C 6.4 km/h
1633 20-12-2016 16:00:00 1.8 C 4.99 g/m*3 -0.1 C 6.4 km/h
1634 20-12-2016 16:05:00 1.9 C 5.02 g/m*3 1.9 C 4.8 km/h
1635 20-12-2016 16:10:00 1.8 C 4.99 g/m*3 1.8 C 4.8 km/h
1636 20-12-2016 16:15:00 1.8 C 4.99 g/m*3 1.8 C 4.8 km/h
1637 20-12-2016 16:20:00 1.7 C 4.95 g/m*3 1.7 C 4.8 km/h
1638 20-12-2016 16:25:00 1.6 C 4.92 g/m*3 1.6 C 4.8 km/h
1639 20-12-2016 16:30:00 1.5 C 4.89 g/m*3 1.5 C 4.8 km/h
1640 20-12-2016 16:35:00 1.4 C 4.85 g/m*3 1.4 C 4.8 km/h
1641 20-12-2016 16:40:00 1.3 C 4.82 g/m*3 1.3 C 4.8 km/h
1642 20-12-2016 16:45:00 1.2 C 4.84 g/m*3 1.2 C 4.8 km/h
1643 20-12-2016 16:50:00 1.2 C 4.84 g/m*3 1.2 C 4.8 km/h
1644 20-12-2016 16:55:00 1.2 C 4.84 g/m*3 1.2 C 4.8 km/h
1645 20-12-2016 17:00:00 1.1 C 4.81 g/m*3 1.1 C 3.2 km/h
1646 20-12-2016 17:05:00 1.1 C 4.81 g/m*3 1.1 C 4.8 km/h
1647 20-12-2016 17:10:00 1.1 C 4.81 g/m*3 1.1 C 0 km/h
1648 20-12-2016 17:15:00 1 C 4.78 g/m*3 1 C 1.6 km/h
1649 20-12-2016 17:20:00 0.9 C 4.74 g/m*3 0.9 C 1.6 km/h
1650 20-12-2016 17:25:00 0.9 C 4.74 g/m*3 0.9 C 3.2 km/h
Sensor: Nr:Datum:Temp:Abs-Feuchte:Windchill:Wind:
Aussen-T/F 1651 20-12-2016 17:30:00 0.8 C 4.71 g/m*3 0.8 C 1.6 km/h
1652 20-12-2016 17:35:00 0.8 C 4.71 g/m*3 0.8 C 1.6 km/h
1653 20-12-2016 17:40:00 0.7 C 4.68 g/m*3 0.7 C 3.2 km/h
1654 20-12-2016 17:45:00 0.7 C 4.68 g/m*3 0.7 C 4.8 km/h
1655 20-12-2016 17:50:00 0.7 C 4.68 g/m*3 0.7 C 1.6 km/h
1656 20-12-2016 17:55:00 0.6 C 4.65 g/m*3 0.6 C 1.6 km/h
1657 20-12-2016 18:00:00 0.6 C 4.65 g/m*3 0.6 C 3.2 km/h
1658 20-12-2016 18:05:00 0.5 C 4.61 g/m*3 0.5 C 3.2 km/h
1659 20-12-2016 18:10:00 0.6 C 4.65 g/m*3 0.6 C 3.2 km/h
1660 20-12-2016 18:15:00 0.4 C 4.58 g/m*3 0.4 C 3.2 km/h
1661 20-12-2016 18:20:00 0.4 C 4.58 g/m*3 0.4 C 3.2 km/h
1662 20-12-2016 18:25:00 0.3 C 4.55 g/m*3 0.3 C 3.2 km/h
1663 20-12-2016 18:30:00 0.3 C 4.55 g/m*3 0.3 C 3.2 km/h
1664 20-12-2016 18:35:00 0.3 C 4.6 g/m*3 0.3 C 0 km/h
1665 20-12-2016 18:40:00 0.3 C 4.6 g/m*3 0.3 C 0 km/h
1666 20-12-2016 18:45:00 0.3 C 4.6 g/m*3 0.3 C 4.8 km/h
1667 20-12-2016 18:50:00 0.3 C 4.6 g/m*3 0.3 C 3.2 km/h
1668 20-12-2016 18:55:00 0.3 C 4.6 g/m*3 0.3 C 3.2 km/h
1669 20-12-2016 19:00:00 0.3 C 4.6 g/m*3 0.3 C 3.2 km/h
1670 20-12-2016 19:05:00 0.2 C 4.57 g/m*3 0.2 C 1.6 km/h
1671 20-12-2016 19:10:00 0.2 C 4.57 g/m*3 0.2 C 1.6 km/h
1672 20-12-2016 19:15:00 0.2 C 4.57 g/m*3 0.2 C 3.2 km/h
1673 20-12-2016 19:20:00 0.1 C 4.54 g/m*3 0.1 C 1.6 km/h
1674 20-12-2016 19:25:00 0 C 4.51 g/m*3 0 C 3.2 km/h
1675 20-12-2016 19:30:00 0.1 C 4.54 g/m*3 0.1 C 3.2 km/h
Sensor: Nr:Datum:Temp:Abs-Feuchte:Windchill:Wind:
Aussen-T/F 1676 20-12-2016 19:35:00 0 C 4.51 g/m*3 0 C 3.2 km/h
1677 20-12-2016 19:40:00 -0.1 C 4.47 g/m*3 -0.1 C 3.2 km/h
1678 20-12-2016 19:45:00 -0.1 C 4.47 g/m*3 -0.1 C 0 km/h
1679 20-12-2016 19:50:00 -0.2 C 4.44 g/m*3 -0.2 C 3.2 km/h
1680 20-12-2016 19:55:00 -0.2 C 4.44 g/m*3 -0.2 C 1.6 km/h
1681 20-12-2016 20:00:00 -0.3 C 4.41 g/m*3 -0.3 C 0 km/h
1682 20-12-2016 20:05:00 -0.3 C 4.41 g/m*3 -0.3 C 0 km/h
1683 20-12-2016 20:10:00 -0.3 C 4.41 g/m*3 -0.3 C 0 km/h
1684 20-12-2016 20:15:00 -0.3 C 4.41 g/m*3 -0.3 C 0 km/h
1685 20-12-2016 20:20:00 -0.4 C 4.38 g/m*3 -0.4 C 4.8 km/h
1686 20-12-2016 20:25:00 -0.4 C 4.38 g/m*3 -0.4 C 1.6 km/h
1687 20-12-2016 20:30:00 -0.6 C 4.32 g/m*3 -0.6 C 0 km/h
1688 20-12-2016 20:35:00 -0.6 C 4.32 g/m*3 -0.6 C 3.2 km/h
1689 20-12-2016 20:40:00 -0.6 C 4.32 g/m*3 -0.6 C 0 km/h
1690 20-12-2016 20:45:00 -0.7 C 4.29 g/m*3 -0.7 C 0 km/h
1691 20-12-2016 20:50:00 -0.7 C 4.29 g/m*3 -0.7 C 0 km/h
1692 20-12-2016 20:55:00 -0.8 C 4.26 g/m*3 -0.8 C 0 km/h
1693 20-12-2016 21:00:00 -0.8 C 4.31 g/m*3 -0.8 C 0 km/h
1694 20-12-2016 21:05:00 -0.8 C 4.26 g/m*3 -0.8 C 0 km/h
1695 20-12-2016 21:10:00 -0.8 C 4.26 g/m*3 -0.8 C 1.6 km/h
1696 20-12-2016 21:15:00 -0.9 C 4.28 g/m*3 -0.9 C 1.6 km/h
1697 20-12-2016 21:20:00 -0.9 C 4.28 g/m*3 -0.9 C 1.6 km/h
1698 20-12-2016 21:25:00 -0.9 C 4.28 g/m*3 -0.9 C 1.6 km/h
1699 20-12-2016 21:30:00 -0.8 C 4.31 g/m*3 -0.8 C 1.6 km/h
1700 20-12-2016 21:35:00 -0.9 C 4.28 g/m*3 -0.9 C 1.6 km/h
Sensor: Nr:Datum:Temp:Abs-Feuchte:Windchill:Wind:
Aussen-T/F 1701 20-12-2016 21:40:00 -0.9 C 4.28 g/m*3 -0.9 C 0 km/h
1702 20-12-2016 21:45:00 -0.9 C 4.28 g/m*3 -0.9 C 0 km/h
1703 20-12-2016 21:50:00 -0.9 C 4.28 g/m*3 -0.9 C 0 km/h
1704 20-12-2016 21:55:00 -0.9 C 4.28 g/m*3 -0.9 C 0 km/h
1705 20-12-2016 22:00:00 -0.9 C 4.28 g/m*3 -0.9 C 0 km/h
1706 20-12-2016 22:05:00 -0.9 C 4.28 g/m*3 -0.9 C 0 km/h
1707 20-12-2016 22:10:00 -1 C 4.25 g/m*3 -1 C 0 km/h
1708 20-12-2016 22:15:00 -1.1 C 4.22 g/m*3 -1.1 C 0 km/h
1709 20-12-2016 22:20:00 -1.1 C 4.22 g/m*3 -1.1 C 0 km/h
1710 20-12-2016 22:25:00 -1.2 C 4.19 g/m*3 -1.2 C 0 km/h
1711 20-12-2016 22:30:00 -1.2 C 4.19 g/m*3 -1.2 C 0 km/h
1712 20-12-2016 22:35:00 -1.2 C 4.19 g/m*3 -1.2 C 0 km/h
1713 20-12-2016 22:40:00 -1.3 C 4.16 g/m*3 -1.3 C 0 km/h
1714 20-12-2016 22:45:00 -1.3 C 4.16 g/m*3 -1.3 C 0 km/h
1715 20-12-2016 22:50:00 -1.2 C 4.24 g/m*3 -1.2 C 0 km/h
1716 20-12-2016 22:55:00 -1.2 C 4.24 g/m*3 -1.2 C 0 km/h
1717 20-12-2016 23:00:00 -1.1 C 4.26 g/m*3 -1.1 C 0 km/h
1718 20-12-2016 23:05:00 -1.1 C 4.26 g/m*3 -1.1 C 0 km/h
1719 20-12-2016 23:10:00 -1.1 C 4.26 g/m*3 -1.1 C 0 km/h
1720 20-12-2016 23:15:00 -1.1 C 4.26 g/m*3 -1.1 C 0 km/h
1721 20-12-2016 23:20:00 -1.1 C 4.26 g/m*3 -1.1 C 0 km/h
1722 20-12-2016 23:25:00 -1.2 C 4.24 g/m*3 -1.2 C 0 km/h
1723 20-12-2016 23:30:00 -1.2 C 4.24 g/m*3 -1.2 C 0 km/h
1724 20-12-2016 23:35:00 -1.2 C 4.24 g/m*3 -1.2 C 0 km/h
1725 20-12-2016 23:40:00 -1.2 C 4.24 g/m*3 -1.2 C 0 km/h
Sensor: Nr:Datum:Temp:Abs-Feuchte:Windchill:Wind:
Aussen-T/F 1726 20-12-2016 23:45:00 -1.2 C 4.24 g/m*3 -1.2 C 0 km/h
1727 20-12-2016 23:50:00 -1.2 C 4.24 g/m*3 -1.2 C 0 km/h
1728 20-12-2016 23:55:00 -1.2 C 4.24 g/m*3 -1.2 C 0 km/h
1729 21-12-2016 00:00:00 -1.2 C 4.24 g/m*3 -1.2 C 0 km/h
1730 21-12-2016 00:05:00 -1.2 C 4.24 g/m*3 -1.2 C 0 km/h
1731 21-12-2016 00:10:00 -1.2 C 4.24 g/m*3 -1.2 C 0 km/h
1732 21-12-2016 00:15:00 -1.2 C 4.24 g/m*3 -1.2 C 0 km/h
1733 21-12-2016 00:20:00 -1.1 C 4.26 g/m*3 -1.1 C 0 km/h
1734 21-12-2016 00:25:00 -1 C 4.29 g/m*3 -1 C 0 km/h
1735 21-12-2016 00:30:00 -0.9 C 4.32 g/m*3 -0.9 C 0 km/h
1736 21-12-2016 00:35:00 -0.9 C 4.32 g/m*3 -0.9 C 0 km/h
1737 21-12-2016 00:40:00 -0.8 C 4.35 g/m*3 -0.8 C 0 km/h
1738 21-12-2016 00:45:00 -0.8 C 4.35 g/m*3 -0.8 C 0 km/h
1739 21-12-2016 00:50:00 -0.8 C 4.35 g/m*3 -0.8 C 0 km/h
1740 21-12-2016 00:55:00 -0.8 C 4.35 g/m*3 -0.8 C 0 km/h
1741 21-12-2016 01:00:00 -0.7 C 4.39 g/m*3 -0.7 C 0 km/h
1742 21-12-2016 01:05:00 -0.7 C 4.43 g/m*3 -0.7 C 3.2 km/h
1743 21-12-2016 01:10:00 -0.6 C 4.46 g/m*3 -0.6 C 3.2 km/h
1744 21-12-2016 01:15:00 -0.4 C 4.52 g/m*3 -0.4 C 3.2 km/h
1745 21-12-2016 01:20:00 -0.2 C 4.59 g/m*3 -0.2 C 1.6 km/h
1746 21-12-2016 01:25:00 -0.1 C 4.62 g/m*3 -0.1 C 0 km/h
1747 21-12-2016 01:30:00 0.1 C 4.68 g/m*3 0.1 C 0 km/h
1748 21-12-2016 01:35:00 0.2 C 4.72 g/m*3 0.2 C 0 km/h
1749 21-12-2016 01:40:00 0.2 C 4.72 g/m*3 0.2 C 3.2 km/h
1750 21-12-2016 01:45:00 0.4 C 4.78 g/m*3 0.4 C 4.8 km/h
Sensor: Nr:Datum:Temp:Abs-Feuchte:Windchill:Wind:
Aussen-T/F 1751 21-12-2016 01:50:00 0.4 C 4.78 g/m*3 0.4 C 4.8 km/h
1752 21-12-2016 01:55:00 0.5 C 4.81 g/m*3 -1.6 C 6.4 km/h
1753 21-12-2016 02:00:00 0.6 C 4.8 g/m*3 -1.49 C 6.4 km/h
1754 21-12-2016 02:05:00 0.6 C 4.8 g/m*3 0.6 C 4.8 km/h
1755 21-12-2016 02:10:00 0.5 C 4.76 g/m*3 0.5 C 0 km/h
1756 21-12-2016 02:15:00 0.5 C 4.76 g/m*3 0.5 C 1.6 km/h
1757 21-12-2016 02:20:00 0.5 C 4.76 g/m*3 0.5 C 0 km/h
1758 21-12-2016 02:25:00 0.5 C 4.76 g/m*3 0.5 C 0 km/h
1759 21-12-2016 02:30:00 0.5 C 4.76 g/m*3 0.5 C 0 km/h
1760 21-12-2016 02:35:00 0.4 C 4.73 g/m*3 0.4 C 0 km/h
1761 21-12-2016 02:40:00 0.4 C 4.73 g/m*3 0.4 C 0 km/h
1762 21-12-2016 02:45:00 0.4 C 4.73 g/m*3 0.4 C 0 km/h
1763 21-12-2016 02:50:00 0.4 C 4.73 g/m*3 0.4 C 0 km/h
1764 21-12-2016 02:55:00 0.3 C 4.7 g/m*3 0.3 C 0 km/h
1765 21-12-2016 03:00:00 0.3 C 4.7 g/m*3 0.3 C 0 km/h
1766 21-12-2016 03:05:00 0.3 C 4.7 g/m*3 0.3 C 0 km/h
1767 21-12-2016 03:10:00 0.2 C 4.62 g/m*3 0.2 C 0 km/h
1768 21-12-2016 03:15:00 0.2 C 4.62 g/m*3 0.2 C 0 km/h
1769 21-12-2016 03:20:00 0.1 C 4.59 g/m*3 0.1 C 1.6 km/h
1770 21-12-2016 03:25:00 0 C 4.55 g/m*3 0 C 3.2 km/h
1771 21-12-2016 03:30:00 0 C 4.55 g/m*3 0 C 1.6 km/h
1772 21-12-2016 03:35:00 -0.1 C 4.52 g/m*3 -0.1 C 3.2 km/h
1773 21-12-2016 03:40:00 -0.1 C 4.52 g/m*3 -0.1 C 3.2 km/h
1774 21-12-2016 03:45:00 -0.1 C 4.52 g/m*3 -0.1 C 0 km/h
1775 21-12-2016 03:50:00 -0.1 C 4.52 g/m*3 -0.1 C 0 km/h
Sensor: Nr:Datum:Temp:Abs-Feuchte:Windchill:Wind:
Aussen-T/F 1776 21-12-2016 03:55:00 -0.1 C 4.52 g/m*3 -0.1 C 3.2 km/h
1777 21-12-2016 04:00:00 -0.1 C 4.52 g/m*3 -0.1 C 1.6 km/h
1778 21-12-2016 04:05:00 -0.1 C 4.52 g/m*3 -0.1 C 3.2 km/h
1779 21-12-2016 04:10:00 -0.2 C 4.49 g/m*3 -0.2 C 0 km/h
1780 21-12-2016 04:15:00 -0.2 C 4.49 g/m*3 -0.2 C 3.2 km/h
1781 21-12-2016 04:20:00 -0.1 C 4.52 g/m*3 -0.1 C 0 km/h
1782 21-12-2016 04:25:00 -0.1 C 4.57 g/m*3 -0.1 C 0 km/h
1783 21-12-2016 04:30:00 0 C 4.6 g/m*3 0 C 0 km/h
1784 21-12-2016 04:35:00 0 C 4.6 g/m*3 0 C 0 km/h
1785 21-12-2016 04:40:00 0.1 C 4.63 g/m*3 0.1 C 0 km/h
1786 21-12-2016 04:45:00 0 C 4.6 g/m*3 0 C 0 km/h
1787 21-12-2016 04:50:00 0 C 4.55 g/m*3 0 C 0 km/h
1788 21-12-2016 04:55:00 -0.1 C 4.52 g/m*3 -0.1 C 0 km/h
1789 21-12-2016 05:00:00 -0.1 C 4.52 g/m*3 -0.1 C 0 km/h
1790 21-12-2016 05:05:00 -0.2 C 4.49 g/m*3 -0.2 C 0 km/h
1791 21-12-2016 05:10:00 -0.2 C 4.49 g/m*3 -0.2 C 0 km/h
1792 21-12-2016 05:15:00 -0.2 C 4.49 g/m*3 -0.2 C 0 km/h
1793 21-12-2016 05:20:00 -0.2 C 4.49 g/m*3 -0.2 C 0 km/h
1794 21-12-2016 05:25:00 -0.1 C 4.57 g/m*3 -0.1 C 0 km/h
1795 21-12-2016 05:30:00 -0.1 C 4.57 g/m*3 -0.1 C 0 km/h
1796 21-12-2016 05:35:00 0.1 C 4.63 g/m*3 0.1 C 0 km/h
1797 21-12-2016 05:40:00 0.1 C 4.63 g/m*3 0.1 C 0 km/h
1798 21-12-2016 05:45:00 0.2 C 4.67 g/m*3 0.2 C 0 km/h
1799 21-12-2016 05:50:00 0.2 C 4.67 g/m*3 0.2 C 0 km/h
1800 21-12-2016 05:55:00 0.2 C 4.67 g/m*3 0.2 C 0 km/h
Sensor: Nr:Datum:Temp:Abs-Feuchte:Windchill:Wind:
Aussen-T/F 1801 21-12-2016 06:00:00 0.3 C 4.7 g/m*3 0.3 C 0 km/h
1802 21-12-2016 06:05:00 0.3 C 4.7 g/m*3 0.3 C 0 km/h
1803 21-12-2016 06:10:00 0.3 C 4.7 g/m*3 0.3 C 0 km/h
1804 21-12-2016 06:15:00 0.3 C 4.7 g/m*3 0.3 C 0 km/h
1805 21-12-2016 06:20:00 0.4 C 4.73 g/m*3 0.4 C 0 km/h
1806 21-12-2016 06:25:00 0.4 C 4.73 g/m*3 0.4 C 0 km/h
1807 21-12-2016 06:30:00 0.4 C 4.73 g/m*3 0.4 C 0 km/h
1808 21-12-2016 06:35:00 0.5 C 4.76 g/m*3 0.5 C 0 km/h
1809 21-12-2016 06:40:00 0.6 C 4.8 g/m*3 0.6 C 0 km/h
1810 21-12-2016 06:45:00 0.6 C 4.8 g/m*3 0.6 C 0 km/h
1811 21-12-2016 06:50:00 0.6 C 4.8 g/m*3 0.6 C 0 km/h
1812 21-12-2016 06:55:00 0.7 C 4.83 g/m*3 0.7 C 0 km/h
1813 21-12-2016 07:00:00 0.7 C 4.83 g/m*3 0.7 C 0 km/h
1814 21-12-2016 07:05:00 0.7 C 4.83 g/m*3 0.7 C 0 km/h
1815 21-12-2016 07:10:00 0.7 C 4.83 g/m*3 0.7 C 0 km/h
1816 21-12-2016 07:15:00 0.7 C 4.83 g/m*3 0.7 C 0 km/h
1817 21-12-2016 07:20:00 0.7 C 4.83 g/m*3 0.7 C 0 km/h
1818 21-12-2016 07:25:00 0.8 C 4.86 g/m*3 0.8 C 0 km/h
1819 21-12-2016 07:30:00 0.8 C 4.81 g/m*3 0.8 C 0 km/h
1820 21-12-2016 07:35:00 0.8 C 4.81 g/m*3 0.8 C 0 km/h
1821 21-12-2016 07:40:00 0.8 C 4.86 g/m*3 0.8 C 1.6 km/h
1822 21-12-2016 07:45:00 0.9 C 4.85 g/m*3 0.9 C 1.6 km/h
1823 21-12-2016 07:50:00 0.9 C 4.85 g/m*3 0.9 C 3.2 km/h
1824 21-12-2016 07:55:00 0.9 C 4.9 g/m*3 0.9 C 0 km/h
1825 21-12-2016 08:00:00 1 C 4.93 g/m*3 1 C 3.2 km/h
Sensor: Nr:Datum:Temp:Abs-Feuchte:Windchill:Wind:
Aussen-T/F 1826 21-12-2016 08:05:00 1.1 C 4.91 g/m*3 1.1 C 0 km/h
1827 21-12-2016 08:10:00 1.1 C 4.91 g/m*3 1.1 C 3.2 km/h
1828 21-12-2016 08:15:00 1.1 C 4.91 g/m*3 1.1 C 0 km/h
1829 21-12-2016 08:20:00 1.2 C 4.95 g/m*3 1.2 C 3.2 km/h
1830 21-12-2016 08:25:00 1.2 C 4.95 g/m*3 1.2 C 0 km/h
1831 21-12-2016 08:30:00 1.2 C 4.95 g/m*3 1.2 C 1.6 km/h
1832 21-12-2016 08:35:00 1.2 C 4.95 g/m*3 1.2 C 0 km/h
1833 21-12-2016 08:40:00 1.3 C 4.98 g/m*3 1.3 C 3.2 km/h
1834 21-12-2016 08:45:00 1.3 C 4.93 g/m*3 1.3 C 3.2 km/h
1835 21-12-2016 08:50:00 1.3 C 4.93 g/m*3 1.3 C 1.6 km/h
1836 21-12-2016 08:55:00 1.3 C 4.93 g/m*3 1.3 C 1.6 km/h
1837 21-12-2016 09:00:00 1.3 C 4.93 g/m*3 1.3 C 0 km/h
1838 21-12-2016 09:05:00 1.4 C 4.96 g/m*3 1.4 C 1.6 km/h
1839 21-12-2016 09:10:00 1.4 C 4.96 g/m*3 1.4 C 3.2 km/h
1840 21-12-2016 09:15:00 1.4 C 4.96 g/m*3 1.4 C 1.6 km/h
1841 21-12-2016 09:20:00 1.4 C 4.96 g/m*3 1.4 C 0 km/h
1842 21-12-2016 09:25:00 1.4 C 4.96 g/m*3 1.4 C 0 km/h
1843 21-12-2016 09:30:00 1.5 C 4.99 g/m*3 1.5 C 0 km/h
1844 21-12-2016 09:35:00 1.5 C 4.99 g/m*3 1.5 C 0 km/h
1845 21-12-2016 09:40:00 1.6 C 5.03 g/m*3 1.6 C 0 km/h
1846 21-12-2016 09:45:00 1.6 C 5.03 g/m*3 1.6 C 0 km/h
1847 21-12-2016 09:50:00 1.6 C 5.03 g/m*3 1.6 C 0 km/h
1848 21-12-2016 09:55:00 1.7 C 5.06 g/m*3 1.7 C 0 km/h
1849 21-12-2016 10:00:00 1.7 C 5.06 g/m*3 1.7 C 0 km/h
1850 21-12-2016 10:05:00 1.8 C 5.1 g/m*3 1.8 C 0 km/h
Sensor: Nr:Datum:Temp:Abs-Feuchte:Windchill:Wind:
Aussen-T/F 1851 21-12-2016 10:10:00 1.8 C 5.1 g/m*3 1.8 C 0 km/h
1852 21-12-2016 10:15:00 1.8 C 5.1 g/m*3 1.8 C 0 km/h
1853 21-12-2016 10:20:00 1.9 C 5.13 g/m*3 1.9 C 0 km/h
1854 21-12-2016 10:25:00 2 C 5.17 g/m*3 2 C 3.2 km/h
1855 21-12-2016 10:30:00 2.2 C 5.24 g/m*3 2.2 C 1.6 km/h
1856 21-12-2016 10:35:00 2.2 C 5.24 g/m*3 2.2 C 1.6 km/h
1857 21-12-2016 10:40:00 2.3 C 5.27 g/m*3 2.3 C 1.6 km/h
1858 21-12-2016 10:45:00 2.4 C 5.31 g/m*3 2.4 C 0 km/h
1859 21-12-2016 10:50:00 2.4 C 5.31 g/m*3 2.4 C 1.6 km/h
1860 21-12-2016 10:55:00 2.5 C 5.35 g/m*3 2.5 C 0 km/h
1861 21-12-2016 11:00:00 2.6 C 5.38 g/m*3 2.6 C 1.6 km/h
1862 21-12-2016 11:05:00 2.6 C 5.38 g/m*3 2.6 C 1.6 km/h
1863 21-12-2016 11:10:00 2.7 C 5.42 g/m*3 2.7 C 1.6 km/h
1864 21-12-2016 11:15:00 2.7 C 5.36 g/m*3 2.7 C 0 km/h
1865 21-12-2016 11:20:00 2.7 C 5.36 g/m*3 2.7 C 0 km/h
1866 21-12-2016 11:25:00 2.7 C 5.36 g/m*3 2.7 C 0 km/h
1867 21-12-2016 11:30:00 2.8 C 5.4 g/m*3 2.8 C 0 km/h
1868 21-12-2016 11:35:00 2.8 C 5.4 g/m*3 2.8 C 4.8 km/h
1869 21-12-2016 11:40:00 2.9 C 5.43 g/m*3 2.9 C 4.8 km/h
1870 21-12-2016 11:45:00 3 C 5.47 g/m*3 3 C 1.6 km/h
1871 21-12-2016 11:50:00 3.1 C 5.51 g/m*3 3.1 C 0 km/h
1872 21-12-2016 11:55:00 3.2 C 5.54 g/m*3 3.2 C 0 km/h
1873 21-12-2016 12:00:00 3.2 C 5.48 g/m*3 3.2 C 0 km/h
1874 21-12-2016 12:05:00 3.2 C 5.48 g/m*3 3.2 C 1.6 km/h
1875 21-12-2016 12:10:00 3.3 C 5.52 g/m*3 3.3 C 0 km/h
Sensor: Nr:Datum:Temp:Abs-Feuchte:Windchill:Wind:
Aussen-T/F 1876 21-12-2016 12:15:00 3.3 C 5.52 g/m*3 3.3 C 0 km/h
1877 21-12-2016 12:20:00 3.3 C 5.52 g/m*3 3.3 C 0 km/h
1878 21-12-2016 12:25:00 3.4 C 5.5 g/m*3 3.4 C 0 km/h
1879 21-12-2016 12:30:00 3.4 C 5.56 g/m*3 3.4 C 0 km/h
1880 21-12-2016 12:35:00 3.5 C 5.6 g/m*3 3.5 C 0 km/h
1881 21-12-2016 12:40:00 3.5 C 5.53 g/m*3 3.5 C 0 km/h
1882 21-12-2016 12:45:00 3.6 C 5.57 g/m*3 3.6 C 0 km/h
1883 21-12-2016 12:50:00 3.6 C 5.57 g/m*3 3.6 C 0 km/h
1884 21-12-2016 12:55:00 3.7 C 5.61 g/m*3 3.7 C 0 km/h
1885 21-12-2016 13:00:00 3.7 C 5.61 g/m*3 3.7 C 3.2 km/h
1886 21-12-2016 13:05:00 3.7 C 5.61 g/m*3 3.7 C 3.2 km/h
1887 21-12-2016 13:10:00 3.8 C 5.65 g/m*3 3.8 C 1.6 km/h
1888 21-12-2016 13:15:00 3.8 C 5.65 g/m*3 3.8 C 0 km/h
1889 21-12-2016 13:20:00 3.8 C 5.65 g/m*3 3.8 C 1.6 km/h
1890 21-12-2016 13:25:00 3.9 C 5.68 g/m*3 3.9 C 0 km/h
1891 21-12-2016 13:30:00 4 C 5.72 g/m*3 4 C 1.6 km/h
1892 21-12-2016 13:35:00 4.1 C 5.76 g/m*3 4.1 C 0 km/h
1893 21-12-2016 13:40:00 4.1 C 5.7 g/m*3 4.1 C 3.2 km/h
1894 21-12-2016 13:45:00 4.1 C 5.7 g/m*3 4.1 C 0 km/h
1895 21-12-2016 13:50:00 4.1 C 5.7 g/m*3 4.1 C 3.2 km/h
1896 21-12-2016 13:55:00 4.1 C 5.7 g/m*3 4.1 C 3.2 km/h
1897 21-12-2016 14:00:00 4.1 C 5.7 g/m*3 4.1 C 0 km/h
1898 21-12-2016 14:05:00 4.1 C 5.7 g/m*3 4.1 C 0 km/h
1899 21-12-2016 14:10:00 4.2 C 5.73 g/m*3 4.2 C 3.2 km/h
1900 21-12-2016 14:15:00 4.2 C 5.73 g/m*3 4.2 C 0 km/h
Sensor: Nr:Datum:Temp:Abs-Feuchte:Windchill:Wind:
Aussen-T/F 1901 21-12-2016 14:20:00 4.2 C 5.73 g/m*3 4.2 C 3.2 km/h
1902 21-12-2016 14:25:00 4.3 C 5.77 g/m*3 4.3 C 0 km/h
1903 21-12-2016 14:30:00 4.3 C 5.77 g/m*3 4.3 C 3.2 km/h
1904 21-12-2016 14:35:00 4.4 C 5.81 g/m*3 4.4 C 1.6 km/h
1905 21-12-2016 14:40:00 4.4 C 5.81 g/m*3 4.4 C 3.2 km/h
1906 21-12-2016 14:45:00 4.5 C 5.85 g/m*3 4.5 C 3.2 km/h
1907 21-12-2016 14:50:00 4.6 C 5.89 g/m*3 4.6 C 0 km/h
1908 21-12-2016 14:55:00 4.6 C 5.89 g/m*3 4.6 C 4.8 km/h
1909 21-12-2016 15:00:00 4.6 C 5.89 g/m*3 4.6 C 0 km/h
1910 21-12-2016 15:05:00 4.6 C 5.82 g/m*3 3.13 C 6.4 km/h
1911 21-12-2016 15:10:00 4.6 C 5.82 g/m*3 3.13 C 6.4 km/h
1912 21-12-2016 15:15:00 4.6 C 5.82 g/m*3 4.6 C 4.8 km/h
1913 21-12-2016 15:20:00 4.6 C 5.82 g/m*3 4.6 C 4.8 km/h
1914 21-12-2016 15:25:00 4.7 C 5.86 g/m*3 4.7 C 1.6 km/h
1915 21-12-2016 15:30:00 4.7 C 5.86 g/m*3 2.03 C 11.3 km/h
1916 21-12-2016 15:35:00 4.7 C 5.86 g/m*3 4.7 C 3.2 km/h
1917 21-12-2016 15:40:00 4.7 C 5.8 g/m*3 4.7 C 4.8 km/h
1918 21-12-2016 15:45:00 4.7 C 5.8 g/m*3 4.7 C 1.6 km/h
1919 21-12-2016 15:50:00 4.6 C 5.76 g/m*3 4.6 C 4.8 km/h
1920 21-12-2016 15:55:00 4.6 C 5.76 g/m*3 4.6 C 1.6 km/h
1921 21-12-2016 16:00:00 4.5 C 5.72 g/m*3 2.52 C 8.1 km/h
1922 21-12-2016 16:05:00 4.4 C 5.68 g/m*3 4.4 C 1.6 km/h
1923 21-12-2016 16:10:00 4.4 C 5.68 g/m*3 4.4 C 0 km/h
1924 21-12-2016 16:15:00 4.3 C 5.71 g/m*3 4.3 C 0 km/h
1925 21-12-2016 16:20:00 4.3 C 5.71 g/m*3 4.3 C 0 km/h
Sensor: Nr:Datum:Temp:Abs-Feuchte:Windchill:Wind:
Aussen-T/F 1926 21-12-2016 16:25:00 4.2 C 5.73 g/m*3 4.2 C 0 km/h
1927 21-12-2016 16:30:00 4.2 C 5.73 g/m*3 4.2 C 1.6 km/h
1928 21-12-2016 16:35:00 4.2 C 5.8 g/m*3 4.2 C 1.6 km/h
1929 21-12-2016 16:40:00 4.1 C 5.7 g/m*3 4.1 C 3.2 km/h
1930 21-12-2016 16:45:00 4.1 C 5.7 g/m*3 4.1 C 1.6 km/h
1931 21-12-2016 16:50:00 4.1 C 5.7 g/m*3 4.1 C 1.6 km/h
1932 21-12-2016 16:55:00 4.1 C 5.7 g/m*3 4.1 C 0 km/h
1933 21-12-2016 17:00:00 4.1 C 5.7 g/m*3 4.1 C 0 km/h
1934 21-12-2016 17:05:00 4.1 C 5.7 g/m*3 4.1 C 0 km/h
1935 21-12-2016 17:10:00 4.1 C 5.76 g/m*3 4.1 C 0 km/h
1936 21-12-2016 17:15:00 4.1 C 5.76 g/m*3 4.1 C 0 km/h
1937 21-12-2016 17:20:00 3.9 C 5.68 g/m*3 3.9 C 0 km/h
1938 21-12-2016 17:25:00 3.9 C 5.68 g/m*3 3.9 C 1.6 km/h
1939 21-12-2016 17:30:00 3.9 C 5.68 g/m*3 3.9 C 1.6 km/h
1940 21-12-2016 17:35:00 3.8 C 5.71 g/m*3 3.8 C 0 km/h
1941 21-12-2016 17:40:00 3.8 C 5.71 g/m*3 3.8 C 0 km/h
1942 21-12-2016 17:45:00 3.8 C 5.71 g/m*3 3.8 C 1.6 km/h
1943 21-12-2016 17:50:00 3.8 C 5.71 g/m*3 3.8 C 0 km/h
1944 21-12-2016 17:55:00 3.8 C 5.71 g/m*3 3.8 C 0 km/h
1945 21-12-2016 18:00:00 3.8 C 5.71 g/m*3 3.8 C 0 km/h
1946 21-12-2016 18:05:00 3.8 C 5.71 g/m*3 3.8 C 0 km/h
1947 21-12-2016 18:10:00 3.9 C 5.68 g/m*3 3.9 C 0 km/h
1948 21-12-2016 18:15:00 3.9 C 5.68 g/m*3 3.9 C 1.6 km/h
1949 21-12-2016 18:20:00 3.9 C 5.68 g/m*3 3.9 C 0 km/h
1950 21-12-2016 18:25:00 3.9 C 5.68 g/m*3 3.9 C 1.6 km/h
Sensor: Nr:Datum:Temp:Abs-Feuchte:Windchill:Wind:
Aussen-T/F 1951 21-12-2016 18:30:00 4 C 5.72 g/m*3 4 C 0 km/h
1952 21-12-2016 18:35:00 4 C 5.72 g/m*3 4 C 0 km/h
1953 21-12-2016 18:40:00 4 C 5.72 g/m*3 4 C 1.6 km/h
1954 21-12-2016 18:45:00 4 C 5.72 g/m*3 4 C 1.6 km/h
1955 21-12-2016 18:50:00 4 C 5.66 g/m*3 4 C 0 km/h
1956 21-12-2016 18:55:00 4.1 C 5.7 g/m*3 4.1 C 0 km/h
1957 21-12-2016 19:00:00 4 C 5.66 g/m*3 4 C 1.6 km/h
1958 21-12-2016 19:05:00 4 C 5.66 g/m*3 4 C 1.6 km/h
1959 21-12-2016 19:10:00 4 C 5.66 g/m*3 4 C 3.2 km/h
1960 21-12-2016 19:15:00 4 C 5.66 g/m*3 4 C 3.2 km/h
1961 21-12-2016 19:20:00 4 C 5.66 g/m*3 4 C 4.8 km/h
1962 21-12-2016 19:25:00 3.9 C 5.62 g/m*3 3.9 C 3.2 km/h
1963 21-12-2016 19:30:00 3.9 C 5.56 g/m*3 3.9 C 3.2 km/h
1964 21-12-2016 19:35:00 3.9 C 5.62 g/m*3 3.9 C 1.6 km/h
1965 21-12-2016 19:40:00 3.8 C 5.58 g/m*3 1.7 C 8.1 km/h
1966 21-12-2016 19:45:00 3.8 C 5.58 g/m*3 2.21 C 6.4 km/h
1967 21-12-2016 19:50:00 3.8 C 5.58 g/m*3 3.8 C 1.6 km/h
1968 21-12-2016 19:55:00 3.8 C 5.58 g/m*3 3.8 C 3.2 km/h
1969 21-12-2016 20:00:00 3.8 C 5.58 g/m*3 3.8 C 0 km/h
1970 21-12-2016 20:05:00 3.7 C 5.55 g/m*3 3.7 C 3.2 km/h
1971 21-12-2016 20:10:00 3.7 C 5.55 g/m*3 3.7 C 3.2 km/h
1972 21-12-2016 20:15:00 3.6 C 5.51 g/m*3 3.6 C 0 km/h
1973 21-12-2016 20:20:00 3.6 C 5.51 g/m*3 3.6 C 1.6 km/h
1974 21-12-2016 20:25:00 3.5 C 5.53 g/m*3 3.5 C 1.6 km/h
1975 21-12-2016 20:30:00 3.6 C 5.57 g/m*3 3.6 C 0 km/h
Sensor: Nr:Datum:Temp:Abs-Feuchte:Windchill:Wind:
Aussen-T/F 1976 21-12-2016 20:35:00 3.5 C 5.53 g/m*3 3.5 C 0 km/h
1977 21-12-2016 20:40:00 3.5 C 5.53 g/m*3 3.5 C 4.8 km/h
1978 21-12-2016 20:45:00 3.5 C 5.53 g/m*3 3.5 C 1.6 km/h
1979 21-12-2016 20:50:00 3.5 C 5.53 g/m*3 3.5 C 0 km/h
1980 21-12-2016 20:55:00 3.6 C 5.57 g/m*3 3.6 C 1.6 km/h
1981 21-12-2016 21:00:00 3.6 C 5.51 g/m*3 3.6 C 3.2 km/h
1982 21-12-2016 21:05:00 3.6 C 5.51 g/m*3 3.6 C 0 km/h
1983 21-12-2016 21:10:00 3.6 C 5.57 g/m*3 3.6 C 1.6 km/h
1984 21-12-2016 21:15:00 3.6 C 5.51 g/m*3 3.6 C 0 km/h
1985 21-12-2016 21:20:00 3.6 C 5.51 g/m*3 3.6 C 1.6 km/h
1986 21-12-2016 21:25:00 3.6 C 5.51 g/m*3 3.6 C 1.6 km/h
1987 21-12-2016 21:30:00 3.5 C 5.47 g/m*3 3.5 C 1.6 km/h
1988 21-12-2016 21:35:00 3.4 C 5.44 g/m*3 3.4 C 0 km/h
1989 21-12-2016 21:40:00 3.4 C 5.44 g/m*3 3.4 C 0 km/h
1990 21-12-2016 21:45:00 3.4 C 5.44 g/m*3 3.4 C 0 km/h
1991 21-12-2016 21:50:00 3.4 C 5.44 g/m*3 3.4 C 0 km/h
1992 21-12-2016 21:55:00 3.4 C 5.5 g/m*3 3.4 C 0 km/h
1993 21-12-2016 22:00:00 3.4 C 5.5 g/m*3 3.4 C 0 km/h
1994 21-12-2016 22:05:00 3.4 C 5.5 g/m*3 3.4 C 0 km/h
1995 21-12-2016 22:10:00 3.4 C 5.5 g/m*3 3.4 C 0 km/h
1996 21-12-2016 22:15:00 3.4 C 5.56 g/m*3 3.4 C 1.6 km/h
1997 21-12-2016 22:20:00 3.4 C 5.56 g/m*3 3.4 C 0 km/h
1998 21-12-2016 22:25:00 3.4 C 5.56 g/m*3 3.4 C 0 km/h
1999 21-12-2016 22:30:00 3.4 C 5.56 g/m*3 3.4 C 0 km/h
2000 21-12-2016 22:35:00 3.3 C 5.52 g/m*3 3.3 C 0 km/h
Sensor: Nr:Datum:Temp:Abs-Feuchte:Windchill:Wind:
Aussen-T/F 2001 21-12-2016 22:40:00 3.3 C 5.52 g/m*3 3.3 C 0 km/h
2002 21-12-2016 22:45:00 3.3 C 5.52 g/m*3 3.3 C 0 km/h
2003 21-12-2016 22:50:00 3.3 C 5.52 g/m*3 3.3 C 0 km/h
2004 21-12-2016 22:55:00 3.3 C 5.52 g/m*3 3.3 C 0 km/h
2005 21-12-2016 23:00:00 3.3 C 5.52 g/m*3 3.3 C 0 km/h
2006 21-12-2016 23:05:00 3.3 C 5.52 g/m*3 3.3 C 0 km/h
2007 21-12-2016 23:10:00 3.3 C 5.52 g/m*3 3.3 C 0 km/h
2008 21-12-2016 23:15:00 3.3 C 5.58 g/m*3 3.3 C 0 km/h
2009 21-12-2016 23:20:00 3.3 C 5.58 g/m*3 3.3 C 0 km/h
2010 21-12-2016 23:25:00 3.3 C 5.58 g/m*3 3.3 C 0 km/h
2011 21-12-2016 23:30:00 3.3 C 5.58 g/m*3 3.3 C 0 km/h
2012 21-12-2016 23:35:00 3.3 C 5.58 g/m*3 3.3 C 0 km/h
2013 21-12-2016 23:40:00 3.3 C 5.58 g/m*3 3.3 C 0 km/h
2014 21-12-2016 23:45:00 3.3 C 5.58 g/m*3 3.3 C 0 km/h
2015 21-12-2016 23:50:00 3.3 C 5.58 g/m*3 3.3 C 0 km/h
2016 21-12-2016 23:55:00 3.3 C 5.58 g/m*3 3.3 C 1.6 km/h
2017 22-12-2016 00:00:00 3.4 C 5.62 g/m*3 3.4 C 0 km/h
2018 22-12-2016 00:05:00 3.4 C 5.56 g/m*3 3.4 C 3.2 km/h
2019 22-12-2016 00:10:00 3.4 C 5.56 g/m*3 3.4 C 0 km/h
2020 22-12-2016 00:15:00 3.4 C 5.56 g/m*3 3.4 C 1.6 km/h
2021 22-12-2016 00:20:00 3.5 C 5.6 g/m*3 3.5 C 0 km/h
2022 22-12-2016 00:25:00 3.5 C 5.6 g/m*3 3.5 C 1.6 km/h
2023 22-12-2016 00:30:00 3.6 C 5.63 g/m*3 3.6 C 0 km/h
2024 22-12-2016 00:35:00 3.6 C 5.57 g/m*3 3.6 C 1.6 km/h
2025 22-12-2016 00:40:00 3.6 C 5.57 g/m*3 3.6 C 0 km/h
Sensor: Nr:Datum:Temp:Abs-Feuchte:Windchill:Wind:
Aussen-T/F 2026 22-12-2016 00:45:00 3.6 C 5.57 g/m*3 3.6 C 0 km/h
2027 22-12-2016 00:50:00 3.6 C 5.57 g/m*3 3.6 C 4.8 km/h
2028 22-12-2016 00:55:00 3.7 C 5.61 g/m*3 3.7 C 0 km/h
2029 22-12-2016 01:00:00 3.7 C 5.61 g/m*3 3.7 C 0 km/h
2030 22-12-2016 01:05:00 3.7 C 5.61 g/m*3 3.7 C 1.6 km/h
2031 22-12-2016 01:10:00 3.6 C 5.57 g/m*3 3.6 C 1.6 km/h
2032 22-12-2016 01:15:00 3.6 C 5.57 g/m*3 3.6 C 1.6 km/h
2033 22-12-2016 01:20:00 3.7 C 5.61 g/m*3 3.7 C 3.2 km/h
2034 22-12-2016 01:25:00 3.7 C 5.61 g/m*3 3.7 C 3.2 km/h
2035 22-12-2016 01:30:00 3.7 C 5.55 g/m*3 3.7 C 0 km/h
2036 22-12-2016 01:35:00 3.7 C 5.55 g/m*3 3.7 C 0 km/h
2037 22-12-2016 01:40:00 3.7 C 5.55 g/m*3 3.7 C 0 km/h
2038 22-12-2016 01:45:00 3.6 C 5.57 g/m*3 3.6 C 1.6 km/h
2039 22-12-2016 01:50:00 3.6 C 5.51 g/m*3 3.6 C 1.6 km/h
2040 22-12-2016 01:55:00 3.6 C 5.51 g/m*3 3.6 C 0 km/h
2041 22-12-2016 02:00:00 3.6 C 5.51 g/m*3 3.6 C 0 km/h
2042 22-12-2016 02:05:00 3.6 C 5.51 g/m*3 3.6 C 1.6 km/h
2043 22-12-2016 02:10:00 3.7 C 5.55 g/m*3 3.7 C 1.6 km/h
2044 22-12-2016 02:15:00 3.7 C 5.55 g/m*3 3.7 C 0 km/h
2045 22-12-2016 02:20:00 3.7 C 5.55 g/m*3 3.7 C 0 km/h
2046 22-12-2016 02:25:00 3.7 C 5.55 g/m*3 3.7 C 3.2 km/h
2047 22-12-2016 02:30:00 3.7 C 5.55 g/m*3 3.7 C 4.8 km/h
2048 22-12-2016 02:35:00 3.8 C 5.58 g/m*3 3.8 C 4.8 km/h
2049 22-12-2016 02:40:00 3.8 C 5.52 g/m*3 3.8 C 0 km/h
2050 22-12-2016 02:45:00 3.8 C 5.58 g/m*3 3.8 C 4.8 km/h
Sensor: Nr:Datum:Temp:Abs-Feuchte:Windchill:Wind:
Aussen-T/F 2051 22-12-2016 02:50:00 3.8 C 5.58 g/m*3 3.8 C 1.6 km/h
2052 22-12-2016 02:55:00 3.8 C 5.58 g/m*3 3.8 C 1.6 km/h
2053 22-12-2016 03:00:00 3.7 C 5.55 g/m*3 3.7 C 3.2 km/h
2054 22-12-2016 03:05:00 3.7 C 5.55 g/m*3 3.7 C 3.2 km/h
2055 22-12-2016 03:10:00 3.7 C 5.55 g/m*3 3.7 C 1.6 km/h
2056 22-12-2016 03:15:00 3.7 C 5.55 g/m*3 3.7 C 0 km/h
2057 22-12-2016 03:20:00 3.6 C 5.51 g/m*3 3.6 C 1.6 km/h
2058 22-12-2016 03:25:00 3.6 C 5.51 g/m*3 3.6 C 4.8 km/h
2059 22-12-2016 03:30:00 3.6 C 5.51 g/m*3 3.6 C 1.6 km/h
2060 22-12-2016 03:35:00 3.6 C 5.51 g/m*3 3.6 C 1.6 km/h
2061 22-12-2016 03:40:00 3.6 C 5.51 g/m*3 3.6 C 1.6 km/h
2062 22-12-2016 03:45:00 3.6 C 5.51 g/m*3 3.6 C 3.2 km/h
2063 22-12-2016 03:50:00 3.6 C 5.51 g/m*3 3.6 C 4.8 km/h
2064 22-12-2016 03:55:00 3.6 C 5.51 g/m*3 3.6 C 4.8 km/h
2065 22-12-2016 04:00:00 3.6 C 5.51 g/m*3 3.6 C 3.2 km/h
2066 22-12-2016 04:05:00 3.6 C 5.51 g/m*3 3.6 C 4.8 km/h
2067 22-12-2016 04:10:00 3.6 C 5.51 g/m*3 3.6 C 1.6 km/h
2068 22-12-2016 04:15:00 3.7 C 5.55 g/m*3 3.7 C 1.6 km/h
2069 22-12-2016 04:20:00 3.6 C 5.51 g/m*3 3.6 C 3.2 km/h
2070 22-12-2016 04:25:00 3.7 C 5.55 g/m*3 3.7 C 1.6 km/h
2071 22-12-2016 04:30:00 3.6 C 5.51 g/m*3 3.6 C 1.6 km/h
2072 22-12-2016 04:35:00 3.7 C 5.61 g/m*3 3.7 C 3.2 km/h
2073 22-12-2016 04:40:00 3.7 C 5.55 g/m*3 3.7 C 4.8 km/h
2074 22-12-2016 04:45:00 3.7 C 5.61 g/m*3 3.7 C 1.6 km/h
2075 22-12-2016 04:50:00 3.7 C 5.61 g/m*3 3.7 C 0 km/h
Sensor: Nr:Datum:Temp:Abs-Feuchte:Windchill:Wind:
Aussen-T/F 2076 22-12-2016 04:55:00 3.7 C 5.61 g/m*3 3.7 C 0 km/h
2077 22-12-2016 05:00:00 3.7 C 5.61 g/m*3 3.7 C 3.2 km/h
2078 22-12-2016 05:05:00 3.6 C 5.57 g/m*3 3.6 C 0 km/h
2079 22-12-2016 05:10:00 3.6 C 5.57 g/m*3 3.6 C 1.6 km/h
2080 22-12-2016 05:15:00 3.6 C 5.57 g/m*3 3.6 C 0 km/h
2081 22-12-2016 05:20:00 3.5 C 5.53 g/m*3 3.5 C 1.6 km/h
2082 22-12-2016 05:25:00 3.4 C 5.5 g/m*3 3.4 C 0 km/h
2083 22-12-2016 05:30:00 3.4 C 5.5 g/m*3 3.4 C 0 km/h
2084 22-12-2016 05:35:00 3.3 C 5.46 g/m*3 3.3 C 0 km/h
2085 22-12-2016 05:40:00 3.3 C 5.46 g/m*3 3.3 C 0 km/h
2086 22-12-2016 05:45:00 3.2 C 5.48 g/m*3 3.2 C 0 km/h
2087 22-12-2016 05:50:00 3.2 C 5.48 g/m*3 3.2 C 0 km/h
2088 22-12-2016 05:55:00 3.3 C 5.58 g/m*3 3.3 C 0 km/h
2089 22-12-2016 06:00:00 3.3 C 5.58 g/m*3 3.3 C 0 km/h
2090 22-12-2016 06:05:00 3.3 C 5.58 g/m*3 3.3 C 0 km/h
2091 22-12-2016 06:10:00 3.3 C 5.58 g/m*3 3.3 C 0 km/h
2092 22-12-2016 06:15:00 3.3 C 5.58 g/m*3 3.3 C 0 km/h
2093 22-12-2016 06:20:00 3.3 C 5.58 g/m*3 3.3 C 0 km/h
2094 22-12-2016 06:25:00 3.3 C 5.58 g/m*3 3.3 C 0 km/h
2095 22-12-2016 06:30:00 3.4 C 5.62 g/m*3 3.4 C 0 km/h
2096 22-12-2016 06:35:00 3.4 C 5.62 g/m*3 3.4 C 0 km/h
2097 22-12-2016 06:40:00 3.4 C 5.62 g/m*3 3.4 C 1.6 km/h
2098 22-12-2016 06:45:00 3.4 C 5.62 g/m*3 3.4 C 0 km/h
2099 22-12-2016 06:50:00 3.4 C 5.62 g/m*3 3.4 C 1.6 km/h
2100 22-12-2016 06:55:00 3.4 C 5.62 g/m*3 3.4 C 0 km/h
Sensor: Nr:Datum:Temp:Abs-Feuchte:Windchill:Wind:
Aussen-T/F 2101 22-12-2016 07:00:00 3.4 C 5.62 g/m*3 3.4 C 0 km/h
2102 22-12-2016 07:05:00 3.4 C 5.62 g/m*3 3.4 C 3.2 km/h
2103 22-12-2016 07:10:00 3.5 C 5.66 g/m*3 3.5 C 0 km/h
2104 22-12-2016 07:15:00 3.5 C 5.66 g/m*3 3.5 C 0 km/h
2105 22-12-2016 07:20:00 3.5 C 5.66 g/m*3 3.5 C 0 km/h
2106 22-12-2016 07:25:00 3.5 C 5.66 g/m*3 3.5 C 0 km/h
2107 22-12-2016 07:30:00 3.5 C 5.66 g/m*3 3.5 C 0 km/h
2108 22-12-2016 07:35:00 3.5 C 5.66 g/m*3 3.5 C 0 km/h
2109 22-12-2016 07:40:00 3.6 C 5.69 g/m*3 3.6 C 0 km/h
2110 22-12-2016 07:45:00 3.6 C 5.69 g/m*3 3.6 C 0 km/h
2111 22-12-2016 07:50:00 3.6 C 5.69 g/m*3 3.6 C 0 km/h
2112 22-12-2016 07:55:00 3.6 C 5.69 g/m*3 3.6 C 0 km/h
2113 22-12-2016 08:00:00 3.6 C 5.69 g/m*3 1.98 C 6.4 km/h
2114 22-12-2016 08:05:00 3.6 C 5.69 g/m*3 1.98 C 6.4 km/h
2115 22-12-2016 08:10:00 3.7 C 5.73 g/m*3 3.7 C 1.6 km/h
2116 22-12-2016 08:15:00 3.7 C 5.73 g/m*3 3.7 C 0 km/h
2117 22-12-2016 08:20:00 3.7 C 5.73 g/m*3 3.7 C 1.6 km/h
2118 22-12-2016 08:25:00 3.7 C 5.73 g/m*3 3.7 C 1.6 km/h
2119 22-12-2016 08:30:00 3.7 C 5.67 g/m*3 3.7 C 0 km/h
2120 22-12-2016 08:35:00 3.8 C 5.71 g/m*3 3.8 C 3.2 km/h
2121 22-12-2016 08:40:00 3.8 C 5.71 g/m*3 3.8 C 0 km/h
2122 22-12-2016 08:45:00 3.8 C 5.71 g/m*3 3.8 C 0 km/h
2123 22-12-2016 08:50:00 3.9 C 5.75 g/m*3 3.9 C 1.6 km/h
2124 22-12-2016 08:55:00 4 C 5.79 g/m*3 4 C 0 km/h
2125 22-12-2016 09:00:00 4.1 C 5.82 g/m*3 4.1 C 0 km/h
Sensor: Nr:Datum:Temp:Abs-Feuchte:Windchill:Wind:
Aussen-T/F 2126 22-12-2016 09:05:00 4.1 C 5.82 g/m*3 4.1 C 0 km/h
2127 22-12-2016 09:10:00 4.1 C 5.82 g/m*3 4.1 C 0 km/h
2128 22-12-2016 09:15:00 4.2 C 5.86 g/m*3 4.2 C 1.6 km/h
2129 22-12-2016 09:20:00 4.2 C 5.86 g/m*3 4.2 C 0 km/h
2130 22-12-2016 09:25:00 4.2 C 5.93 g/m*3 4.2 C 1.6 km/h
2131 22-12-2016 09:30:00 4.2 C 5.93 g/m*3 4.2 C 1.6 km/h
2132 22-12-2016 09:35:00 4.2 C 5.93 g/m*3 4.2 C 0 km/h
2133 22-12-2016 09:40:00 4.1 C 5.95 g/m*3 4.1 C 0 km/h
2134 22-12-2016 09:45:00 4.1 C 5.95 g/m*3 4.1 C 0 km/h
2135 22-12-2016 09:50:00 4.1 C 5.95 g/m*3 4.1 C 0 km/h
2136 22-12-2016 09:55:00 4.1 C 5.95 g/m*3 4.1 C 0 km/h
2137 22-12-2016 10:00:00 4 C 5.91 g/m*3 4 C 0 km/h
2138 22-12-2016 10:05:00 3.9 C 5.87 g/m*3 3.9 C 1.6 km/h
2139 22-12-2016 10:10:00 3.9 C 5.94 g/m*3 3.9 C 1.6 km/h
2140 22-12-2016 10:15:00 3.9 C 5.94 g/m*3 3.9 C 1.6 km/h
2141 22-12-2016 10:20:00 3.9 C 5.94 g/m*3 3.9 C 0 km/h
2142 22-12-2016 10:25:00 3.9 C 5.94 g/m*3 3.9 C 0 km/h
2143 22-12-2016 10:30:00 3.8 C 5.9 g/m*3 3.8 C 0 km/h
2144 22-12-2016 10:35:00 3.8 C 5.9 g/m*3 3.8 C 0 km/h
2145 22-12-2016 10:40:00 3.8 C 5.9 g/m*3 3.8 C 1.6 km/h
2146 22-12-2016 10:45:00 3.8 C 5.9 g/m*3 3.8 C 4.8 km/h
2147 22-12-2016 10:50:00 3.8 C 5.9 g/m*3 3.8 C 3.2 km/h
2148 22-12-2016 10:55:00 3.8 C 5.9 g/m*3 3.8 C 3.2 km/h
2149 22-12-2016 11:00:00 3.8 C 5.9 g/m*3 3.8 C 3.2 km/h
2150 22-12-2016 11:05:00 3.9 C 6 g/m*3 3.9 C 3.2 km/h
Sensor: Nr:Datum:Temp:Abs-Feuchte:Windchill:Wind:
Aussen-T/F 2151 22-12-2016 11:10:00 3.9 C 6 g/m*3 3.9 C 1.6 km/h
2152 22-12-2016 11:15:00 3.9 C 6 g/m*3 3.9 C 3.2 km/h
2153 22-12-2016 11:20:00 3.9 C 6 g/m*3 2.32 C 6.4 km/h
2154 22-12-2016 11:25:00 3.9 C 6 g/m*3 3.9 C 3.2 km/h
2155 22-12-2016 11:30:00 3.9 C 6 g/m*3 3.9 C 1.6 km/h
2156 22-12-2016 11:35:00 4 C 6.04 g/m*3 4 C 1.6 km/h
2157 22-12-2016 11:40:00 4 C 6.04 g/m*3 4 C 4.8 km/h
2158 22-12-2016 11:45:00 4 C 6.04 g/m*3 4 C 4.8 km/h
2159 22-12-2016 11:50:00 4 C 6.04 g/m*3 4 C 3.2 km/h
2160 22-12-2016 11:55:00 4 C 6.04 g/m*3 4 C 4.8 km/h
2161 22-12-2016 12:00:00 3.9 C 6 g/m*3 3.9 C 3.2 km/h
2162 22-12-2016 12:05:00 3.9 C 6 g/m*3 3.9 C 3.2 km/h
2163 22-12-2016 12:10:00 3.9 C 6 g/m*3 3.9 C 1.6 km/h
2164 22-12-2016 12:15:00 3.9 C 6 g/m*3 3.9 C 3.2 km/h
2165 22-12-2016 12:20:00 3.9 C 6 g/m*3 3.9 C 3.2 km/h
2166 22-12-2016 12:25:00 3.9 C 6 g/m*3 3.9 C 3.2 km/h
2167 22-12-2016 12:30:00 3.9 C 6 g/m*3 3.9 C 1.6 km/h
2168 22-12-2016 12:35:00 3.9 C 6 g/m*3 3.9 C 3.2 km/h
2169 22-12-2016 12:40:00 3.9 C 6 g/m*3 3.9 C 3.2 km/h
2170 22-12-2016 12:45:00 3.9 C 6 g/m*3 3.9 C 3.2 km/h
2171 22-12-2016 12:50:00 3.9 C 6 g/m*3 3.9 C 3.2 km/h
2172 22-12-2016 12:55:00 3.9 C 6 g/m*3 3.9 C 4.8 km/h
2173 22-12-2016 13:00:00 3.9 C 6 g/m*3 3.9 C 4.8 km/h
2174 22-12-2016 13:05:00 3.9 C 6 g/m*3 3.9 C 3.2 km/h
2175 22-12-2016 13:10:00 3.9 C 6 g/m*3 3.9 C 0 km/h
Sensor: Nr:Datum:Temp:Abs-Feuchte:Windchill:Wind:
Aussen-T/F 2176 22-12-2016 13:15:00 3.9 C 6 g/m*3 3.9 C 0 km/h
2177 22-12-2016 13:20:00 3.9 C 6 g/m*3 3.9 C 1.6 km/h
2178 22-12-2016 13:25:00 3.8 C 5.96 g/m*3 3.8 C 3.2 km/h
2179 22-12-2016 13:30:00 3.8 C 5.96 g/m*3 3.8 C 1.6 km/h
2180 22-12-2016 13:35:00 3.9 C 6 g/m*3 3.9 C 3.2 km/h
2181 22-12-2016 13:40:00 3.9 C 6 g/m*3 3.9 C 1.6 km/h
2182 22-12-2016 13:45:00 3.9 C 6 g/m*3 3.9 C 3.2 km/h
2183 22-12-2016 13:50:00 3.9 C 6 g/m*3 3.9 C 4.8 km/h
2184 22-12-2016 13:55:00 3.9 C 6 g/m*3 3.9 C 1.6 km/h
2185 22-12-2016 14:00:00 4 C 6.04 g/m*3 4 C 1.6 km/h
2186 22-12-2016 14:05:00 4.1 C 6.08 g/m*3 4.1 C 1.6 km/h
2187 22-12-2016 14:10:00 4.1 C 6.14 g/m*3 4.1 C 0 km/h
2188 22-12-2016 14:15:00 4.2 C 6.19 g/m*3 4.2 C 0 km/h
2189 22-12-2016 14:20:00 4.2 C 6.19 g/m*3 4.2 C 1.6 km/h
2190 22-12-2016 14:25:00 4.2 C 6.19 g/m*3 4.2 C 0 km/h
2191 22-12-2016 14:30:00 4.2 C 6.19 g/m*3 4.2 C 0 km/h
2192 22-12-2016 14:35:00 4.2 C 6.19 g/m*3 4.2 C 0 km/h
2193 22-12-2016 14:40:00 4.2 C 6.19 g/m*3 4.2 C 0 km/h
2194 22-12-2016 14:45:00 4.2 C 6.19 g/m*3 4.2 C 0 km/h
2195 22-12-2016 14:50:00 4.2 C 6.19 g/m*3 4.2 C 0 km/h
2196 22-12-2016 14:55:00 4.1 C 6.14 g/m*3 4.1 C 0 km/h
2197 22-12-2016 15:00:00 4.2 C 6.19 g/m*3 4.2 C 0 km/h
2198 22-12-2016 15:05:00 4.2 C 6.19 g/m*3 4.2 C 0 km/h
2199 22-12-2016 15:10:00 4.2 C 6.19 g/m*3 4.2 C 0 km/h
2200 22-12-2016 15:15:00 4.2 C 6.19 g/m*3 4.2 C 0 km/h
Sensor: Nr:Datum:Temp:Abs-Feuchte:Windchill:Wind:
Aussen-T/F 2201 22-12-2016 15:20:00 4.2 C 6.19 g/m*3 4.2 C 0 km/h
2202 22-12-2016 15:25:00 4.2 C 6.19 g/m*3 4.2 C 0 km/h
2203 22-12-2016 15:30:00 4.2 C 6.19 g/m*3 4.2 C 0 km/h
2204 22-12-2016 15:35:00 4.2 C 6.19 g/m*3 4.2 C 0 km/h
2205 22-12-2016 15:40:00 4.2 C 6.19 g/m*3 4.2 C 0 km/h
2206 22-12-2016 15:45:00 4.2 C 6.19 g/m*3 4.2 C 0 km/h
2207 22-12-2016 15:50:00 4.2 C 6.19 g/m*3 4.2 C 0 km/h
2208 22-12-2016 15:55:00 4.2 C 6.19 g/m*3 4.2 C 0 km/h
2209 22-12-2016 16:00:00 4.2 C 6.19 g/m*3 4.2 C 0 km/h
2210 22-12-2016 16:05:00 4.2 C 6.19 g/m*3 4.2 C 0 km/h
2211 22-12-2016 16:10:00 4.2 C 6.19 g/m*3 4.2 C 0 km/h
2212 22-12-2016 16:15:00 4.2 C 6.19 g/m*3 4.2 C 0 km/h
2213 22-12-2016 16:20:00 4.2 C 6.19 g/m*3 4.2 C 0 km/h
2214 22-12-2016 16:25:00 4.1 C 6.14 g/m*3 4.1 C 0 km/h
2215 22-12-2016 16:30:00 4.1 C 6.14 g/m*3 4.1 C 0 km/h
2216 22-12-2016 16:35:00 4.1 C 6.14 g/m*3 4.1 C 0 km/h
2217 22-12-2016 16:40:00 4 C 6.1 g/m*3 4 C 0 km/h
2218 22-12-2016 16:45:00 4 C 6.1 g/m*3 4 C 0 km/h
2219 22-12-2016 16:50:00 4 C 6.1 g/m*3 4 C 0 km/h
2220 22-12-2016 16:55:00 4 C 6.1 g/m*3 4 C 0 km/h
2221 22-12-2016 17:00:00 4 C 6.1 g/m*3 4 C 0 km/h
2222 22-12-2016 17:05:00 4 C 6.1 g/m*3 4 C 0 km/h
2223 22-12-2016 17:10:00 4 C 6.1 g/m*3 4 C 0 km/h
2224 22-12-2016 17:15:00 4 C 6.1 g/m*3 4 C 0 km/h
2225 22-12-2016 17:20:00 4 C 6.1 g/m*3 4 C 0 km/h
Sensor: Nr:Datum:Temp:Abs-Feuchte:Windchill:Wind:
Aussen-T/F 2226 22-12-2016 17:25:00 4 C 6.1 g/m*3 4 C 0 km/h
2227 22-12-2016 17:30:00 4 C 6.1 g/m*3 4 C 0 km/h
2228 22-12-2016 17:35:00 4.1 C 6.14 g/m*3 4.1 C 0 km/h
2229 22-12-2016 17:40:00 4.1 C 6.14 g/m*3 4.1 C 0 km/h
2230 22-12-2016 17:45:00 4.1 C 6.14 g/m*3 4.1 C 0 km/h
2231 22-12-2016 17:50:00 4.1 C 6.14 g/m*3 4.1 C 0 km/h
2232 22-12-2016 17:55:00 4.1 C 6.14 g/m*3 4.1 C 0 km/h
2233 22-12-2016 18:00:00 4.1 C 6.14 g/m*3 4.1 C 0 km/h
2234 22-12-2016 18:05:00 4.1 C 6.14 g/m*3 4.1 C 0 km/h
2235 22-12-2016 18:10:00 4.1 C 6.21 g/m*3 4.1 C 0 km/h
2236 22-12-2016 18:15:00 4.1 C 6.21 g/m*3 4.1 C 0 km/h
2237 22-12-2016 18:20:00 4.1 C 6.21 g/m*3 4.1 C 0 km/h
2238 22-12-2016 18:25:00 4.1 C 6.21 g/m*3 4.1 C 0 km/h
2239 22-12-2016 18:30:00 4.1 C 6.21 g/m*3 4.1 C 0 km/h
2240 22-12-2016 18:35:00 4.1 C 6.21 g/m*3 4.1 C 0 km/h
2241 22-12-2016 18:40:00 4.1 C 6.21 g/m*3 4.1 C 0 km/h
2242 22-12-2016 18:45:00 4.1 C 6.21 g/m*3 4.1 C 1.6 km/h
2243 22-12-2016 18:50:00 4.1 C 6.21 g/m*3 4.1 C 0 km/h
2244 22-12-2016 18:55:00 4.1 C 6.14 g/m*3 4.1 C 0 km/h
2245 22-12-2016 19:00:00 4 C 6.1 g/m*3 4 C 0 km/h
2246 22-12-2016 19:05:00 4 C 6.1 g/m*3 4 C 0 km/h
2247 22-12-2016 19:10:00 4 C 6.1 g/m*3 4 C 0 km/h
2248 22-12-2016 19:15:00 3.9 C 6.06 g/m*3 3.9 C 0 km/h
2249 22-12-2016 19:20:00 3.9 C 6.06 g/m*3 3.9 C 0 km/h
2250 22-12-2016 19:25:00 3.9 C 6.06 g/m*3 3.9 C 0 km/h
Sensor: Nr:Datum:Temp:Abs-Feuchte:Windchill:Wind:
Aussen-T/F 2251 22-12-2016 19:30:00 3.8 C 6.02 g/m*3 3.8 C 0 km/h
2252 22-12-2016 19:35:00 3.8 C 6.02 g/m*3 3.8 C 0 km/h
2253 22-12-2016 19:40:00 3.8 C 6.02 g/m*3 3.8 C 0 km/h
2254 22-12-2016 19:45:00 3.8 C 6.02 g/m*3 3.8 C 0 km/h
2255 22-12-2016 19:50:00 3.8 C 6.09 g/m*3 3.8 C 0 km/h
2256 22-12-2016 19:55:00 3.7 C 6.04 g/m*3 3.7 C 0 km/h
2257 22-12-2016 20:00:00 3.7 C 6.04 g/m*3 3.7 C 0 km/h
2258 22-12-2016 20:05:00 3.7 C 6.04 g/m*3 3.7 C 0 km/h
2259 22-12-2016 20:10:00 3.7 C 6.04 g/m*3 3.7 C 0 km/h
2260 22-12-2016 20:15:00 3.7 C 6.04 g/m*3 3.7 C 0 km/h
2261 22-12-2016 20:20:00 3.7 C 5.98 g/m*3 3.7 C 0 km/h
2262 22-12-2016 20:25:00 3.7 C 5.98 g/m*3 3.7 C 0 km/h
2263 22-12-2016 20:30:00 3.7 C 5.98 g/m*3 3.7 C 0 km/h
2264 22-12-2016 20:35:00 3.7 C 5.98 g/m*3 3.7 C 0 km/h
2265 22-12-2016 20:40:00 3.7 C 5.98 g/m*3 3.7 C 0 km/h
2266 22-12-2016 20:45:00 3.7 C 5.98 g/m*3 3.7 C 0 km/h
2267 22-12-2016 20:50:00 3.7 C 5.98 g/m*3 3.7 C 0 km/h
2268 22-12-2016 20:55:00 3.8 C 6.02 g/m*3 3.8 C 0 km/h
2269 22-12-2016 21:00:00 3.8 C 6.09 g/m*3 3.8 C 0 km/h
2270 22-12-2016 21:05:00 3.8 C 6.09 g/m*3 3.8 C 0 km/h
2271 22-12-2016 21:10:00 3.8 C 6.09 g/m*3 3.8 C 0 km/h
2272 22-12-2016 21:15:00 3.8 C 6.09 g/m*3 3.8 C 0 km/h
2273 22-12-2016 21:20:00 3.8 C 6.09 g/m*3 3.8 C 0 km/h
2274 22-12-2016 21:25:00 3.9 C 6.13 g/m*3 3.9 C 0 km/h
2275 22-12-2016 21:30:00 3.9 C 6.13 g/m*3 3.9 C 0 km/h
Sensor: Nr:Datum:Temp:Abs-Feuchte:Windchill:Wind:
Aussen-T/F 2276 22-12-2016 21:35:00 4 C 6.17 g/m*3 4 C 0 km/h
2277 22-12-2016 21:40:00 4 C 6.17 g/m*3 4 C 0 km/h
2278 22-12-2016 21:45:00 4.1 C 6.21 g/m*3 4.1 C 0 km/h
2279 22-12-2016 21:50:00 4.1 C 6.21 g/m*3 4.1 C 0 km/h
2280 22-12-2016 21:55:00 4.1 C 6.21 g/m*3 4.1 C 0 km/h
2281 22-12-2016 22:00:00 4.1 C 6.21 g/m*3 4.1 C 0 km/h
2282 22-12-2016 22:05:00 4.1 C 6.21 g/m*3 4.1 C 0 km/h
2283 22-12-2016 22:10:00 4.1 C 6.21 g/m*3 4.1 C 0 km/h
2284 22-12-2016 22:15:00 4.1 C 6.21 g/m*3 4.1 C 0 km/h
2285 22-12-2016 22:20:00 4.1 C 6.21 g/m*3 4.1 C 0 km/h
2286 22-12-2016 22:25:00 4.1 C 6.21 g/m*3 4.1 C 0 km/h
2287 22-12-2016 22:30:00 4.1 C 6.21 g/m*3 4.1 C 0 km/h
2288 22-12-2016 22:35:00 4.1 C 6.21 g/m*3 4.1 C 0 km/h
2289 22-12-2016 22:40:00 4.1 C 6.21 g/m*3 4.1 C 0 km/h
2290 22-12-2016 22:45:00 4.1 C 6.21 g/m*3 4.1 C 0 km/h
2291 22-12-2016 22:50:00 4.1 C 6.21 g/m*3 4.1 C 0 km/h
2292 22-12-2016 22:55:00 4.2 C 6.25 g/m*3 4.2 C 0 km/h
2293 22-12-2016 23:00:00 4.2 C 6.25 g/m*3 4.2 C 0 km/h
2294 22-12-2016 23:05:00 4.2 C 6.25 g/m*3 4.2 C 0 km/h
2295 22-12-2016 23:10:00 4.2 C 6.25 g/m*3 4.2 C 0 km/h
2296 22-12-2016 23:15:00 4.2 C 6.25 g/m*3 4.2 C 0 km/h
2297 22-12-2016 23:20:00 4.2 C 6.25 g/m*3 4.2 C 0 km/h
2298 22-12-2016 23:25:00 4.2 C 6.25 g/m*3 4.2 C 0 km/h
2299 22-12-2016 23:30:00 4.2 C 6.25 g/m*3 4.2 C 0 km/h
2300 22-12-2016 23:35:00 4.2 C 6.25 g/m*3 4.2 C 0 km/h
Sensor: Nr:Datum:Temp:Abs-Feuchte:Windchill:Wind:
Aussen-T/F 2301 22-12-2016 23:40:00 4.2 C 6.25 g/m*3 4.2 C 0 km/h
2302 22-12-2016 23:45:00 4.2 C 6.25 g/m*3 4.2 C 0 km/h
2303 22-12-2016 23:50:00 4.2 C 6.25 g/m*3 4.2 C 0 km/h
2304 22-12-2016 23:55:00 4.2 C 6.25 g/m*3 4.2 C 0 km/h
2305 23-12-2016 00:00:00 4.2 C 6.25 g/m*3 4.2 C 0 km/h
2306 23-12-2016 00:05:00 4.2 C 6.25 g/m*3 4.2 C 0 km/h
2307 23-12-2016 00:10:00 4.2 C 6.25 g/m*3 4.2 C 0 km/h
2308 23-12-2016 00:15:00 4.2 C 6.25 g/m*3 4.2 C 0 km/h
2309 23-12-2016 00:20:00 4.2 C 6.25 g/m*3 4.2 C 0 km/h
2310 23-12-2016 00:25:00 4.2 C 6.25 g/m*3 4.2 C 0 km/h
2311 23-12-2016 00:30:00 4.2 C 6.25 g/m*3 4.2 C 0 km/h
2312 23-12-2016 00:35:00 4.2 C 6.25 g/m*3 4.2 C 1.6 km/h
2313 23-12-2016 00:40:00 4.2 C 6.25 g/m*3 4.2 C 0 km/h
2314 23-12-2016 00:45:00 4.3 C 6.29 g/m*3 4.3 C 1.6 km/h
2315 23-12-2016 00:50:00 4.3 C 6.29 g/m*3 4.3 C 4.8 km/h
2316 23-12-2016 00:55:00 4.3 C 6.29 g/m*3 2.78 C 6.4 km/h
2317 23-12-2016 01:00:00 4.3 C 6.29 g/m*3 2.29 C 8.1 km/h
2318 23-12-2016 01:05:00 4.3 C 6.29 g/m*3 4.3 C 1.6 km/h
2319 23-12-2016 01:10:00 4.3 C 6.29 g/m*3 4.3 C 1.6 km/h
2320 23-12-2016 01:15:00 4.3 C 6.29 g/m*3 4.3 C 0 km/h
2321 23-12-2016 01:20:00 4.3 C 6.29 g/m*3 4.3 C 0 km/h
2322 23-12-2016 01:25:00 4.3 C 6.29 g/m*3 4.3 C 1.6 km/h
2323 23-12-2016 01:30:00 4.3 C 6.29 g/m*3 4.3 C 0 km/h
2324 23-12-2016 01:35:00 4.3 C 6.29 g/m*3 4.3 C 0 km/h
2325 23-12-2016 01:40:00 4.3 C 6.29 g/m*3 4.3 C 0 km/h
Sensor: Nr:Datum:Temp:Abs-Feuchte:Windchill:Wind:
Aussen-T/F 2326 23-12-2016 01:45:00 4.3 C 6.29 g/m*3 4.3 C 0 km/h
2327 23-12-2016 01:50:00 4.3 C 6.29 g/m*3 4.3 C 0 km/h
2328 23-12-2016 01:55:00 4.3 C 6.29 g/m*3 4.3 C 0 km/h
2329 23-12-2016 02:00:00 4.3 C 6.29 g/m*3 4.3 C 0 km/h
2330 23-12-2016 02:05:00 4.3 C 6.29 g/m*3 4.3 C 0 km/h
2331 23-12-2016 02:10:00 4.3 C 6.29 g/m*3 4.3 C 0 km/h
2332 23-12-2016 02:15:00 4.3 C 6.29 g/m*3 4.3 C 0 km/h
2333 23-12-2016 02:20:00 4.3 C 6.29 g/m*3 4.3 C 0 km/h
2334 23-12-2016 02:25:00 4.3 C 6.29 g/m*3 4.3 C 0 km/h
2335 23-12-2016 02:30:00 4.3 C 6.29 g/m*3 4.3 C 1.6 km/h
2336 23-12-2016 02:35:00 4.3 C 6.29 g/m*3 4.3 C 0 km/h
2337 23-12-2016 02:40:00 4.3 C 6.29 g/m*3 4.3 C 1.6 km/h
2338 23-12-2016 02:45:00 4.3 C 6.29 g/m*3 4.3 C 0 km/h
2339 23-12-2016 02:50:00 4.3 C 6.29 g/m*3 4.3 C 3.2 km/h
2340 23-12-2016 02:55:00 4.3 C 6.29 g/m*3 4.3 C 3.2 km/h
2341 23-12-2016 03:00:00 4.3 C 6.29 g/m*3 4.3 C 0 km/h
2342 23-12-2016 03:05:00 4.3 C 6.29 g/m*3 4.3 C 0 km/h
2343 23-12-2016 03:10:00 4.3 C 6.29 g/m*3 4.3 C 0 km/h
2344 23-12-2016 03:15:00 4.3 C 6.29 g/m*3 4.3 C 0 km/h
2345 23-12-2016 03:20:00 4.3 C 6.29 g/m*3 4.3 C 0 km/h
2346 23-12-2016 03:25:00 4.3 C 6.29 g/m*3 4.3 C 0 km/h
2347 23-12-2016 03:30:00 4.3 C 6.29 g/m*3 4.3 C 0 km/h
2348 23-12-2016 03:35:00 4.3 C 6.29 g/m*3 4.3 C 0 km/h
2349 23-12-2016 03:40:00 4.3 C 6.29 g/m*3 4.3 C 0 km/h
2350 23-12-2016 03:45:00 4.3 C 6.29 g/m*3 4.3 C 0 km/h
Sensor: Nr:Datum:Temp:Abs-Feuchte:Windchill:Wind:
Aussen-T/F 2351 23-12-2016 03:50:00 4.3 C 6.29 g/m*3 4.3 C 3.2 km/h
2352 23-12-2016 03:55:00 4.3 C 6.29 g/m*3 4.3 C 1.6 km/h
2353 23-12-2016 04:00:00 4.3 C 6.29 g/m*3 4.3 C 0 km/h
2354 23-12-2016 04:05:00 4.3 C 6.29 g/m*3 4.3 C 1.6 km/h
2355 23-12-2016 04:10:00 4.3 C 6.29 g/m*3 4.3 C 0 km/h
2356 23-12-2016 04:15:00 4.3 C 6.29 g/m*3 4.3 C 4.8 km/h
2357 23-12-2016 04:20:00 4.3 C 6.29 g/m*3 4.3 C 1.6 km/h
2358 23-12-2016 04:25:00 4.3 C 6.29 g/m*3 4.3 C 3.2 km/h
2359 23-12-2016 04:30:00 4.2 C 6.25 g/m*3 2.67 C 6.4 km/h
2360 23-12-2016 04:35:00 4.2 C 6.25 g/m*3 4.2 C 4.8 km/h
2361 23-12-2016 04:40:00 4.1 C 6.21 g/m*3 2.55 C 6.4 km/h
2362 23-12-2016 04:45:00 4.1 C 6.21 g/m*3 2.55 C 6.4 km/h
2363 23-12-2016 04:50:00 4 C 6.17 g/m*3 2.44 C 6.4 km/h
2364 23-12-2016 04:55:00 4 C 6.17 g/m*3 1.93 C 8.1 km/h
2365 23-12-2016 05:00:00 3.9 C 6.13 g/m*3 3.9 C 4.8 km/h
2366 23-12-2016 05:05:00 3.9 C 6.13 g/m*3 1.82 C 8.1 km/h
2367 23-12-2016 05:10:00 3.9 C 6.13 g/m*3 1.82 C 8.1 km/h
2368 23-12-2016 05:15:00 3.9 C 6.13 g/m*3 2.32 C 6.4 km/h
2369 23-12-2016 05:20:00 3.9 C 6.13 g/m*3 1.82 C 8.1 km/h
2370 23-12-2016 05:25:00 3.9 C 6.13 g/m*3 1.82 C 8.1 km/h
2371 23-12-2016 05:30:00 3.8 C 6.09 g/m*3 3.8 C 3.2 km/h
2372 23-12-2016 05:35:00 3.8 C 6.09 g/m*3 1.7 C 8.1 km/h
2373 23-12-2016 05:40:00 3.8 C 6.09 g/m*3 3.8 C 4.8 km/h
2374 23-12-2016 05:45:00 3.8 C 6.09 g/m*3 3.8 C 4.8 km/h
2375 23-12-2016 05:50:00 3.8 C 6.02 g/m*3 2.21 C 6.4 km/h
Sensor: Nr:Datum:Temp:Abs-Feuchte:Windchill:Wind:
Aussen-T/F 2376 23-12-2016 05:55:00 3.7 C 6.04 g/m*3 3.7 C 4.8 km/h
2377 23-12-2016 06:00:00 3.6 C 5.94 g/m*3 1.98 C 6.4 km/h
2378 23-12-2016 06:05:00 3.5 C 5.9 g/m*3 3.5 C 0 km/h
2379 23-12-2016 06:10:00 3.4 C 5.86 g/m*3 3.4 C 3.2 km/h
2380 23-12-2016 06:15:00 3.3 C 5.82 g/m*3 3.3 C 1.6 km/h
2381 23-12-2016 06:20:00 3.2 C 5.79 g/m*3 3.2 C 1.6 km/h
2382 23-12-2016 06:25:00 3.2 C 5.79 g/m*3 3.2 C 4.8 km/h
2383 23-12-2016 06:30:00 3.1 C 5.75 g/m*3 3.1 C 0 km/h
2384 23-12-2016 06:35:00 3 C 5.71 g/m*3 3 C 0 km/h
2385 23-12-2016 06:40:00 2.9 C 5.67 g/m*3 2.9 C 1.6 km/h
2386 23-12-2016 06:45:00 2.8 C 5.63 g/m*3 2.8 C 0 km/h
2387 23-12-2016 06:50:00 2.7 C 5.59 g/m*3 2.7 C 0 km/h
2388 23-12-2016 06:55:00 2.7 C 5.59 g/m*3 2.7 C 3.2 km/h
2389 23-12-2016 07:00:00 2.7 C 5.59 g/m*3 2.7 C 0 km/h
2390 23-12-2016 07:05:00 2.7 C 5.59 g/m*3 2.7 C 1.6 km/h
2391 23-12-2016 07:10:00 2.6 C 5.56 g/m*3 2.6 C 1.6 km/h
2392 23-12-2016 07:15:00 2.6 C 5.56 g/m*3 2.6 C 0 km/h
2393 23-12-2016 07:20:00 2.4 C 5.48 g/m*3 2.4 C 0 km/h
2394 23-12-2016 07:25:00 2.3 C 5.44 g/m*3 2.3 C 1.6 km/h
2395 23-12-2016 07:30:00 2.2 C 5.41 g/m*3 2.2 C 1.6 km/h
2396 23-12-2016 07:35:00 2.2 C 5.41 g/m*3 2.2 C 0 km/h
2397 23-12-2016 07:40:00 2.2 C 5.41 g/m*3 2.2 C 1.6 km/h
2398 23-12-2016 07:45:00 2.2 C 5.46 g/m*3 2.2 C 1.6 km/h
2399 23-12-2016 07:50:00 2.3 C 5.5 g/m*3 2.3 C 1.6 km/h
2400 23-12-2016 07:55:00 2.3 C 5.5 g/m*3 2.3 C 1.6 km/h
Sensor: Nr:Datum:Temp:Abs-Feuchte:Windchill:Wind:
Aussen-T/F 2401 23-12-2016 08:00:00 2.4 C 5.54 g/m*3 2.4 C 1.6 km/h
2402 23-12-2016 08:05:00 2.4 C 5.54 g/m*3 2.4 C 1.6 km/h
2403 23-12-2016 08:10:00 2.6 C 5.61 g/m*3 2.6 C 1.6 km/h
2404 23-12-2016 08:15:00 2.6 C 5.61 g/m*3 2.6 C 1.6 km/h
2405 23-12-2016 08:20:00 2.7 C 5.65 g/m*3 2.7 C 1.6 km/h
2406 23-12-2016 08:25:00 2.8 C 5.69 g/m*3 2.8 C 3.2 km/h
2407 23-12-2016 08:30:00 2.8 C 5.69 g/m*3 2.8 C 0 km/h
2408 23-12-2016 08:35:00 2.9 C 5.73 g/m*3 2.9 C 0 km/h
2409 23-12-2016 08:40:00 3 C 5.77 g/m*3 3 C 1.6 km/h
2410 23-12-2016 08:45:00 3.1 C 5.81 g/m*3 3.1 C 0 km/h
2411 23-12-2016 08:50:00 3.1 C 5.81 g/m*3 3.1 C 3.2 km/h
2412 23-12-2016 08:55:00 3.2 C 5.85 g/m*3 3.2 C 0 km/h
2413 23-12-2016 09:00:00 3.2 C 5.85 g/m*3 3.2 C 0 km/h
2414 23-12-2016 09:05:00 3.3 C 5.88 g/m*3 3.3 C 0 km/h
2415 23-12-2016 09:10:00 3.3 C 5.88 g/m*3 3.3 C 0 km/h
2416 23-12-2016 09:15:00 3.3 C 5.88 g/m*3 3.3 C 0 km/h
2417 23-12-2016 09:20:00 3.4 C 5.92 g/m*3 3.4 C 3.2 km/h
2418 23-12-2016 09:25:00 3.4 C 5.92 g/m*3 3.4 C 3.2 km/h
2419 23-12-2016 09:30:00 3.5 C 5.96 g/m*3 3.5 C 0 km/h
2420 23-12-2016 09:35:00 3.6 C 6 g/m*3 3.6 C 0 km/h
2421 23-12-2016 09:40:00 3.6 C 6 g/m*3 3.6 C 1.6 km/h
2422 23-12-2016 09:45:00 3.6 C 6 g/m*3 3.6 C 0 km/h
2423 23-12-2016 09:50:00 3.6 C 6 g/m*3 3.6 C 0 km/h
2424 23-12-2016 09:55:00 3.6 C 6 g/m*3 3.6 C 1.6 km/h
2425 23-12-2016 10:00:00 3.6 C 6 g/m*3 3.6 C 0 km/h
Sensor: Nr:Datum:Temp:Abs-Feuchte:Windchill:Wind:
Aussen-T/F 2426 23-12-2016 10:05:00 3.7 C 6.04 g/m*3 3.7 C 3.2 km/h
2427 23-12-2016 10:10:00 3.7 C 6.04 g/m*3 3.7 C 1.6 km/h
2428 23-12-2016 10:15:00 3.7 C 6.04 g/m*3 3.7 C 1.6 km/h
2429 23-12-2016 10:20:00 3.7 C 6.04 g/m*3 3.7 C 3.2 km/h
2430 23-12-2016 10:25:00 3.6 C 6 g/m*3 1.98 C 6.4 km/h
2431 23-12-2016 10:30:00 3.6 C 6 g/m*3 3.6 C 4.8 km/h
2432 23-12-2016 10:35:00 3.6 C 5.94 g/m*3 3.6 C 1.6 km/h
2433 23-12-2016 10:40:00 3.6 C 5.94 g/m*3 3.6 C 3.2 km/h
2434 23-12-2016 10:45:00 3.5 C 5.9 g/m*3 3.5 C 0 km/h
2435 23-12-2016 10:50:00 3.6 C 5.94 g/m*3 3.6 C 3.2 km/h
2436 23-12-2016 10:55:00 3.6 C 5.94 g/m*3 3.6 C 3.2 km/h
2437 23-12-2016 11:00:00 3.6 C 5.94 g/m*3 3.6 C 0 km/h
2438 23-12-2016 11:05:00 3.6 C 5.94 g/m*3 3.6 C 3.2 km/h
2439 23-12-2016 11:10:00 3.6 C 5.94 g/m*3 3.6 C 1.6 km/h
2440 23-12-2016 11:15:00 3.6 C 5.94 g/m*3 3.6 C 4.8 km/h
2441 23-12-2016 11:20:00 3.6 C 5.94 g/m*3 3.6 C 1.6 km/h
2442 23-12-2016 11:25:00 3.7 C 5.98 g/m*3 3.7 C 4.8 km/h
2443 23-12-2016 11:30:00 3.7 C 5.98 g/m*3 1.58 C 8.1 km/h
2444 23-12-2016 11:35:00 3.7 C 5.98 g/m*3 2.09 C 6.4 km/h
2445 23-12-2016 11:40:00 3.7 C 5.98 g/m*3 3.7 C 4.8 km/h
2446 23-12-2016 11:45:00 3.8 C 6.02 g/m*3 2.21 C 6.4 km/h
2447 23-12-2016 11:50:00 3.7 C 5.98 g/m*3 3.7 C 4.8 km/h
2448 23-12-2016 11:55:00 3.8 C 6.02 g/m*3 3.8 C 1.6 km/h
2449 23-12-2016 12:00:00 3.8 C 6.02 g/m*3 3.8 C 3.2 km/h
2450 23-12-2016 12:05:00 3.8 C 6.02 g/m*3 3.8 C 0 km/h
Sensor: Nr:Datum:Temp:Abs-Feuchte:Windchill:Wind:
Aussen-T/F 2451 23-12-2016 12:10:00 3.8 C 5.96 g/m*3 3.8 C 3.2 km/h
2452 23-12-2016 12:15:00 3.8 C 5.96 g/m*3 3.8 C 4.8 km/h
2453 23-12-2016 12:20:00 3.9 C 6 g/m*3 3.9 C 3.2 km/h
2454 23-12-2016 12:25:00 3.9 C 6 g/m*3 3.9 C 1.6 km/h
2455 23-12-2016 12:30:00 3.9 C 6 g/m*3 3.9 C 0 km/h
2456 23-12-2016 12:35:00 3.9 C 6 g/m*3 3.9 C 1.6 km/h
2457 23-12-2016 12:40:00 4 C 6.04 g/m*3 4 C 4.8 km/h
2458 23-12-2016 12:45:00 4 C 6.04 g/m*3 4 C 4.8 km/h
2459 23-12-2016 12:50:00 4 C 6.04 g/m*3 4 C 1.6 km/h
2460 23-12-2016 12:55:00 4 C 6.04 g/m*3 4 C 0 km/h
2461 23-12-2016 13:00:00 4.1 C 6.08 g/m*3 4.1 C 0 km/h
2462 23-12-2016 13:05:00 4.1 C 6.08 g/m*3 4.1 C 1.6 km/h
2463 23-12-2016 13:10:00 4.1 C 6.02 g/m*3 4.1 C 3.2 km/h
2464 23-12-2016 13:15:00 4.1 C 6.02 g/m*3 4.1 C 3.2 km/h
2465 23-12-2016 13:20:00 4.2 C 6.06 g/m*3 2.67 C 6.4 km/h
2466 23-12-2016 13:25:00 4.2 C 6.06 g/m*3 1.77 C 9.7 km/h
2467 23-12-2016 13:30:00 4.2 C 6.06 g/m*3 1.77 C 9.7 km/h
2468 23-12-2016 13:35:00 4.2 C 6.06 g/m*3 4.2 C 4.8 km/h
2469 23-12-2016 13:40:00 4.2 C 6.06 g/m*3 2.67 C 6.4 km/h
2470 23-12-2016 13:45:00 4.2 C 6.06 g/m*3 4.2 C 4.8 km/h
2471 23-12-2016 13:50:00 4.2 C 6.06 g/m*3 4.2 C 4.8 km/h
2472 23-12-2016 13:55:00 4.2 C 6.06 g/m*3 4.2 C 3.2 km/h
2473 23-12-2016 14:00:00 4.3 C 6.1 g/m*3 4.3 C 1.6 km/h
2474 23-12-2016 14:05:00 4.3 C 6.1 g/m*3 4.3 C 3.2 km/h
2475 23-12-2016 14:10:00 4.3 C 6.1 g/m*3 4.3 C 1.6 km/h
Sensor: Nr:Datum:Temp:Abs-Feuchte:Windchill:Wind:
Aussen-T/F 2476 23-12-2016 14:15:00 4.3 C 6.03 g/m*3 4.3 C 1.6 km/h
2477 23-12-2016 14:20:00 4.4 C 6.07 g/m*3 4.4 C 3.2 km/h
2478 23-12-2016 14:25:00 4.4 C 6.07 g/m*3 4.4 C 4.8 km/h
2479 23-12-2016 14:30:00 4.4 C 6.07 g/m*3 4.4 C 3.2 km/h
2480 23-12-2016 14:35:00 4.5 C 6.11 g/m*3 4.5 C 3.2 km/h
2481 23-12-2016 14:40:00 4.6 C 6.15 g/m*3 4.6 C 3.2 km/h
2482 23-12-2016 14:45:00 4.6 C 6.15 g/m*3 4.6 C 3.2 km/h
2483 23-12-2016 14:50:00 4.6 C 6.15 g/m*3 4.6 C 3.2 km/h
2484 23-12-2016 14:55:00 4.6 C 6.15 g/m*3 4.6 C 4.8 km/h
2485 23-12-2016 15:00:00 4.7 C 6.19 g/m*3 4.7 C 1.6 km/h
2486 23-12-2016 15:05:00 4.7 C 6.19 g/m*3 4.7 C 1.6 km/h
2487 23-12-2016 15:10:00 4.7 C 6.26 g/m*3 4.7 C 1.6 km/h
2488 23-12-2016 15:15:00 4.7 C 6.26 g/m*3 4.7 C 1.6 km/h
2489 23-12-2016 15:20:00 4.7 C 6.26 g/m*3 4.7 C 0 km/h
2490 23-12-2016 15:25:00 4.8 C 6.24 g/m*3 4.8 C 0 km/h
2491 23-12-2016 15:30:00 4.8 C 6.3 g/m*3 4.8 C 0 km/h
2492 23-12-2016 15:35:00 4.8 C 6.3 g/m*3 4.8 C 0 km/h
2493 23-12-2016 15:40:00 4.8 C 6.3 g/m*3 4.8 C 0 km/h
2494 23-12-2016 15:45:00 4.8 C 6.24 g/m*3 4.8 C 0 km/h
2495 23-12-2016 15:50:00 4.8 C 6.24 g/m*3 4.8 C 0 km/h
2496 23-12-2016 15:55:00 4.8 C 6.24 g/m*3 4.8 C 0 km/h
2497 23-12-2016 16:00:00 4.7 C 6.19 g/m*3 3.25 C 6.4 km/h
2498 23-12-2016 16:05:00 4.7 C 6.19 g/m*3 4.7 C 1.6 km/h
2499 23-12-2016 16:10:00 4.7 C 6.19 g/m*3 4.7 C 0 km/h
2500 23-12-2016 16:15:00 4.7 C 6.26 g/m*3 4.7 C 0 km/h
Sensor: Nr:Datum:Temp:Abs-Feuchte:Windchill:Wind:
Aussen-T/F 2501 23-12-2016 16:20:00 4.7 C 6.26 g/m*3 4.7 C 0 km/h
2502 23-12-2016 16:25:00 4.7 C 6.26 g/m*3 4.7 C 3.2 km/h
2503 23-12-2016 16:30:00 4.7 C 6.26 g/m*3 4.7 C 1.6 km/h
2504 23-12-2016 16:35:00 4.6 C 6.22 g/m*3 4.6 C 1.6 km/h
2505 23-12-2016 16:40:00 4.6 C 6.22 g/m*3 4.6 C 0 km/h
2506 23-12-2016 16:45:00 4.6 C 6.22 g/m*3 4.6 C 0 km/h
2507 23-12-2016 16:50:00 4.6 C 6.22 g/m*3 4.6 C 0 km/h
2508 23-12-2016 16:55:00 4.6 C 6.22 g/m*3 4.6 C 0 km/h
2509 23-12-2016 17:00:00 4.6 C 6.22 g/m*3 4.6 C 0 km/h
2510 23-12-2016 17:05:00 4.6 C 6.22 g/m*3 4.6 C 1.6 km/h
2511 23-12-2016 17:10:00 4.6 C 6.22 g/m*3 4.6 C 0 km/h
2512 23-12-2016 17:15:00 4.6 C 6.22 g/m*3 4.6 C 0 km/h
2513 23-12-2016 17:20:00 4.6 C 6.22 g/m*3 4.6 C 0 km/h
2514 23-12-2016 17:25:00 4.5 C 6.18 g/m*3 4.5 C 0 km/h
2515 23-12-2016 17:30:00 4.5 C 6.24 g/m*3 4.5 C 0 km/h
2516 23-12-2016 17:35:00 4.5 C 6.24 g/m*3 4.5 C 0 km/h
2517 23-12-2016 17:40:00 4.5 C 6.24 g/m*3 4.5 C 4.8 km/h
2518 23-12-2016 17:45:00 4.5 C 6.24 g/m*3 4.5 C 1.6 km/h
2519 23-12-2016 17:50:00 4.5 C 6.24 g/m*3 4.5 C 0 km/h
2520 23-12-2016 17:55:00 4.5 C 6.24 g/m*3 4.5 C 1.6 km/h
2521 23-12-2016 18:00:00 4.5 C 6.18 g/m*3 4.5 C 1.6 km/h
2522 23-12-2016 18:05:00 4.5 C 6.18 g/m*3 4.5 C 0 km/h
2523 23-12-2016 18:10:00 4.5 C 6.18 g/m*3 4.5 C 0 km/h
2524 23-12-2016 18:15:00 4.5 C 6.18 g/m*3 4.5 C 0 km/h
2525 23-12-2016 18:20:00 4.5 C 6.18 g/m*3 4.5 C 0 km/h
Sensor: Nr:Datum:Temp:Abs-Feuchte:Windchill:Wind:
Aussen-T/F 2526 23-12-2016 18:25:00 4.6 C 6.22 g/m*3 4.6 C 0 km/h
2527 23-12-2016 18:30:00 4.5 C 6.18 g/m*3 4.5 C 0 km/h
2528 23-12-2016 18:35:00 4.6 C 6.29 g/m*3 4.6 C 0 km/h
2529 23-12-2016 18:40:00 4.6 C 6.29 g/m*3 4.6 C 0 km/h
2530 23-12-2016 18:45:00 4.6 C 6.29 g/m*3 2.64 C 8.1 km/h
2531 23-12-2016 18:50:00 4.6 C 6.29 g/m*3 3.13 C 6.4 km/h
2532 23-12-2016 18:55:00 4.6 C 6.29 g/m*3 3.13 C 6.4 km/h
2533 23-12-2016 19:00:00 4.5 C 6.24 g/m*3 4.5 C 4.8 km/h
2534 23-12-2016 19:05:00 4.5 C 6.24 g/m*3 4.5 C 0 km/h
2535 23-12-2016 19:10:00 4.5 C 6.24 g/m*3 4.5 C 0 km/h
2536 23-12-2016 19:15:00 4.5 C 6.24 g/m*3 4.5 C 0 km/h
2537 23-12-2016 19:20:00 4.5 C 6.24 g/m*3 4.5 C 0 km/h
2538 23-12-2016 19:25:00 4.5 C 6.24 g/m*3 4.5 C 0 km/h
2539 23-12-2016 19:30:00 4.5 C 6.24 g/m*3 4.5 C 0 km/h
2540 23-12-2016 19:35:00 4.5 C 6.24 g/m*3 4.5 C 0 km/h
2541 23-12-2016 19:40:00 4.5 C 6.24 g/m*3 4.5 C 0 km/h
2542 23-12-2016 19:45:00 4.5 C 6.24 g/m*3 4.5 C 0 km/h
2543 23-12-2016 19:50:00 4.5 C 6.24 g/m*3 4.5 C 0 km/h
2544 23-12-2016 19:55:00 4.5 C 6.24 g/m*3 4.5 C 0 km/h
2545 23-12-2016 20:00:00 4.5 C 6.24 g/m*3 4.5 C 0 km/h
2546 23-12-2016 20:05:00 4.5 C 6.24 g/m*3 4.5 C 3.2 km/h
2547 23-12-2016 20:10:00 4.6 C 6.29 g/m*3 3.13 C 6.4 km/h
2548 23-12-2016 20:15:00 4.6 C 6.29 g/m*3 4.6 C 3.2 km/h
2549 23-12-2016 20:20:00 4.7 C 6.33 g/m*3 4.7 C 4.8 km/h
2550 23-12-2016 20:25:00 4.7 C 6.33 g/m*3 4.7 C 1.6 km/h
Sensor: Nr:Datum:Temp:Abs-Feuchte:Windchill:Wind:
Aussen-T/F 2551 23-12-2016 20:30:00 4.8 C 6.37 g/m*3 3.36 C 6.4 km/h
2552 23-12-2016 20:35:00 4.8 C 6.37 g/m*3 4.8 C 1.6 km/h
2553 23-12-2016 20:40:00 4.9 C 6.41 g/m*3 4.9 C 1.6 km/h
2554 23-12-2016 20:45:00 4.9 C 6.41 g/m*3 4.9 C 1.6 km/h
2555 23-12-2016 20:50:00 4.9 C 6.41 g/m*3 4.9 C 0 km/h
2556 23-12-2016 20:55:00 4.9 C 6.35 g/m*3 4.9 C 1.6 km/h
2557 23-12-2016 21:00:00 5 C 6.39 g/m*3 5 C 0 km/h
2558 23-12-2016 21:05:00 5 C 6.39 g/m*3 5 C 1.6 km/h
2559 23-12-2016 21:10:00 5.1 C 6.43 g/m*3 3.71 C 6.4 km/h
2560 23-12-2016 21:15:00 5.1 C 6.43 g/m*3 5.1 C 3.2 km/h
2561 23-12-2016 21:20:00 5.1 C 6.43 g/m*3 5.1 C 0 km/h
2562 23-12-2016 21:25:00 5.1 C 6.43 g/m*3 5.1 C 3.2 km/h
2563 23-12-2016 21:30:00 5.1 C 6.43 g/m*3 5.1 C 1.6 km/h
2564 23-12-2016 21:35:00 4.9 C 6.35 g/m*3 4.9 C 0 km/h
2565 23-12-2016 21:40:00 4.8 C 6.24 g/m*3 4.8 C 3.2 km/h
2566 23-12-2016 21:45:00 4.7 C 6.19 g/m*3 4.7 C 4.8 km/h
2567 23-12-2016 21:50:00 4.5 C 6.11 g/m*3 4.5 C 4.8 km/h
2568 23-12-2016 21:55:00 4.4 C 6.14 g/m*3 4.4 C 3.2 km/h
2569 23-12-2016 22:00:00 4.3 C 6.1 g/m*3 4.3 C 3.2 km/h
2570 23-12-2016 22:05:00 4.3 C 6.1 g/m*3 4.3 C 4.8 km/h
2571 23-12-2016 22:10:00 4.4 C 6.14 g/m*3 4.4 C 4.8 km/h
2572 23-12-2016 22:15:00 4.5 C 6.24 g/m*3 4.5 C 3.2 km/h
2573 23-12-2016 22:20:00 4.6 C 6.29 g/m*3 4.6 C 3.2 km/h
2574 23-12-2016 22:25:00 4.6 C 6.29 g/m*3 4.6 C 1.6 km/h
2575 23-12-2016 22:30:00 4.6 C 6.29 g/m*3 4.6 C 0 km/h
Sensor: Nr:Datum:Temp:Abs-Feuchte:Windchill:Wind:
Aussen-T/F 2576 23-12-2016 22:35:00 4.7 C 6.33 g/m*3 4.7 C 0 km/h
2577 23-12-2016 22:40:00 4.7 C 6.33 g/m*3 4.7 C 1.6 km/h
2578 23-12-2016 22:45:00 4.7 C 6.33 g/m*3 4.7 C 0 km/h
2579 23-12-2016 22:50:00 4.7 C 6.33 g/m*3 4.7 C 0 km/h
2580 23-12-2016 22:55:00 4.8 C 6.37 g/m*3 4.8 C 1.6 km/h
2581 23-12-2016 23:00:00 4.9 C 6.41 g/m*3 4.9 C 3.2 km/h
2582 23-12-2016 23:05:00 5 C 6.46 g/m*3 5 C 4.8 km/h
2583 23-12-2016 23:10:00 5.2 C 6.54 g/m*3 3.82 C 6.4 km/h
2584 23-12-2016 23:15:00 5.3 C 6.58 g/m*3 2.75 C 11.3 km/h
2585 23-12-2016 23:20:00 5.4 C 6.56 g/m*3 4.06 C 6.4 km/h
2586 23-12-2016 23:25:00 5.6 C 6.57 g/m*3 2.33 C 16.1 km/h
2587 23-12-2016 23:30:00 5.7 C 6.55 g/m*3 3.23 C 11.3 km/h
2588 23-12-2016 23:35:00 5.8 C 6.59 g/m*3 5.8 C 4.8 km/h
2589 23-12-2016 23:40:00 5.9 C 6.56 g/m*3 3.48 C 11.3 km/h
2590 23-12-2016 23:45:00 6 C 6.53 g/m*3 3.31 C 12.9 km/h
2591 23-12-2016 23:50:00 6.1 C 6.5 g/m*3 3.72 C 11.3 km/h
2592 23-12-2016 23:55:00 6.2 C 6.55 g/m*3 4.98 C 6.4 km/h
2593 24-12-2016 00:00:00 6.2 C 6.55 g/m*3 3.56 C 12.9 km/h
2594 24-12-2016 00:05:00 6.2 C 6.55 g/m*3 4.52 C 8.1 km/h
2595 24-12-2016 00:10:00 6.2 C 6.55 g/m*3 4.15 C 9.7 km/h
2596 24-12-2016 00:15:00 6.2 C 6.55 g/m*3 4.52 C 8.1 km/h
2597 24-12-2016 00:20:00 6.2 C 6.55 g/m*3 4.52 C 8.1 km/h
2598 24-12-2016 00:25:00 6.2 C 6.47 g/m*3 4.98 C 6.4 km/h
2599 24-12-2016 00:30:00 6.3 C 6.59 g/m*3 6.3 C 4.8 km/h
2600 24-12-2016 00:35:00 6.3 C 6.59 g/m*3 6.3 C 4.8 km/h
Sensor: Nr:Datum:Temp:Abs-Feuchte:Windchill:Wind:
Aussen-T/F 2601 24-12-2016 00:40:00 6.3 C 6.59 g/m*3 5.1 C 6.4 km/h
2602 24-12-2016 00:45:00 6.3 C 6.59 g/m*3 3.96 C 11.3 km/h
2603 24-12-2016 00:50:00 6.3 C 6.59 g/m*3 4.27 C 9.7 km/h
2604 24-12-2016 00:55:00 6.3 C 6.51 g/m*3 3.68 C 12.9 km/h
2605 24-12-2016 01:00:00 6.4 C 6.56 g/m*3 2.91 C 19.3 km/h
2606 24-12-2016 01:05:00 6.5 C 6.6 g/m*3 2.86 C 20.9 km/h
2607 24-12-2016 01:10:00 6.6 C 6.64 g/m*3 4.63 C 9.7 km/h
2608 24-12-2016 01:15:00 6.6 C 6.64 g/m*3 3.79 C 14.5 km/h
2609 24-12-2016 01:20:00 6.7 C 6.69 g/m*3 3.11 C 20.9 km/h
2610 24-12-2016 01:25:00 6.7 C 6.69 g/m*3 3.48 C 17.7 km/h
2611 24-12-2016 01:30:00 6.7 C 6.69 g/m*3 3.92 C 14.5 km/h
2612 24-12-2016 01:35:00 6.7 C 6.69 g/m*3 3.48 C 17.7 km/h
2613 24-12-2016 01:40:00 6.8 C 6.73 g/m*3 3.61 C 17.7 km/h
2614 24-12-2016 01:45:00 6.8 C 6.73 g/m*3 4.29 C 12.9 km/h
2615 24-12-2016 01:50:00 6.8 C 6.73 g/m*3 3.24 C 20.9 km/h
2616 24-12-2016 01:55:00 6.8 C 6.73 g/m*3 2.35 C 30.6 km/h
2617 24-12-2016 02:00:00 6.8 C 6.73 g/m*3 3.42 C 19.3 km/h
2618 24-12-2016 02:05:00 6.8 C 6.73 g/m*3 4.29 C 12.9 km/h
2619 24-12-2016 02:10:00 6.8 C 6.73 g/m*3 3.82 C 16.1 km/h
2620 24-12-2016 02:15:00 6.8 C 6.73 g/m*3 4.87 C 9.7 km/h
2621 24-12-2016 02:20:00 6.8 C 6.73 g/m*3 4.87 C 9.7 km/h
2622 24-12-2016 02:25:00 6.8 C 6.73 g/m*3 5.67 C 6.4 km/h
2623 24-12-2016 02:30:00 6.8 C 6.73 g/m*3 5.22 C 8.1 km/h
2624 24-12-2016 02:35:00 6.8 C 6.73 g/m*3 5.22 C 8.1 km/h
2625 24-12-2016 02:40:00 6.7 C 6.69 g/m*3 3.69 C 16.1 km/h
Sensor: Nr:Datum:Temp:Abs-Feuchte:Windchill:Wind:
Aussen-T/F 2626 24-12-2016 02:45:00 6.7 C 6.69 g/m*3 4.44 C 11.3 km/h
2627 24-12-2016 02:50:00 6.7 C 6.69 g/m*3 3.69 C 16.1 km/h
2628 24-12-2016 02:55:00 6.7 C 6.69 g/m*3 3.69 C 16.1 km/h
2629 24-12-2016 03:00:00 6.7 C 6.69 g/m*3 4.44 C 11.3 km/h
2630 24-12-2016 03:05:00 6.8 C 6.73 g/m*3 3.82 C 16.1 km/h
2631 24-12-2016 03:10:00 6.8 C 6.73 g/m*3 4.56 C 11.3 km/h
2632 24-12-2016 03:15:00 6.8 C 6.81 g/m*3 5.67 C 6.4 km/h
2633 24-12-2016 03:20:00 6.8 C 6.73 g/m*3 4.29 C 12.9 km/h
2634 24-12-2016 03:25:00 6.8 C 6.73 g/m*3 4.29 C 12.9 km/h
2635 24-12-2016 03:30:00 6.8 C 6.73 g/m*3 4.29 C 12.9 km/h
2636 24-12-2016 03:35:00 6.8 C 6.73 g/m*3 4.56 C 11.3 km/h
2637 24-12-2016 03:40:00 6.8 C 6.81 g/m*3 4.29 C 12.9 km/h
2638 24-12-2016 03:45:00 6.8 C 6.81 g/m*3 3.61 C 17.7 km/h
2639 24-12-2016 03:50:00 6.8 C 6.81 g/m*3 4.56 C 11.3 km/h
2640 24-12-2016 03:55:00 6.8 C 6.81 g/m*3 4.04 C 14.5 km/h
2641 24-12-2016 04:00:00 6.8 C 6.81 g/m*3 3.24 C 20.9 km/h
2642 24-12-2016 04:05:00 6.8 C 6.81 g/m*3 4.29 C 12.9 km/h
2643 24-12-2016 04:10:00 6.8 C 6.81 g/m*3 4.29 C 12.9 km/h
2644 24-12-2016 04:15:00 6.8 C 6.81 g/m*3 4.04 C 14.5 km/h
2645 24-12-2016 04:20:00 6.8 C 6.81 g/m*3 3.82 C 16.1 km/h
2646 24-12-2016 04:25:00 6.8 C 6.81 g/m*3 3.42 C 19.3 km/h
2647 24-12-2016 04:30:00 6.8 C 6.81 g/m*3 3.07 C 22.5 km/h
2648 24-12-2016 04:35:00 6.9 C 6.85 g/m*3 3.94 C 16.1 km/h
2649 24-12-2016 04:40:00 6.9 C 6.85 g/m*3 3.2 C 22.5 km/h
2650 24-12-2016 04:45:00 6.9 C 6.85 g/m*3 2.74 C 27.4 km/h
Sensor: Nr:Datum:Temp:Abs-Feuchte:Windchill:Wind:
Aussen-T/F 2651 24-12-2016 04:50:00 6.9 C 6.85 g/m*3 4.16 C 14.5 km/h
2652 24-12-2016 04:55:00 6.9 C 6.85 g/m*3 3.94 C 16.1 km/h
2653 24-12-2016 05:00:00 6.9 C 6.85 g/m*3 3.73 C 17.7 km/h
2654 24-12-2016 05:05:00 6.8 C 6.81 g/m*3 2.61 C 27.4 km/h
2655 24-12-2016 05:10:00 6.8 C 6.81 g/m*3 3.82 C 16.1 km/h
2656 24-12-2016 05:15:00 6.8 C 6.81 g/m*3 3.42 C 19.3 km/h
2657 24-12-2016 05:20:00 6.8 C 6.81 g/m*3 2.91 C 24.1 km/h
2658 24-12-2016 05:25:00 6.8 C 6.81 g/m*3 3.07 C 22.5 km/h
2659 24-12-2016 05:30:00 6.8 C 6.81 g/m*3 3.42 C 19.3 km/h
2660 24-12-2016 05:35:00 6.8 C 6.81 g/m*3 4.29 C 12.9 km/h
2661 24-12-2016 05:40:00 6.8 C 6.88 g/m*3 3.07 C 22.5 km/h
2662 24-12-2016 05:45:00 6.8 C 6.88 g/m*3 3.82 C 16.1 km/h
2663 24-12-2016 05:50:00 6.8 C 6.88 g/m*3 2.48 C 29 km/h
2664 24-12-2016 05:55:00 6.7 C 6.91 g/m*3 3.29 C 19.3 km/h
2665 24-12-2016 06:00:00 6.7 C 6.99 g/m*3 3.11 C 20.9 km/h
2666 24-12-2016 06:05:00 6.6 C 6.95 g/m*3 2.51 C 25.7 km/h
2667 24-12-2016 06:10:00 6.6 C 6.95 g/m*3 3.79 C 14.5 km/h
2668 24-12-2016 06:15:00 6.5 C 6.9 g/m*3 3.44 C 16.1 km/h
2669 24-12-2016 06:20:00 6.6 C 6.95 g/m*3 3.36 C 17.7 km/h
2670 24-12-2016 06:25:00 6.6 C 6.95 g/m*3 3.57 C 16.1 km/h
2671 24-12-2016 06:30:00 6.6 C 6.95 g/m*3 3.79 C 14.5 km/h
2672 24-12-2016 06:35:00 6.6 C 6.95 g/m*3 3.79 C 14.5 km/h
2673 24-12-2016 06:40:00 6.6 C 6.95 g/m*3 3.79 C 14.5 km/h
2674 24-12-2016 06:45:00 6.6 C 6.95 g/m*3 3.36 C 17.7 km/h
2675 24-12-2016 06:50:00 6.6 C 6.95 g/m*3 4.63 C 9.7 km/h
Sensor: Nr:Datum:Temp:Abs-Feuchte:Windchill:Wind:
Aussen-T/F 2676 24-12-2016 06:55:00 6.6 C 6.95 g/m*3 3.57 C 16.1 km/h
2677 24-12-2016 07:00:00 6.6 C 6.95 g/m*3 4.04 C 12.9 km/h
2678 24-12-2016 07:05:00 6.6 C 6.95 g/m*3 4.32 C 11.3 km/h
2679 24-12-2016 07:10:00 6.7 C 6.99 g/m*3 4.44 C 11.3 km/h
2680 24-12-2016 07:15:00 6.7 C 6.91 g/m*3 3.92 C 14.5 km/h
2681 24-12-2016 07:20:00 6.7 C 6.91 g/m*3 4.17 C 12.9 km/h
2682 24-12-2016 07:25:00 6.7 C 6.91 g/m*3 4.44 C 11.3 km/h
2683 24-12-2016 07:30:00 6.7 C 6.91 g/m*3 5.11 C 8.1 km/h
2684 24-12-2016 07:35:00 6.7 C 6.91 g/m*3 4.17 C 12.9 km/h
2685 24-12-2016 07:40:00 6.7 C 6.91 g/m*3 4.75 C 9.7 km/h
2686 24-12-2016 07:45:00 6.8 C 6.96 g/m*3 3.82 C 16.1 km/h
2687 24-12-2016 07:50:00 6.8 C 6.96 g/m*3 4.29 C 12.9 km/h
2688 24-12-2016 07:55:00 6.8 C 6.96 g/m*3 6.8 C 4.8 km/h
2689 24-12-2016 08:00:00 6.8 C 6.96 g/m*3 4.87 C 9.7 km/h
2690 24-12-2016 08:05:00 6.8 C 7.04 g/m*3 4.56 C 11.3 km/h
2691 24-12-2016 08:10:00 6.8 C 7.04 g/m*3 4.04 C 14.5 km/h
2692 24-12-2016 08:15:00 6.8 C 6.96 g/m*3 5.22 C 8.1 km/h
2693 24-12-2016 08:20:00 6.8 C 7.04 g/m*3 5.67 C 6.4 km/h
2694 24-12-2016 08:25:00 6.9 C 7.08 g/m*3 4.41 C 12.9 km/h
2695 24-12-2016 08:30:00 6.9 C 7.08 g/m*3 4.99 C 9.7 km/h
2696 24-12-2016 08:35:00 6.9 C 7.08 g/m*3 4.16 C 14.5 km/h
2697 24-12-2016 08:40:00 6.9 C 7.08 g/m*3 4.68 C 11.3 km/h
2698 24-12-2016 08:45:00 6.9 C 7.08 g/m*3 4.99 C 9.7 km/h
2699 24-12-2016 08:50:00 6.9 C 7.08 g/m*3 4.99 C 9.7 km/h
2700 24-12-2016 08:55:00 6.9 C 7.01 g/m*3 5.34 C 8.1 km/h
Sensor: Nr:Datum:Temp:Abs-Feuchte:Windchill:Wind:
Aussen-T/F 2701 24-12-2016 09:00:00 6.8 C 6.96 g/m*3 4.87 C 9.7 km/h
2702 24-12-2016 09:05:00 6.8 C 6.96 g/m*3 4.87 C 9.7 km/h
2703 24-12-2016 09:10:00 6.9 C 7.01 g/m*3 4.68 C 11.3 km/h
2704 24-12-2016 09:15:00 6.9 C 7.01 g/m*3 4.99 C 9.7 km/h
2705 24-12-2016 09:20:00 7.1 C 7.02 g/m*3 4.92 C 11.3 km/h
2706 24-12-2016 09:25:00 7.2 C 7.06 g/m*3 5.35 C 9.7 km/h
2707 24-12-2016 09:30:00 7.2 C 7.06 g/m*3 4.77 C 12.9 km/h
2708 24-12-2016 09:35:00 7.2 C 7.06 g/m*3 5.04 C 11.3 km/h
2709 24-12-2016 09:40:00 7.3 C 7.03 g/m*3 5.81 C 8.1 km/h
2710 24-12-2016 09:45:00 7.3 C 7.03 g/m*3 5.47 C 9.7 km/h
2711 24-12-2016 09:50:00 7.4 C 7.08 g/m*3 4.78 C 14.5 km/h
2712 24-12-2016 09:55:00 7.4 C 7 g/m*3 5.02 C 12.9 km/h
2713 24-12-2016 10:00:00 7.4 C 7 g/m*3 5.28 C 11.3 km/h
2714 24-12-2016 10:05:00 7.4 C 7 g/m*3 5.93 C 8.1 km/h
2715 24-12-2016 10:10:00 7.3 C 7.03 g/m*3 4.9 C 12.9 km/h
2716 24-12-2016 10:15:00 7.3 C 6.95 g/m*3 4.9 C 12.9 km/h
2717 24-12-2016 10:20:00 7.3 C 6.95 g/m*3 5.81 C 8.1 km/h
2718 24-12-2016 10:25:00 7.3 C 6.95 g/m*3 4.9 C 12.9 km/h
2719 24-12-2016 10:30:00 7.3 C 7.03 g/m*3 5.81 C 8.1 km/h
2720 24-12-2016 10:35:00 7.3 C 7.03 g/m*3 6.25 C 6.4 km/h
2721 24-12-2016 10:40:00 7.3 C 7.03 g/m*3 4.23 C 17.7 km/h
2722 24-12-2016 10:45:00 7.4 C 7.08 g/m*3 4.78 C 14.5 km/h
2723 24-12-2016 10:50:00 7.6 C 7.17 g/m*3 5.26 C 12.9 km/h
2724 24-12-2016 10:55:00 7.7 C 7.14 g/m*3 5.38 C 12.9 km/h
2725 24-12-2016 11:00:00 7.8 C 7.1 g/m*3 5.27 C 14.5 km/h
Sensor: Nr:Datum:Temp:Abs-Feuchte:Windchill:Wind:
Aussen-T/F 2726 24-12-2016 11:05:00 7.9 C 7.15 g/m*3 5.63 C 12.9 km/h
2727 24-12-2016 11:10:00 8 C 7.11 g/m*3 6.64 C 8.1 km/h
2728 24-12-2016 11:15:00 8 C 7.19 g/m*3 6.01 C 11.3 km/h
2729 24-12-2016 11:20:00 8.1 C 7.16 g/m*3 5.64 C 14.5 km/h
2730 24-12-2016 11:25:00 8.2 C 7.2 g/m*3 5.99 C 12.9 km/h
2731 24-12-2016 11:30:00 8.2 C 7.29 g/m*3 5.76 C 14.5 km/h
2732 24-12-2016 11:35:00 8.1 C 7.32 g/m*3 6.75 C 8.1 km/h
2733 24-12-2016 11:40:00 8 C 7.28 g/m*3 5.75 C 12.9 km/h
2734 24-12-2016 11:45:00 7.9 C 7.23 g/m*3 6.18 C 9.7 km/h
2735 24-12-2016 11:50:00 7.9 C 7.23 g/m*3 5.18 C 16.1 km/h
2736 24-12-2016 11:55:00 7.9 C 7.23 g/m*3 5.63 C 12.9 km/h
2737 24-12-2016 12:00:00 7.9 C 7.23 g/m*3 5.39 C 14.5 km/h
2738 24-12-2016 12:05:00 7.9 C 7.23 g/m*3 6.18 C 9.7 km/h
2739 24-12-2016 12:10:00 7.9 C 7.23 g/m*3 5.89 C 11.3 km/h
2740 24-12-2016 12:15:00 8 C 7.19 g/m*3 6.01 C 11.3 km/h
2741 24-12-2016 12:20:00 8.1 C 7.24 g/m*3 5.05 C 19.3 km/h
2742 24-12-2016 12:25:00 8.2 C 7.2 g/m*3 5.99 C 12.9 km/h
2743 24-12-2016 12:30:00 8.2 C 7.2 g/m*3 5.99 C 12.9 km/h
2744 24-12-2016 12:35:00 8.3 C 7.25 g/m*3 6.66 C 9.7 km/h
2745 24-12-2016 12:40:00 8.3 C 7.25 g/m*3 6.12 C 12.9 km/h
2746 24-12-2016 12:45:00 8.4 C 7.3 g/m*3 6.78 C 9.7 km/h
2747 24-12-2016 12:50:00 8.4 C 7.3 g/m*3 7.11 C 8.1 km/h
2748 24-12-2016 12:55:00 8.4 C 7.3 g/m*3 6.24 C 12.9 km/h
2749 24-12-2016 13:00:00 8.4 C 7.3 g/m*3 6.49 C 11.3 km/h
2750 24-12-2016 13:05:00 8.4 C 7.13 g/m*3 6.49 C 11.3 km/h
Sensor: Nr:Datum:Temp:Abs-Feuchte:Windchill:Wind:
Aussen-T/F 2751 24-12-2016 13:10:00 8.4 C 6.53 g/m*3 5.11 C 22.5 km/h
2752 24-12-2016 13:15:00 8.5 C 6.49 g/m*3 6.36 C 12.9 km/h
2753 24-12-2016 13:20:00 8.5 C 6.57 g/m*3 5.92 C 16.1 km/h
2754 24-12-2016 13:25:00 8.6 C 6.44 g/m*3 6.25 C 14.5 km/h
2755 24-12-2016 13:30:00 8.5 C 6.4 g/m*3 5.39 C 20.9 km/h
2756 24-12-2016 13:35:00 8.5 C 6.49 g/m*3 5.73 C 17.7 km/h
2757 24-12-2016 13:40:00 8.4 C 6.36 g/m*3 5.8 C 16.1 km/h
2758 24-12-2016 13:45:00 8.4 C 6.36 g/m*3 5.27 C 20.9 km/h
2759 24-12-2016 13:50:00 8.4 C 6.36 g/m*3 6.49 C 11.3 km/h
2760 24-12-2016 13:55:00 8.3 C 6.41 g/m*3 6.66 C 9.7 km/h
2761 24-12-2016 14:00:00 8.3 C 6.32 g/m*3 6.37 C 11.3 km/h
2762 24-12-2016 14:05:00 8.3 C 6.32 g/m*3 5.68 C 16.1 km/h
2763 24-12-2016 14:10:00 8.2 C 6.36 g/m*3 6.25 C 11.3 km/h
2764 24-12-2016 14:15:00 8.2 C 6.45 g/m*3 6.25 C 11.3 km/h
2765 24-12-2016 14:20:00 8.1 C 6.41 g/m*3 6.13 C 11.3 km/h
2766 24-12-2016 14:25:00 8.1 C 6.41 g/m*3 6.13 C 11.3 km/h
2767 24-12-2016 14:30:00 8.1 C 6.41 g/m*3 6.13 C 11.3 km/h
2768 24-12-2016 14:35:00 8.1 C 6.41 g/m*3 6.42 C 9.7 km/h
2769 24-12-2016 14:40:00 8.1 C 6.49 g/m*3 6.13 C 11.3 km/h
2770 24-12-2016 14:45:00 8 C 6.45 g/m*3 6.01 C 11.3 km/h
2771 24-12-2016 14:50:00 8 C 6.45 g/m*3 5.3 C 16.1 km/h
2772 24-12-2016 14:55:00 8 C 6.45 g/m*3 6.3 C 9.7 km/h
2773 24-12-2016 15:00:00 8 C 6.53 g/m*3 7.06 C 6.4 km/h
2774 24-12-2016 15:05:00 7.9 C 6.41 g/m*3 5.63 C 12.9 km/h
2775 24-12-2016 15:10:00 7.9 C 6.41 g/m*3 5.63 C 12.9 km/h
Sensor: Nr:Datum:Temp:Abs-Feuchte:Windchill:Wind:
Aussen-T/F 2776 24-12-2016 15:15:00 7.9 C 6.49 g/m*3 5.89 C 11.3 km/h
2777 24-12-2016 15:20:00 7.9 C 6.49 g/m*3 6.52 C 8.1 km/h
2778 24-12-2016 15:25:00 7.8 C 6.53 g/m*3 7.8 C 4.8 km/h
2779 24-12-2016 15:30:00 7.8 C 6.45 g/m*3 5.51 C 12.9 km/h
2780 24-12-2016 15:35:00 7.8 C 6.45 g/m*3 5.27 C 14.5 km/h
2781 24-12-2016 15:40:00 7.8 C 6.53 g/m*3 7.8 C 4.8 km/h
2782 24-12-2016 15:45:00 7.7 C 6.49 g/m*3 6.28 C 8.1 km/h
2783 24-12-2016 15:50:00 7.6 C 6.44 g/m*3 7.6 C 4.8 km/h
2784 24-12-2016 15:55:00 7.6 C 6.44 g/m*3 6.16 C 8.1 km/h
2785 24-12-2016 16:00:00 7.5 C 6.48 g/m*3 6.05 C 8.1 km/h
2786 24-12-2016 16:05:00 7.4 C 6.44 g/m*3 5.02 C 12.9 km/h
2787 24-12-2016 16:10:00 7.4 C 6.44 g/m*3 7.4 C 4.8 km/h
2788 24-12-2016 16:15:00 7.3 C 6.4 g/m*3 7.3 C 3.2 km/h
2789 24-12-2016 16:20:00 7.3 C 6.48 g/m*3 5.47 C 9.7 km/h
2790 24-12-2016 16:25:00 7.2 C 6.44 g/m*3 5.35 C 9.7 km/h
2791 24-12-2016 16:30:00 7.2 C 6.44 g/m*3 5.04 C 11.3 km/h
2792 24-12-2016 16:35:00 7.1 C 6.4 g/m*3 7.1 C 3.2 km/h
2793 24-12-2016 16:40:00 6.9 C 6.39 g/m*3 6.9 C 3.2 km/h
2794 24-12-2016 16:45:00 6.7 C 6.31 g/m*3 5.56 C 6.4 km/h
2795 24-12-2016 16:50:00 6.7 C 6.38 g/m*3 5.56 C 6.4 km/h
2796 24-12-2016 16:55:00 6.6 C 6.34 g/m*3 6.6 C 3.2 km/h
2797 24-12-2016 17:00:00 6.4 C 6.33 g/m*3 6.4 C 3.2 km/h
2798 24-12-2016 17:05:00 6.3 C 6.29 g/m*3 6.3 C 3.2 km/h
2799 24-12-2016 17:10:00 6.2 C 6.32 g/m*3 6.2 C 3.2 km/h
2800 24-12-2016 17:15:00 6.1 C 6.28 g/m*3 6.1 C 3.2 km/h
Sensor: Nr:Datum:Temp:Abs-Feuchte:Windchill:Wind:
Aussen-T/F 2801 24-12-2016 17:20:00 6.1 C 6.36 g/m*3 4.86 C 6.4 km/h
2802 24-12-2016 17:25:00 6.1 C 6.36 g/m*3 6.1 C 3.2 km/h
2803 24-12-2016 17:30:00 6.1 C 6.36 g/m*3 6.1 C 3.2 km/h
2804 24-12-2016 17:35:00 6.1 C 6.36 g/m*3 6.1 C 4.8 km/h
2805 24-12-2016 17:40:00 6.1 C 6.36 g/m*3 6.1 C 3.2 km/h
2806 24-12-2016 17:45:00 6.1 C 6.36 g/m*3 6.1 C 1.6 km/h
2807 24-12-2016 17:50:00 6 C 6.39 g/m*3 6 C 3.2 km/h
2808 24-12-2016 17:55:00 5.9 C 6.35 g/m*3 5.9 C 1.6 km/h
2809 24-12-2016 18:00:00 5.9 C 6.42 g/m*3 4.63 C 6.4 km/h
2810 24-12-2016 18:05:00 5.9 C 6.42 g/m*3 5.9 C 1.6 km/h
2811 24-12-2016 18:10:00 5.9 C 6.42 g/m*3 5.9 C 4.8 km/h
2812 24-12-2016 18:15:00 5.9 C 6.42 g/m*3 5.9 C 3.2 km/h
2813 24-12-2016 18:20:00 5.9 C 6.42 g/m*3 5.9 C 3.2 km/h
2814 24-12-2016 18:25:00 5.8 C 6.38 g/m*3 5.8 C 3.2 km/h
2815 24-12-2016 18:30:00 5.8 C 6.38 g/m*3 5.8 C 4.8 km/h
2816 24-12-2016 18:35:00 5.8 C 6.38 g/m*3 5.8 C 3.2 km/h
2817 24-12-2016 18:40:00 5.8 C 6.45 g/m*3 4.52 C 6.4 km/h
2818 24-12-2016 18:45:00 5.8 C 6.45 g/m*3 5.8 C 3.2 km/h
2819 24-12-2016 18:50:00 5.8 C 6.45 g/m*3 4.52 C 6.4 km/h
2820 24-12-2016 18:55:00 5.8 C 6.45 g/m*3 5.8 C 4.8 km/h
2821 24-12-2016 19:00:00 6 C 6.53 g/m*3 4.28 C 8.1 km/h
2822 24-12-2016 19:05:00 6.1 C 6.58 g/m*3 6.1 C 3.2 km/h
2823 24-12-2016 19:10:00 6.1 C 6.58 g/m*3 4.86 C 6.4 km/h
2824 24-12-2016 19:15:00 6.1 C 6.5 g/m*3 6.1 C 4.8 km/h
2825 24-12-2016 19:20:00 6.2 C 6.55 g/m*3 4.15 C 9.7 km/h
Sensor: Nr:Datum:Temp:Abs-Feuchte:Windchill:Wind:
Aussen-T/F 2826 24-12-2016 19:25:00 6.3 C 6.59 g/m*3 3.96 C 11.3 km/h
2827 24-12-2016 19:30:00 6.4 C 6.63 g/m*3 4.39 C 9.7 km/h
2828 24-12-2016 19:35:00 6.5 C 6.67 g/m*3 4.87 C 8.1 km/h
2829 24-12-2016 19:40:00 6.6 C 6.72 g/m*3 6.6 C 4.8 km/h
2830 24-12-2016 19:45:00 6.7 C 6.69 g/m*3 5.56 C 6.4 km/h
2831 24-12-2016 19:50:00 6.7 C 6.69 g/m*3 6.7 C 4.8 km/h
2832 24-12-2016 19:55:00 6.8 C 6.73 g/m*3 5.22 C 8.1 km/h
2833 24-12-2016 20:00:00 6.8 C 6.73 g/m*3 3.82 C 16.1 km/h
2834 24-12-2016 20:05:00 6.8 C 6.73 g/m*3 5.67 C 6.4 km/h
2835 24-12-2016 20:10:00 6.8 C 6.73 g/m*3 4.87 C 9.7 km/h
2836 24-12-2016 20:15:00 6.8 C 6.73 g/m*3 4.56 C 11.3 km/h
2837 24-12-2016 20:20:00 6.9 C 6.77 g/m*3 5.79 C 6.4 km/h
2838 24-12-2016 20:25:00 7 C 6.82 g/m*3 4.06 C 16.1 km/h
2839 24-12-2016 20:30:00 7.1 C 6.86 g/m*3 5.58 C 8.1 km/h
2840 24-12-2016 20:35:00 7.2 C 6.83 g/m*3 4.53 C 14.5 km/h
2841 24-12-2016 20:40:00 7.3 C 6.87 g/m*3 5.16 C 11.3 km/h
2842 24-12-2016 20:45:00 7.4 C 6.92 g/m*3 5.02 C 12.9 km/h
2843 24-12-2016 20:50:00 7.6 C 6.93 g/m*3 4.81 C 16.1 km/h
2844 24-12-2016 20:55:00 7.8 C 7.02 g/m*3 5.27 C 14.5 km/h
2845 24-12-2016 21:00:00 7.8 C 6.94 g/m*3 6.06 C 9.7 km/h
2846 24-12-2016 21:05:00 7.9 C 6.98 g/m*3 5.18 C 16.1 km/h
2847 24-12-2016 21:10:00 7.9 C 6.9 g/m*3 5.39 C 14.5 km/h
2848 24-12-2016 21:15:00 7.9 C 6.9 g/m*3 5.63 C 12.9 km/h
2849 24-12-2016 21:20:00 7.9 C 6.98 g/m*3 5.89 C 11.3 km/h
2850 24-12-2016 21:25:00 7.9 C 6.98 g/m*3 6.18 C 9.7 km/h
Sensor: Nr:Datum:Temp:Abs-Feuchte:Windchill:Wind:
Aussen-T/F 2851 24-12-2016 21:30:00 7.8 C 6.94 g/m*3 5.27 C 14.5 km/h
2852 24-12-2016 21:35:00 7.8 C 6.94 g/m*3 5.77 C 11.3 km/h
2853 24-12-2016 21:40:00 7.8 C 6.94 g/m*3 5.06 C 16.1 km/h
2854 24-12-2016 21:45:00 7.8 C 6.94 g/m*3 6.4 C 8.1 km/h
2855 24-12-2016 21:50:00 7.9 C 6.98 g/m*3 6.18 C 9.7 km/h
2856 24-12-2016 21:55:00 8 C 6.94 g/m*3 5.52 C 14.5 km/h
2857 24-12-2016 22:00:00 8.1 C 6.99 g/m*3 5.87 C 12.9 km/h
2858 24-12-2016 22:05:00 8.1 C 6.99 g/m*3 5.43 C 16.1 km/h
2859 24-12-2016 22:10:00 8.1 C 6.99 g/m*3 5.23 C 17.7 km/h
2860 24-12-2016 22:15:00 8.1 C 6.99 g/m*3 5.64 C 14.5 km/h
2861 24-12-2016 22:20:00 8.1 C 6.99 g/m*3 5.87 C 12.9 km/h
2862 24-12-2016 22:25:00 8.2 C 6.95 g/m*3 5.36 C 17.7 km/h
2863 24-12-2016 22:30:00 8.3 C 7 g/m*3 5.31 C 19.3 km/h
2864 24-12-2016 22:35:00 8.3 C 7 g/m*3 5.68 C 16.1 km/h
2865 24-12-2016 22:40:00 8.3 C 7 g/m*3 6.37 C 11.3 km/h
2866 24-12-2016 22:45:00 8.2 C 6.95 g/m*3 6.25 C 11.3 km/h
2867 24-12-2016 22:50:00 8.3 C 7.08 g/m*3 6.37 C 11.3 km/h
2868 24-12-2016 22:55:00 8.2 C 7.03 g/m*3 6.54 C 9.7 km/h
2869 24-12-2016 23:00:00 8.2 C 7.03 g/m*3 6.54 C 9.7 km/h
2870 24-12-2016 23:05:00 8.2 C 7.03 g/m*3 6.25 C 11.3 km/h
2871 24-12-2016 23:10:00 8.2 C 7.03 g/m*3 7.29 C 6.4 km/h
2872 24-12-2016 23:15:00 8.2 C 7.03 g/m*3 6.25 C 11.3 km/h
2873 24-12-2016 23:20:00 8.2 C 7.03 g/m*3 8.2 C 4.8 km/h
2874 24-12-2016 23:25:00 8.2 C 7.03 g/m*3 6.54 C 9.7 km/h
2875 24-12-2016 23:30:00 8.1 C 7.07 g/m*3 7.17 C 6.4 km/h
Sensor: Nr:Datum:Temp:Abs-Feuchte:Windchill:Wind:
Aussen-T/F 2876 24-12-2016 23:35:00 8.1 C 7.07 g/m*3 5.43 C 16.1 km/h
2877 24-12-2016 23:40:00 8.1 C 7.07 g/m*3 6.42 C 9.7 km/h
2878 24-12-2016 23:45:00 8.1 C 7.07 g/m*3 6.75 C 8.1 km/h
2879 24-12-2016 23:50:00 8.1 C 7.07 g/m*3 5.87 C 12.9 km/h
2880 24-12-2016 23:55:00 8.1 C 7.16 g/m*3 5.23 C 17.7 km/h
2881 25-12-2016 00:00:00 8.1 C 7.16 g/m*3 5.23 C 17.7 km/h
2882 25-12-2016 00:05:00 8 C 7.19 g/m*3 5.75 C 12.9 km/h
2883 25-12-2016 00:10:00 7.9 C 7.15 g/m*3 5.39 C 14.5 km/h
2884 25-12-2016 00:15:00 7.8 C 7.18 g/m*3 5.06 C 16.1 km/h
2885 25-12-2016 00:20:00 7.8 C 7.18 g/m*3 4.86 C 17.7 km/h
2886 25-12-2016 00:25:00 7.7 C 7.14 g/m*3 5.65 C 11.3 km/h
2887 25-12-2016 00:30:00 7.7 C 7.14 g/m*3 5.65 C 11.3 km/h
2888 25-12-2016 00:35:00 7.7 C 7.14 g/m*3 6.71 C 6.4 km/h
2889 25-12-2016 00:40:00 7.7 C 7.14 g/m*3 5.15 C 14.5 km/h
2890 25-12-2016 00:45:00 7.7 C 7.14 g/m*3 5.65 C 11.3 km/h
2891 25-12-2016 00:50:00 7.8 C 7.18 g/m*3 5.51 C 12.9 km/h
2892 25-12-2016 00:55:00 7.8 C 7.1 g/m*3 5.77 C 11.3 km/h
2893 25-12-2016 01:00:00 7.9 C 7.15 g/m*3 5.39 C 14.5 km/h
2894 25-12-2016 01:05:00 7.9 C 7.15 g/m*3 5.63 C 12.9 km/h
2895 25-12-2016 01:10:00 8 C 7.19 g/m*3 5.52 C 14.5 km/h
2896 25-12-2016 01:15:00 8.1 C 7.24 g/m*3 5.43 C 16.1 km/h
2897 25-12-2016 01:20:00 8.1 C 7.24 g/m*3 5.87 C 12.9 km/h
2898 25-12-2016 01:25:00 8.1 C 7.24 g/m*3 6.13 C 11.3 km/h
2899 25-12-2016 01:30:00 8.1 C 7.16 g/m*3 5.23 C 17.7 km/h
2900 25-12-2016 01:35:00 8.1 C 7.24 g/m*3 6.13 C 11.3 km/h
Sensor: Nr:Datum:Temp:Abs-Feuchte:Windchill:Wind:
Aussen-T/F 2901 25-12-2016 01:40:00 8.1 C 7.24 g/m*3 6.75 C 8.1 km/h
2902 25-12-2016 01:45:00 8.1 C 7.32 g/m*3 6.75 C 8.1 km/h
2903 25-12-2016 01:50:00 8 C 7.28 g/m*3 7.06 C 6.4 km/h
2904 25-12-2016 01:55:00 8 C 7.28 g/m*3 6.64 C 8.1 km/h
2905 25-12-2016 02:00:00 7.9 C 7.31 g/m*3 5.89 C 11.3 km/h
2906 25-12-2016 02:05:00 7.9 C 7.31 g/m*3 5.63 C 12.9 km/h
2907 25-12-2016 02:10:00 7.9 C 7.31 g/m*3 5.89 C 11.3 km/h
2908 25-12-2016 02:15:00 7.9 C 7.31 g/m*3 6.18 C 9.7 km/h
2909 25-12-2016 02:20:00 7.9 C 7.31 g/m*3 5.89 C 11.3 km/h
2910 25-12-2016 02:25:00 8 C 7.28 g/m*3 6.01 C 11.3 km/h
2911 25-12-2016 02:30:00 8.1 C 7.32 g/m*3 6.42 C 9.7 km/h
2912 25-12-2016 02:35:00 8.1 C 7.32 g/m*3 6.13 C 11.3 km/h
2913 25-12-2016 02:40:00 8.2 C 7.37 g/m*3 6.87 C 8.1 km/h
2914 25-12-2016 02:45:00 8.2 C 7.37 g/m*3 6.54 C 9.7 km/h
2915 25-12-2016 02:50:00 8.2 C 7.37 g/m*3 6.54 C 9.7 km/h
2916 25-12-2016 02:55:00 8.2 C 7.37 g/m*3 5.99 C 12.9 km/h
2917 25-12-2016 03:00:00 8.2 C 7.37 g/m*3 5.55 C 16.1 km/h
2918 25-12-2016 03:05:00 8.2 C 7.37 g/m*3 5.36 C 17.7 km/h
2919 25-12-2016 03:10:00 8.2 C 7.37 g/m*3 6.25 C 11.3 km/h
2920 25-12-2016 03:15:00 8.2 C 7.37 g/m*3 6.54 C 9.7 km/h
2921 25-12-2016 03:20:00 8.2 C 7.37 g/m*3 5.18 C 19.3 km/h
2922 25-12-2016 03:25:00 8.2 C 7.37 g/m*3 5.18 C 19.3 km/h
2923 25-12-2016 03:30:00 8.2 C 7.45 g/m*3 6.54 C 9.7 km/h
2924 25-12-2016 03:35:00 8.1 C 7.41 g/m*3 5.64 C 14.5 km/h
2925 25-12-2016 03:40:00 8.1 C 7.41 g/m*3 6.75 C 8.1 km/h
Sensor: Nr:Datum:Temp:Abs-Feuchte:Windchill:Wind:
Aussen-T/F 2926 25-12-2016 03:45:00 8.1 C 7.41 g/m*3 6.13 C 11.3 km/h
2927 25-12-2016 03:50:00 8 C 7.36 g/m*3 5.3 C 16.1 km/h
2928 25-12-2016 03:55:00 8.1 C 7.41 g/m*3 5.87 C 12.9 km/h
2929 25-12-2016 04:00:00 8 C 7.36 g/m*3 6.01 C 11.3 km/h
2930 25-12-2016 04:05:00 8 C 7.36 g/m*3 5.52 C 14.5 km/h
2931 25-12-2016 04:10:00 8.1 C 7.41 g/m*3 6.13 C 11.3 km/h
2932 25-12-2016 04:15:00 8.1 C 7.32 g/m*3 5.87 C 12.9 km/h
2933 25-12-2016 04:20:00 8.2 C 7.37 g/m*3 5.99 C 12.9 km/h
2934 25-12-2016 04:25:00 8.2 C 7.37 g/m*3 5.99 C 12.9 km/h
2935 25-12-2016 04:30:00 8.1 C 7.32 g/m*3 5.87 C 12.9 km/h
2936 25-12-2016 04:35:00 7.9 C 7.23 g/m*3 6.52 C 8.1 km/h
2937 25-12-2016 04:40:00 7.8 C 7.26 g/m*3 5.77 C 11.3 km/h
2938 25-12-2016 04:45:00 7.8 C 7.26 g/m*3 6.83 C 6.4 km/h
2939 25-12-2016 04:50:00 7.8 C 7.35 g/m*3 6.06 C 9.7 km/h
2940 25-12-2016 04:55:00 7.8 C 7.35 g/m*3 6.06 C 9.7 km/h
2941 25-12-2016 05:00:00 7.8 C 7.35 g/m*3 5.77 C 11.3 km/h
2942 25-12-2016 05:05:00 7.8 C 7.35 g/m*3 5.77 C 11.3 km/h
2943 25-12-2016 05:10:00 7.8 C 7.35 g/m*3 6.4 C 8.1 km/h
2944 25-12-2016 05:15:00 7.9 C 7.31 g/m*3 5.89 C 11.3 km/h
2945 25-12-2016 05:20:00 7.9 C 7.31 g/m*3 5.89 C 11.3 km/h
2946 25-12-2016 05:25:00 8 C 7.36 g/m*3 6.3 C 9.7 km/h
2947 25-12-2016 05:30:00 8 C 7.36 g/m*3 6.64 C 8.1 km/h
2948 25-12-2016 05:35:00 8.1 C 7.41 g/m*3 5.87 C 12.9 km/h
2949 25-12-2016 05:40:00 8.1 C 7.41 g/m*3 8.1 C 4.8 km/h
2950 25-12-2016 05:45:00 8.1 C 7.41 g/m*3 5.43 C 16.1 km/h
Sensor: Nr:Datum:Temp:Abs-Feuchte:Windchill:Wind:
Aussen-T/F 2951 25-12-2016 05:50:00 8.1 C 7.41 g/m*3 6.75 C 8.1 km/h
2952 25-12-2016 05:55:00 8.1 C 7.41 g/m*3 5.87 C 12.9 km/h
2953 25-12-2016 06:00:00 8.1 C 7.41 g/m*3 6.42 C 9.7 km/h
2954 25-12-2016 06:05:00 8.1 C 7.41 g/m*3 6.42 C 9.7 km/h
2955 25-12-2016 06:10:00 8.1 C 7.41 g/m*3 6.42 C 9.7 km/h
2956 25-12-2016 06:15:00 8.1 C 7.41 g/m*3 5.87 C 12.9 km/h
2957 25-12-2016 06:20:00 8.1 C 7.41 g/m*3 5.64 C 14.5 km/h
2958 25-12-2016 06:25:00 8.1 C 7.41 g/m*3 6.13 C 11.3 km/h
2959 25-12-2016 06:30:00 8.1 C 7.41 g/m*3 5.64 C 14.5 km/h
2960 25-12-2016 06:35:00 8.1 C 7.41 g/m*3 5.64 C 14.5 km/h
2961 25-12-2016 06:40:00 8 C 7.36 g/m*3 5.52 C 14.5 km/h
2962 25-12-2016 06:45:00 8 C 7.36 g/m*3 5.11 C 17.7 km/h
2963 25-12-2016 06:50:00 8 C 7.36 g/m*3 5.75 C 12.9 km/h
2964 25-12-2016 06:55:00 8 C 7.44 g/m*3 5.52 C 14.5 km/h
2965 25-12-2016 07:00:00 7.9 C 7.39 g/m*3 6.94 C 6.4 km/h
2966 25-12-2016 07:05:00 7.9 C 7.39 g/m*3 6.52 C 8.1 km/h
2967 25-12-2016 07:10:00 7.9 C 7.39 g/m*3 5.89 C 11.3 km/h
2968 25-12-2016 07:15:00 7.9 C 7.39 g/m*3 5.89 C 11.3 km/h
2969 25-12-2016 07:20:00 7.9 C 7.39 g/m*3 6.52 C 8.1 km/h
2970 25-12-2016 07:25:00 7.8 C 7.43 g/m*3 5.77 C 11.3 km/h
2971 25-12-2016 07:30:00 7.8 C 7.43 g/m*3 5.27 C 14.5 km/h
2972 25-12-2016 07:35:00 7.8 C 7.43 g/m*3 7.8 C 4.8 km/h
2973 25-12-2016 07:40:00 7.8 C 7.51 g/m*3 5.51 C 12.9 km/h
2974 25-12-2016 07:45:00 7.7 C 7.46 g/m*3 5.94 C 9.7 km/h
2975 25-12-2016 07:50:00 7.7 C 7.46 g/m*3 5.65 C 11.3 km/h
Sensor: Nr:Datum:Temp:Abs-Feuchte:Windchill:Wind:
Aussen-T/F 2976 25-12-2016 07:55:00 7.7 C 7.46 g/m*3 6.28 C 8.1 km/h
2977 25-12-2016 08:00:00 7.7 C 7.46 g/m*3 5.15 C 14.5 km/h
2978 25-12-2016 08:05:00 7.7 C 7.46 g/m*3 7.7 C 4.8 km/h
2979 25-12-2016 08:10:00 7.7 C 7.46 g/m*3 6.28 C 8.1 km/h
2980 25-12-2016 08:15:00 7.7 C 7.46 g/m*3 6.28 C 8.1 km/h
2981 25-12-2016 08:20:00 7.7 C 7.54 g/m*3 6.71 C 6.4 km/h
2982 25-12-2016 08:25:00 7.7 C 7.54 g/m*3 7.7 C 4.8 km/h
2983 25-12-2016 08:30:00 7.8 C 7.51 g/m*3 5.77 C 11.3 km/h
2984 25-12-2016 08:35:00 7.8 C 7.51 g/m*3 7.8 C 4.8 km/h
2985 25-12-2016 08:40:00 7.9 C 7.56 g/m*3 5.39 C 14.5 km/h
2986 25-12-2016 08:45:00 8 C 7.61 g/m*3 5.75 C 12.9 km/h
2987 25-12-2016 08:50:00 8.1 C 7.57 g/m*3 5.43 C 16.1 km/h
2988 25-12-2016 08:55:00 8.1 C 7.57 g/m*3 4.89 C 20.9 km/h
2989 25-12-2016 09:00:00 8.2 C 7.62 g/m*3 5.99 C 12.9 km/h
2990 25-12-2016 09:05:00 8.2 C 7.54 g/m*3 5.18 C 19.3 km/h
2991 25-12-2016 09:10:00 8.2 C 7.54 g/m*3 5.99 C 12.9 km/h
2992 25-12-2016 09:15:00 8.3 C 7.59 g/m*3 5.48 C 17.7 km/h
2993 25-12-2016 09:20:00 8.3 C 7.59 g/m*3 6.66 C 9.7 km/h
2994 25-12-2016 09:25:00 8.3 C 7.59 g/m*3 5.89 C 14.5 km/h
2995 25-12-2016 09:30:00 8.3 C 7.59 g/m*3 6.37 C 11.3 km/h
2996 25-12-2016 09:35:00 8.4 C 7.63 g/m*3 6.24 C 12.9 km/h
2997 25-12-2016 09:40:00 8.4 C 7.55 g/m*3 5.8 C 16.1 km/h
2998 25-12-2016 09:45:00 8.4 C 7.55 g/m*3 6.01 C 14.5 km/h
2999 25-12-2016 09:50:00 8.5 C 7.6 g/m*3 6.9 C 9.7 km/h
3000 25-12-2016 09:55:00 8.5 C 7.6 g/m*3 6.9 C 9.7 km/h
Sensor: Nr:Datum:Temp:Abs-Feuchte:Windchill:Wind:
Aussen-T/F 3001 25-12-2016 10:00:00 8.6 C 7.65 g/m*3 7.01 C 9.7 km/h
3002 25-12-2016 10:05:00 8.6 C 7.65 g/m*3 5.68 C 19.3 km/h
3003 25-12-2016 10:10:00 8.6 C 7.65 g/m*3 6.48 C 12.9 km/h
3004 25-12-2016 10:15:00 8.7 C 7.7 g/m*3 6.6 C 12.9 km/h
3005 25-12-2016 10:20:00 8.7 C 7.7 g/m*3 5.65 C 20.9 km/h
3006 25-12-2016 10:25:00 8.7 C 7.7 g/m*3 6.85 C 11.3 km/h
3007 25-12-2016 10:30:00 8.7 C 7.7 g/m*3 6.38 C 14.5 km/h
3008 25-12-2016 10:35:00 8.8 C 7.75 g/m*3 5.62 C 22.5 km/h
3009 25-12-2016 10:40:00 8.8 C 7.75 g/m*3 5.93 C 19.3 km/h
3010 25-12-2016 10:45:00 8.8 C 7.75 g/m*3 6.11 C 17.7 km/h
3011 25-12-2016 10:50:00 8.9 C 7.71 g/m*3 6.06 C 19.3 km/h
3012 25-12-2016 10:55:00 8.9 C 7.71 g/m*3 5.9 C 20.9 km/h
3013 25-12-2016 11:00:00 8.9 C 7.71 g/m*3 6.06 C 19.3 km/h
3014 25-12-2016 11:05:00 8.9 C 7.71 g/m*3 6.85 C 12.9 km/h
3015 25-12-2016 11:10:00 9 C 7.76 g/m*3 6.75 C 14.5 km/h
3016 25-12-2016 11:15:00 9.1 C 7.81 g/m*3 6.87 C 14.5 km/h
3017 25-12-2016 11:20:00 9.1 C 7.9 g/m*3 7.33 C 11.3 km/h
3018 25-12-2016 11:25:00 9.1 C 7.81 g/m*3 6.48 C 17.7 km/h
3019 25-12-2016 11:30:00 9.1 C 7.9 g/m*3 6.87 C 14.5 km/h
3020 25-12-2016 11:35:00 9.1 C 7.9 g/m*3 6 C 22.5 km/h
3021 25-12-2016 11:40:00 9.2 C 7.95 g/m*3 6.79 C 16.1 km/h
3022 25-12-2016 11:45:00 9.2 C 7.95 g/m*3 7.21 C 12.9 km/h
3023 25-12-2016 11:50:00 9.2 C 7.95 g/m*3 6.99 C 14.5 km/h
3024 25-12-2016 11:55:00 9.2 C 7.95 g/m*3 6.79 C 16.1 km/h
3025 25-12-2016 12:00:00 9.2 C 7.95 g/m*3 6.79 C 16.1 km/h
Sensor: Nr:Datum:Temp:Abs-Feuchte:Windchill:Wind:
Aussen-T/F 3026 25-12-2016 12:05:00 9.3 C 7.91 g/m*3 6.12 C 24.1 km/h
3027 25-12-2016 12:10:00 9.3 C 7.91 g/m*3 6.56 C 19.3 km/h
3028 25-12-2016 12:15:00 9.3 C 7.91 g/m*3 5.98 C 25.7 km/h
3029 25-12-2016 12:20:00 9.3 C 7.91 g/m*3 5.98 C 25.7 km/h
3030 25-12-2016 12:25:00 9.4 C 7.96 g/m*3 6.38 C 22.5 km/h
3031 25-12-2016 12:30:00 9.4 C 7.96 g/m*3 7.24 C 14.5 km/h
3032 25-12-2016 12:35:00 9.4 C 7.96 g/m*3 6.69 C 19.3 km/h
3033 25-12-2016 12:40:00 9.4 C 7.96 g/m*3 6.86 C 17.7 km/h
3034 25-12-2016 12:45:00 9.4 C 7.96 g/m*3 6.53 C 20.9 km/h
3035 25-12-2016 12:50:00 9.4 C 7.96 g/m*3 6.25 C 24.1 km/h
3036 25-12-2016 12:55:00 9.4 C 7.96 g/m*3 6.86 C 17.7 km/h
3037 25-12-2016 13:00:00 9.4 C 7.96 g/m*3 7.04 C 16.1 km/h
3038 25-12-2016 13:05:00 9.4 C 7.96 g/m*3 7.24 C 14.5 km/h
3039 25-12-2016 13:10:00 9.4 C 7.96 g/m*3 6.86 C 17.7 km/h
3040 25-12-2016 13:15:00 9.4 C 7.96 g/m*3 6.69 C 19.3 km/h
3041 25-12-2016 13:20:00 9.4 C 7.96 g/m*3 6.38 C 22.5 km/h
3042 25-12-2016 13:25:00 9.4 C 7.96 g/m*3 6.53 C 20.9 km/h
3043 25-12-2016 13:30:00 9.3 C 7.91 g/m*3 6.92 C 16.1 km/h
3044 25-12-2016 13:35:00 9.3 C 7.91 g/m*3 7.12 C 14.5 km/h
3045 25-12-2016 13:40:00 9.3 C 7.91 g/m*3 6.73 C 17.7 km/h
3046 25-12-2016 13:45:00 9.3 C 7.91 g/m*3 6.73 C 17.7 km/h
3047 25-12-2016 13:50:00 9.3 C 7.91 g/m*3 7.33 C 12.9 km/h
3048 25-12-2016 13:55:00 9.3 C 7.91 g/m*3 7.58 C 11.3 km/h
3049 25-12-2016 14:00:00 9.3 C 7.91 g/m*3 6.41 C 20.9 km/h
3050 25-12-2016 14:05:00 9.3 C 7.91 g/m*3 7.12 C 14.5 km/h
Sensor: Nr:Datum:Temp:Abs-Feuchte:Windchill:Wind:
Aussen-T/F 3051 25-12-2016 14:10:00 9.2 C 7.86 g/m*3 7.21 C 12.9 km/h
3052 25-12-2016 14:15:00 9.2 C 7.86 g/m*3 6.99 C 14.5 km/h
3053 25-12-2016 14:20:00 9.2 C 7.86 g/m*3 7.21 C 12.9 km/h
3054 25-12-2016 14:25:00 9.2 C 7.86 g/m*3 6.79 C 16.1 km/h
3055 25-12-2016 14:30:00 9.2 C 7.86 g/m*3 7.21 C 12.9 km/h
3056 25-12-2016 14:35:00 9.1 C 7.9 g/m*3 6.31 C 19.3 km/h
3057 25-12-2016 14:40:00 9.1 C 7.9 g/m*3 6.67 C 16.1 km/h
3058 25-12-2016 14:45:00 9.1 C 7.9 g/m*3 6.48 C 17.7 km/h
3059 25-12-2016 14:50:00 9.1 C 7.9 g/m*3 6.87 C 14.5 km/h
3060 25-12-2016 14:55:00 9 C 7.85 g/m*3 7.21 C 11.3 km/h
3061 25-12-2016 15:00:00 9 C 7.85 g/m*3 6.19 C 19.3 km/h
3062 25-12-2016 15:05:00 8.9 C 7.8 g/m*3 7.37 C 9.7 km/h
3063 25-12-2016 15:10:00 8.9 C 7.8 g/m*3 6.62 C 14.5 km/h
3064 25-12-2016 15:15:00 8.9 C 7.8 g/m*3 6.62 C 14.5 km/h
3065 25-12-2016 15:20:00 8.9 C 7.8 g/m*3 6.42 C 16.1 km/h
3066 25-12-2016 15:25:00 8.9 C 7.8 g/m*3 6.42 C 16.1 km/h
3067 25-12-2016 15:30:00 8.9 C 7.8 g/m*3 6.42 C 16.1 km/h
3068 25-12-2016 15:35:00 8.9 C 7.8 g/m*3 6.62 C 14.5 km/h
3069 25-12-2016 15:40:00 8.9 C 7.8 g/m*3 6.23 C 17.7 km/h
3070 25-12-2016 15:45:00 8.9 C 7.8 g/m*3 6.85 C 12.9 km/h
3071 25-12-2016 15:50:00 8.9 C 7.88 g/m*3 7.09 C 11.3 km/h
3072 25-12-2016 15:55:00 8.9 C 7.8 g/m*3 6.06 C 19.3 km/h
3073 25-12-2016 16:00:00 8.9 C 7.88 g/m*3 6.85 C 12.9 km/h
3074 25-12-2016 16:05:00 8.8 C 7.83 g/m*3 6.72 C 12.9 km/h
3075 25-12-2016 16:10:00 8.8 C 7.83 g/m*3 6.5 C 14.5 km/h
Sensor: Nr:Datum:Temp:Abs-Feuchte:Windchill:Wind:
Aussen-T/F 3076 25-12-2016 16:15:00 8.8 C 7.83 g/m*3 6.11 C 17.7 km/h
3077 25-12-2016 16:20:00 8.8 C 7.83 g/m*3 6.72 C 12.9 km/h
3078 25-12-2016 16:25:00 8.8 C 7.83 g/m*3 6.3 C 16.1 km/h
3079 25-12-2016 16:30:00 8.8 C 7.83 g/m*3 6.11 C 17.7 km/h
3080 25-12-2016 16:35:00 8.8 C 7.83 g/m*3 6.72 C 12.9 km/h
3081 25-12-2016 16:40:00 8.8 C 7.83 g/m*3 5.34 C 25.7 km/h
3082 25-12-2016 16:45:00 8.7 C 7.78 g/m*3 6.38 C 14.5 km/h
3083 25-12-2016 16:50:00 8.7 C 7.78 g/m*3 5.81 C 19.3 km/h
3084 25-12-2016 16:55:00 8.7 C 7.78 g/m*3 6.38 C 14.5 km/h
3085 25-12-2016 17:00:00 8.8 C 7.75 g/m*3 5.2 C 27.4 km/h
3086 25-12-2016 17:05:00 8.8 C 7.75 g/m*3 6.11 C 17.7 km/h
3087 25-12-2016 17:10:00 8.8 C 7.75 g/m*3 6.11 C 17.7 km/h
3088 25-12-2016 17:15:00 8.8 C 7.75 g/m*3 5.62 C 22.5 km/h
3089 25-12-2016 17:20:00 8.8 C 7.75 g/m*3 5.77 C 20.9 km/h
3090 25-12-2016 17:25:00 8.8 C 7.75 g/m*3 6.3 C 16.1 km/h
3091 25-12-2016 17:30:00 8.8 C 7.75 g/m*3 6.11 C 17.7 km/h
3092 25-12-2016 17:35:00 8.8 C 7.75 g/m*3 6.72 C 12.9 km/h
3093 25-12-2016 17:40:00 8.8 C 7.75 g/m*3 5.93 C 19.3 km/h
3094 25-12-2016 17:45:00 8.8 C 7.75 g/m*3 6.5 C 14.5 km/h
3095 25-12-2016 17:50:00 8.8 C 7.75 g/m*3 6.97 C 11.3 km/h
3096 25-12-2016 17:55:00 8.8 C 7.75 g/m*3 6.97 C 11.3 km/h
3097 25-12-2016 18:00:00 8.8 C 7.75 g/m*3 6.5 C 14.5 km/h
3098 25-12-2016 18:05:00 8.8 C 7.75 g/m*3 5.77 C 20.9 km/h
3099 25-12-2016 18:10:00 8.7 C 7.7 g/m*3 6.17 C 16.1 km/h
3100 25-12-2016 18:15:00 8.7 C 7.7 g/m*3 6.85 C 11.3 km/h
Sensor: Nr:Datum:Temp:Abs-Feuchte:Windchill:Wind:
Aussen-T/F 3101 25-12-2016 18:20:00 8.7 C 7.78 g/m*3 6.17 C 16.1 km/h
3102 25-12-2016 18:25:00 8.7 C 7.78 g/m*3 7.46 C 8.1 km/h
3103 25-12-2016 18:30:00 8.7 C 7.78 g/m*3 6.38 C 14.5 km/h
3104 25-12-2016 18:35:00 8.7 C 7.78 g/m*3 6.17 C 16.1 km/h
3105 25-12-2016 18:40:00 8.7 C 7.78 g/m*3 6.6 C 12.9 km/h
3106 25-12-2016 18:45:00 8.7 C 7.78 g/m*3 6.17 C 16.1 km/h
3107 25-12-2016 18:50:00 8.6 C 7.73 g/m*3 6.05 C 16.1 km/h
3108 25-12-2016 18:55:00 8.7 C 7.78 g/m*3 6.17 C 16.1 km/h
3109 25-12-2016 19:00:00 8.7 C 7.78 g/m*3 6.85 C 11.3 km/h
3110 25-12-2016 19:05:00 8.7 C 7.78 g/m*3 6.38 C 14.5 km/h
3111 25-12-2016 19:10:00 8.7 C 7.78 g/m*3 6.17 C 16.1 km/h
3112 25-12-2016 19:15:00 8.7 C 7.78 g/m*3 6.85 C 11.3 km/h
3113 25-12-2016 19:20:00 8.7 C 7.78 g/m*3 6.6 C 12.9 km/h
3114 25-12-2016 19:25:00 8.7 C 7.78 g/m*3 6.17 C 16.1 km/h
3115 25-12-2016 19:30:00 8.7 C 7.78 g/m*3 5.81 C 19.3 km/h
3116 25-12-2016 19:35:00 8.7 C 7.7 g/m*3 6.6 C 12.9 km/h
3117 25-12-2016 19:40:00 8.7 C 7.7 g/m*3 6.85 C 11.3 km/h
3118 25-12-2016 19:45:00 8.8 C 7.75 g/m*3 6.11 C 17.7 km/h
3119 25-12-2016 19:50:00 8.8 C 7.75 g/m*3 7.25 C 9.7 km/h
3120 25-12-2016 19:55:00 8.8 C 7.75 g/m*3 6.97 C 11.3 km/h
3121 25-12-2016 20:00:00 8.7 C 7.78 g/m*3 5.98 C 17.7 km/h
3122 25-12-2016 20:05:00 8.7 C 7.78 g/m*3 6.6 C 12.9 km/h
3123 25-12-2016 20:10:00 8.7 C 7.78 g/m*3 6.38 C 14.5 km/h
3124 25-12-2016 20:15:00 8.7 C 7.78 g/m*3 6.85 C 11.3 km/h
3125 25-12-2016 20:20:00 8.8 C 7.83 g/m*3 7.58 C 8.1 km/h
Sensor: Nr:Datum:Temp:Abs-Feuchte:Windchill:Wind:
Aussen-T/F 3126 25-12-2016 20:25:00 8.7 C 7.78 g/m*3 7.13 C 9.7 km/h
3127 25-12-2016 20:30:00 8.7 C 7.78 g/m*3 6.85 C 11.3 km/h
3128 25-12-2016 20:35:00 8.7 C 7.78 g/m*3 7.13 C 9.7 km/h
3129 25-12-2016 20:40:00 8.7 C 7.78 g/m*3 6.85 C 11.3 km/h
3130 25-12-2016 20:45:00 8.7 C 7.78 g/m*3 6.17 C 16.1 km/h
3131 25-12-2016 20:50:00 8.7 C 7.78 g/m*3 8.7 C 4.8 km/h
3132 25-12-2016 20:55:00 8.7 C 7.78 g/m*3 7.87 C 6.4 km/h
3133 25-12-2016 21:00:00 8.7 C 7.78 g/m*3 7.46 C 8.1 km/h
3134 25-12-2016 21:05:00 8.7 C 7.78 g/m*3 6.85 C 11.3 km/h
3135 25-12-2016 21:10:00 8.8 C 7.83 g/m*3 7.58 C 8.1 km/h
3136 25-12-2016 21:15:00 8.8 C 7.83 g/m*3 7.25 C 9.7 km/h
3137 25-12-2016 21:20:00 8.8 C 7.83 g/m*3 6.97 C 11.3 km/h
3138 25-12-2016 21:25:00 8.8 C 7.83 g/m*3 7.58 C 8.1 km/h
3139 25-12-2016 21:30:00 8.8 C 7.83 g/m*3 7.58 C 8.1 km/h
3140 25-12-2016 21:35:00 8.8 C 7.83 g/m*3 7.58 C 8.1 km/h
3141 25-12-2016 21:40:00 8.8 C 7.83 g/m*3 7.25 C 9.7 km/h
3142 25-12-2016 21:45:00 8.8 C 7.83 g/m*3 6.5 C 14.5 km/h
3143 25-12-2016 21:50:00 8.9 C 7.88 g/m*3 6.62 C 14.5 km/h
3144 25-12-2016 21:55:00 8.9 C 7.88 g/m*3 7.69 C 8.1 km/h
3145 25-12-2016 22:00:00 8.9 C 7.88 g/m*3 7.09 C 11.3 km/h
3146 25-12-2016 22:05:00 8.9 C 7.88 g/m*3 8.1 C 6.4 km/h
3147 25-12-2016 22:10:00 8.8 C 7.83 g/m*3 8.8 C 4.8 km/h
3148 25-12-2016 22:15:00 8.8 C 7.92 g/m*3 7.58 C 8.1 km/h
3149 25-12-2016 22:20:00 8.8 C 7.92 g/m*3 8.8 C 4.8 km/h
3150 25-12-2016 22:25:00 8.8 C 7.92 g/m*3 7.25 C 9.7 km/h
Sensor: Nr:Datum:Temp:Abs-Feuchte:Windchill:Wind:
Aussen-T/F 3151 25-12-2016 22:30:00 8.8 C 7.92 g/m*3 7.58 C 8.1 km/h
3152 25-12-2016 22:35:00 8.8 C 7.92 g/m*3 6.72 C 12.9 km/h
3153 25-12-2016 22:40:00 8.8 C 7.92 g/m*3 7.25 C 9.7 km/h
3154 25-12-2016 22:45:00 8.9 C 7.97 g/m*3 6.42 C 16.1 km/h
3155 25-12-2016 22:50:00 8.9 C 7.97 g/m*3 7.09 C 11.3 km/h
3156 25-12-2016 22:55:00 8.9 C 7.97 g/m*3 7.37 C 9.7 km/h
3157 25-12-2016 23:00:00 9 C 8.02 g/m*3 7.81 C 8.1 km/h
3158 25-12-2016 23:05:00 9 C 8.02 g/m*3 6.97 C 12.9 km/h
3159 25-12-2016 23:10:00 9 C 8.02 g/m*3 7.21 C 11.3 km/h
3160 25-12-2016 23:15:00 9 C 8.02 g/m*3 7.49 C 9.7 km/h
3161 25-12-2016 23:20:00 9 C 8.02 g/m*3 7.81 C 8.1 km/h
3162 25-12-2016 23:25:00 9 C 8.02 g/m*3 7.81 C 8.1 km/h
3163 25-12-2016 23:30:00 9 C 8.02 g/m*3 7.21 C 11.3 km/h
3164 25-12-2016 23:35:00 9 C 8.02 g/m*3 8.21 C 6.4 km/h
3165 25-12-2016 23:40:00 9.1 C 8.07 g/m*3 7.93 C 8.1 km/h
3166 25-12-2016 23:45:00 9.1 C 8.07 g/m*3 7.09 C 12.9 km/h
3167 25-12-2016 23:50:00 9.1 C 8.07 g/m*3 9.1 C 4.8 km/h
3168 25-12-2016 23:55:00 9.1 C 8.07 g/m*3 6.87 C 14.5 km/h
3169 26-12-2016 00:00:00 9.1 C 8.07 g/m*3 7.93 C 8.1 km/h
3170 26-12-2016 00:05:00 9.1 C 8.07 g/m*3 7.33 C 11.3 km/h
3171 26-12-2016 00:10:00 9.1 C 8.07 g/m*3 7.61 C 9.7 km/h
3172 26-12-2016 00:15:00 9.1 C 8.07 g/m*3 7.93 C 8.1 km/h
3173 26-12-2016 00:20:00 9.1 C 8.07 g/m*3 8.33 C 6.4 km/h
3174 26-12-2016 00:25:00 9.1 C 8.07 g/m*3 9.1 C 4.8 km/h
3175 26-12-2016 00:30:00 9.1 C 8.07 g/m*3 7.93 C 8.1 km/h
Sensor: Nr:Datum:Temp:Abs-Feuchte:Windchill:Wind:
Aussen-T/F 3176 26-12-2016 00:35:00 9.2 C 8.13 g/m*3 7.21 C 12.9 km/h
3177 26-12-2016 00:40:00 9.2 C 8.13 g/m*3 7.73 C 9.7 km/h
3178 26-12-2016 00:45:00 9.2 C 8.13 g/m*3 8.45 C 6.4 km/h
3179 26-12-2016 00:50:00 9.2 C 8.13 g/m*3 7.46 C 11.3 km/h
3180 26-12-2016 00:55:00 9.2 C 8.13 g/m*3 7.21 C 12.9 km/h
3181 26-12-2016 01:00:00 9.2 C 8.13 g/m*3 8.05 C 8.1 km/h
3182 26-12-2016 01:05:00 9.2 C 8.13 g/m*3 7.46 C 11.3 km/h
3183 26-12-2016 01:10:00 9.2 C 8.22 g/m*3 6.99 C 14.5 km/h
3184 26-12-2016 01:15:00 9.2 C 8.22 g/m*3 8.45 C 6.4 km/h
3185 26-12-2016 01:20:00 9.2 C 8.22 g/m*3 7.21 C 12.9 km/h
3186 26-12-2016 01:25:00 9.2 C 8.22 g/m*3 6.61 C 17.7 km/h
3187 26-12-2016 01:30:00 9.2 C 8.22 g/m*3 8.45 C 6.4 km/h
3188 26-12-2016 01:35:00 9.2 C 8.13 g/m*3 8.45 C 6.4 km/h
3189 26-12-2016 01:40:00 9.2 C 8.13 g/m*3 8.45 C 6.4 km/h
3190 26-12-2016 01:45:00 9.3 C 8.18 g/m*3 9.3 C 3.2 km/h
3191 26-12-2016 01:50:00 9.3 C 8.18 g/m*3 8.56 C 6.4 km/h
3192 26-12-2016 01:55:00 9.3 C 8.18 g/m*3 7.58 C 11.3 km/h
3193 26-12-2016 02:00:00 9.3 C 8.18 g/m*3 8.56 C 6.4 km/h
3194 26-12-2016 02:05:00 9.3 C 8.18 g/m*3 9.3 C 4.8 km/h
3195 26-12-2016 02:10:00 9.4 C 8.23 g/m*3 8.28 C 8.1 km/h
3196 26-12-2016 02:15:00 9.4 C 8.23 g/m*3 9.4 C 4.8 km/h
3197 26-12-2016 02:20:00 9.4 C 8.23 g/m*3 9.4 C 4.8 km/h
3198 26-12-2016 02:25:00 9.4 C 8.23 g/m*3 9.4 C 4.8 km/h
3199 26-12-2016 02:30:00 9.4 C 8.23 g/m*3 8.28 C 8.1 km/h
3200 26-12-2016 02:35:00 9.5 C 8.28 g/m*3 8.09 C 9.7 km/h
Sensor: Nr:Datum:Temp:Abs-Feuchte:Windchill:Wind:
Aussen-T/F 3201 26-12-2016 02:40:00 9.5 C 8.28 g/m*3 8.4 C 8.1 km/h
3202 26-12-2016 02:45:00 9.5 C 8.28 g/m*3 7.16 C 16.1 km/h
3203 26-12-2016 02:50:00 9.6 C 8.34 g/m*3 8.21 C 9.7 km/h
3204 26-12-2016 02:55:00 9.6 C 8.34 g/m*3 7.94 C 11.3 km/h
3205 26-12-2016 03:00:00 9.6 C 8.34 g/m*3 8.91 C 6.4 km/h
3206 26-12-2016 03:05:00 9.6 C 8.34 g/m*3 9.6 C 3.2 km/h
3207 26-12-2016 03:10:00 9.6 C 8.34 g/m*3 8.52 C 8.1 km/h
3208 26-12-2016 03:15:00 9.6 C 8.34 g/m*3 8.21 C 9.7 km/h
3209 26-12-2016 03:20:00 9.6 C 8.34 g/m*3 7.7 C 12.9 km/h
3210 26-12-2016 03:25:00 9.6 C 8.34 g/m*3 7.48 C 14.5 km/h
3211 26-12-2016 03:30:00 9.6 C 8.34 g/m*3 7.94 C 11.3 km/h
3212 26-12-2016 03:35:00 9.6 C 8.34 g/m*3 7.94 C 11.3 km/h
3213 26-12-2016 03:40:00 9.6 C 8.34 g/m*3 7.94 C 11.3 km/h
3214 26-12-2016 03:45:00 9.6 C 8.34 g/m*3 7.94 C 11.3 km/h
3215 26-12-2016 03:50:00 9.6 C 8.34 g/m*3 7.7 C 12.9 km/h
3216 26-12-2016 03:55:00 9.6 C 8.34 g/m*3 7.7 C 12.9 km/h
3217 26-12-2016 04:00:00 9.6 C 8.34 g/m*3 7.29 C 16.1 km/h
3218 26-12-2016 04:05:00 9.6 C 8.34 g/m*3 8.52 C 8.1 km/h
3219 26-12-2016 04:10:00 9.5 C 8.28 g/m*3 8.4 C 8.1 km/h
3220 26-12-2016 04:15:00 9.5 C 8.28 g/m*3 8.4 C 8.1 km/h
3221 26-12-2016 04:20:00 9.5 C 8.28 g/m*3 7.36 C 14.5 km/h
3222 26-12-2016 04:25:00 9.5 C 8.28 g/m*3 8.09 C 9.7 km/h
3223 26-12-2016 04:30:00 9.5 C 8.28 g/m*3 8.4 C 8.1 km/h
3224 26-12-2016 04:35:00 9.5 C 8.28 g/m*3 7.58 C 12.9 km/h
3225 26-12-2016 04:40:00 9.5 C 8.28 g/m*3 8.4 C 8.1 km/h
Sensor: Nr:Datum:Temp:Abs-Feuchte:Windchill:Wind:
Aussen-T/F 3226 26-12-2016 04:45:00 9.5 C 8.28 g/m*3 8.09 C 9.7 km/h
3227 26-12-2016 04:50:00 9.5 C 8.28 g/m*3 8.4 C 8.1 km/h
3228 26-12-2016 04:55:00 9.5 C 8.28 g/m*3 8.09 C 9.7 km/h
3229 26-12-2016 05:00:00 9.5 C 8.28 g/m*3 7.58 C 12.9 km/h
3230 26-12-2016 05:05:00 9.6 C 8.34 g/m*3 7.11 C 17.7 km/h
3231 26-12-2016 05:10:00 9.6 C 8.34 g/m*3 7.48 C 14.5 km/h
3232 26-12-2016 05:15:00 9.6 C 8.24 g/m*3 8.91 C 6.4 km/h
3233 26-12-2016 05:20:00 9.6 C 8.24 g/m*3 7.94 C 11.3 km/h
3234 26-12-2016 05:25:00